     2              OBSERVATION DATA    GPS                 RINEX VERSION / TYPE
ASRINEXO V2.4.4 UX USGS 01-APR-97 15:19                     PGM / RUN BY / DATE
                                                            COMMENT
Contact: kwendt@isdmnl.wr.usgs.gov (Ph: 415-329-4866)       COMMENT
Contact: kwendt@isdmnl.wr.usgs.gov (Ph: 415-329-4866)       COMMENT
Contact: kwendt@isdmnl.wr.usgs.gov (Ph: 415-329-4866)       COMMENT
Contact: kwendt@isdmnl.wr.usgs.gov (Ph: 415-329-4866)       COMMENT
Contact: kwendt@isdmnl.wr.usgs.gov (Ph: 415-329-4866)       COMMENT
Contact: kwendt@isdmnl.wr.usgs.gov (Ph: 415-329-4866)       COMMENT
Original Marker Name: go42 Gold_1942_USC&GS                 COMMENT
Campaign Name: USGS Parkfield                               COMMENT
4-Character Station Name: GOLD                              COMMENT
6-Character Antenna Code: ASHL12                            COMMENT
Vertical Measurement Point: BBE                             COMMENT
Vertical Offset to Rinex Ref. Point: 0.0595                 COMMENT
Radial Measurement Point: EGP                               COMMENT
Radial Offset to Rinex Ref. Point: 0.1424                   COMMENT
Antenna Height from Field Measurement: 1.2710 m             COMMENT
Additional Antenna Identification Info.:                    COMMENT
Original Ashtech L1/L2 (700228ABC)                          COMMENT
Original XYZ: -2616079.7200 -4467877.0400 3713310.9000      COMMENT
New XYZ position is based on association with SCEC monument COMMENT
E1F1E7F9+0011. Position of that monument is believed to be  COMMENT
valid to within 1 m horizontally; vertical accuracy         COMMENT
should be no worse than 3-times this value.                 COMMENT
                                                            COMMENT
Revised Rinex header created by UCSD GPS archive for        COMMENT
GSAC on 11-Jul-2000 (2000:193) 00:21:15 GMT                 COMMENT
For assistance contact dagnew@ucsd.edu                      COMMENT
or anderson@python.ucsd.edu                                 COMMENT
                                                            COMMENT
GOLD 1942                                                   MARKER NAME
KWC US GEOLOGICAL SURVEY                                    OBSERVER / AGENCY
831 ASHTECH L-XII 5F                                        REC # / TYPE / VERS
616 ASHTECH GEODETIC L                                      ANT # / TYPE
 -2616053.6173 -4467854.6723  3713257.5710                  APPROX POSITION XYZ
        1.2035        0.0000        0.0000                  ANTENNA: DELTA H/E/N
     1     2     0                                          WAVELENGTH FACT L1/2
     3    C1    L1    L2                                    # / TYPES OF OBSERV
    30                                                      INTERVAL
  1992     4    12     2    22   30.000000                  TIME OF FIRST OBS
  1992     4    12    12    48   60.000000                  TIME OF LAST OBS
                                                            END OF HEADER
 92  4 12  2 22 30.0000000  0  3 12 13 24
  31225133.190      -33904.816 9    -26419.038 9
  31696171.597       47178.595 9     36762.499 6
  31390577.855      -70810.410 8    -55176.918 7
 92  4 12  2 23  0.0000000  0  3 12 13 24
  21025813.932      -32942.517 8    -25669.407 9
  21512492.511       47885.486 9     37313.456 6
  21184081.266      -70018.212 8    -54560.099 8
 92  4 12  2 23 30.0000000  0  3 12 13 24
  21019634.910      -65409.381 8    -50968.242 9
  21521865.822       97128.063 9     75684.301 5
  21170712.920     -140276.416 8   -109306.655 8
 92  4 12  2 24  0.0000000  0  3 12 13 24
  21013642.658      -96898.434 8    -75505.144 9
  21531343.461      146948.541 9    114505.456 5
  21157503.165     -209681.649 8   -163388.573 8
 92  4 12  2 24 30.0000000  0  3 12 13 24
  21007830.582     -127431.877 8    -99297.411 9
  21540930.224      197321.771 9    153757.310 6
  21144462.193     -278224.150 8   -216798.222 7
 92  4 12  2 25  0.0000000  0  3 12 13 24
  21002198.980     -157037.976 8   -122367.079 9
  21550615.619      248216.045 9    193415.197 6
  21131579.212     -345922.189 8   -269549.856 8
 92  4 12  2 25 30.0000000  0  3 12 13 24
  20996737.661     -185732.850 8   -144726.697 9
  21560394.849      299611.235 9    233463.394 5
  21118855.121     -412798.428 8   -321661.127 8
 92  4 12  2 26  0.0000000  0  3 12 13 24
  20991449.022     -213534.569 8   -166390.352 9
  21570266.415      351486.642 9    273885.804 6
  21106282.725     -478858.802 8   -373136.656 9
 92  4 12  2 26 30.0000000  0  3 12 13 24
  20986324.070     -240464.830 8   -187374.953 9
  21580224.321      403817.319 9    314662.954 6
  21093862.923     -544129.690 8   -423997.008 9
 92  4 12  2 27  0.0000000  0  3 12 13 24
  20981361.606     -266543.302 8   -207695.815 9
  21590263.771      456580.088 8    355776.797 6
  21081586.122     -608645.620 8   -474269.070 9
 92  4 12  2 27 30.0000000  0  3 12 13 24
  20976555.932     -291789.576 8   -227368.214 9
  21600384.165      509751.678 8    397209.220 5
  21069445.726     -672430.037 8   -523971.134 9
 92  4 12  2 28  0.0000000  0  3 12 13 24
  20971908.850     -316208.975 8   -246396.286 9
  21610578.308      563323.776 9    438953.715 5
  21057448.632     -735481.942 8   -573102.408 9
 92  4 12  2 28 30.0000000  0  3 12 13 24
  20967419.158     -339820.140 8   -264794.577 9
  21620845.300      617275.269 8    480993.865 6
  21045586.444     -797820.997 8   -621678.205 9
 92  4 12  2 29  0.0000000  0  3 12 13 24
  20963075.165     -362634.869 8   -282572.265 9
  21631179.146      671591.122 8    523317.895 5
  21033856.164     -859469.278 8   -669715.757 9
 92  4 12  2 29 30.0000000  0  3 12 13 24
  20958882.568     -384665.096 8   -299738.652 9
  21641584.043      726256.307 9    565914.152 5
  21022253.897     -920445.087 8   -717229.294 9
 92  4 12  2 30  0.0000000  0  3 12 13 24
  20954835.070     -405926.831 8   -316306.222 9
  21652047.699      781251.425 8    608767.502 6
  21010775.443     -980757.773 8   -764226.106 9
 92  4 12  2 30 30.0000000  0  3 12 13 24
  20950933.570     -426429.850 8   -332282.578 9
  21662574.611      836563.382 8    651867.740 6
  20999422.302    -1040412.139 8   -810709.944 9
 92  4 12  2 31  0.0000000  0  3 12 13 24
  20947176.571     -446184.755 8   -347675.995 9
  21673156.686      892178.935 8    695204.545 6
  20988195.375    -1099416.332 8   -856687.157 9
 92  4 12  2 31 30.0000000  0  3 12 13 24
  20943559.276     -465199.740 8   -362492.838 9
  21683793.622      948087.188 8    738769.403 5
  20977093.161    -1157765.749 8   -902154.157 9
 92  4 12  2 32  0.0000000  0  3 12 13 24
  20940075.388     -483483.848 8   -376740.174 9
  21694489.617     1004275.678 8    782552.656 5
  20966113.562    -1215459.679 8   -947110.386 9
 92  4 12  2 32 30.0000000  0  3 12 13 24
  20936735.100     -501035.514 8   -390416.778 9
  21705234.779     1060743.427 9    826553.474 5
  20955251.182    -1272512.535 8   -991567.088 9
 92  4 12  2 33  0.0000000  0  3 12 13 24
  20933534.216     -517865.317 8   -403530.884 9
  21716031.804     1117476.576 8    870761.130 5
  20944513.215    -1328955.062 8  -1035548.197 9
 92  4 12  2 33 30.0000000  0  3 12 13 24
  20930470.037     -533982.390 8   -416089.632 9
  21726873.498     1174463.241 8    915166.301 5
  20933886.472    -1384792.169 8  -1079057.545 9
 92  4 12  2 34  0.0000000  0  3 12 13 24
  20927538.367     -549382.541 8   -428089.729 9
  21737767.357     1231705.642 8    959770.771 6
  20923378.446    -1440015.957 8  -1122088.985 9
 92  4 12  2 34 30.0000000  0  3 12 13 24
  20924743.102     -564070.949 8   -439535.224 9
  21748706.484     1289195.590 8   1004568.097 5
  20912989.139    -1494626.662 8  -1164642.697 9
 92  4 12  2 35  0.0000000  0  4 12 13 24 20
  20922083.343     -578047.831 8   -450426.287 9
  21759693.877     1346929.770 8   1049555.774 5
  20902716.451    -1548604.158 8  -1206703.007 9
  24756789.531    -2665307.492 5  -2076862.985 2
 92  4 12  2 35 30.0000000  0  4 12 13 24 20
  20919558.491     -591313.175 8   -460762.893 9
  21770725.640     1404905.370 8   1094731.550 5
  20892565.178    -1601938.173 8  -1248261.906 9
  24736779.284    -2770374.935 5  -2158733.595 2
 92  4 12  2 36  0.0000000  0  4 12 13 24 20
  20917172.443     -603862.763 8   -470541.779 9
  21781804.770     1463124.188 8   1140096.852 6
  20882536.521    -1654638.140 8  -1289326.738 9
  24716797.218    -2875360.119 4  -2240540.028 2
 92  4 12  2 36 30.0000000  0  4 12 13 24 20
  20914914.406     -615705.678 8   -479770.005 9
  21792928.270     1521574.339 8   1185642.402 5
  20872625.082    -1706731.794 8  -1329919.114 9
  24696837.935    -2980271.614 5  -2322289.149 3
 92  4 12  2 37  0.0000000  0  4 12 13 24 20
  20912799.071     -626840.209 8   -488446.244 9
  21804094.639     1580255.054 8   1231367.633 5
  20862823.668    -1758228.296 8  -1370046.190 9
  24676884.648    -3085106.777 5  -2403978.760 2
 92  4 12  2 37 30.0000000  0  4 12 13 24 20
  20910812.646     -637264.702 8   -496569.213 9
  21815305.379     1639165.783 8   1277272.108 4
  20853140.072    -1809132.256 8  -1409711.539 9
  24656953.247    -3189863.810 5  -2485607.399 2
 92  4 12  2 38  0.0000000  0  4 12 13 24 20
  20908964.725     -646984.240 8   -504142.855 9
  21826558.388     1698298.539 8   1323349.569 6
  20843566.199    -1859434.099 8  -1448907.713 9
  24637033.237    -3294547.255 5  -2567178.819 2
 92  4 12  2 38 30.0000000  0  4 12 13 24 20
  20907249.612     -656003.353 8   -511170.722 9
  21837850.371     1757647.170 8   1369595.244 2
  20834112.544    -1909119.888 8  -1487623.842 9
  24617133.014    -3399160.741 5  -2648695.609 1
 92  4 12  2 39  0.0000000  0  4 12 13 24 20
  20905664.010     -664323.260 8   -517653.751 9
  21849186.423     1817206.843 8   1416005.366 5
  20824777.007    -1958173.899 8  -1525847.676 9
  24597234.589    -3503704.884 5  -2730158.444 3
 92  4 12  2 39 30.0000000  0  4 12 13 24 20
  20904215.713     -671943.217 8   -523591.362 9
  21860557.851     1876976.544 8   1462579.171 5
  20815563.485    -2006584.257 8  -1563569.962 9
  24577357.450    -3608178.530 5  -2811566.275 1
 92  4 12  2 40  0.0000000  0  4 12 13 24 20
  20902900.523     -678861.953 8   -528982.572 9
  21871972.448     1936955.144 8   1509315.745 5
  20806474.078    -2054354.238 8  -1600793.252 9
  24557493.501    -3712579.419 6  -2892917.442 4
 92  4 12  2 40 30.0000000  0  4 12 13 24 20
  20901712.146     -685086.303 8   -533832.694 9
  21883421.523     1997133.401 8   1556207.889 4
  20797503.987    -2101505.491 8  -1637534.423 9
  24537634.949    -3816913.364 5  -2974216.458 4
 92  4 12  2 41  0.0000000  0  4 12 13 24 20
  20900662.872     -690611.561 8   -538138.079 9
  21894911.668     2057513.530 8   1603257.348 5
  20788645.120    -2148044.794 8  -1673798.747 9
  24517794.684    -3921174.507 5  -3055458.666 2
 92  4 12  2 41 30.0000000  0  4 12 13 24 20
  20899740.711     -695439.970 8   -541900.461 9
  21906443.185     2118091.449 8   1650460.919 4
  20779903.472    -2193983.404 8  -1709594.996 9
  24497971.807    -4025364.713 6  -3136645.604 1
 92  4 12  2 42  0.0000000  0  4 12 13 24 20
  20898953.156     -699581.978 8   -545127.980 9
  21918001.983     2178854.249 8   1697808.549 5
  20771271.248    -2239350.084 8  -1744945.585 9
  24478156.425    -4129493.294 5  -3217784.539 3
 92  4 12  2 42 30.0000000  0  4 12 13 24 20
  20898298.409     -703029.664 8   -547814.478 9
  21929602.152     2239807.498 8   1745304.601 5
  20762748.748    -2284136.748 8  -1779844.216 9
  24458356.932    -4233551.774 6  -3298869.306 2
 92  4 12  2 43  0.0000000  0  4 12 13 24 20
  20897776.171     -705786.404 8   -549962.567 9
  21941235.898     2300946.025 8   1792945.021 4
  20754336.572    -2328344.932 8  -1814292.077 9
  24438560.137    -4337542.653 5  -3379900.946 2
 92  4 12  2 43 30.0000000  0  4 12 13 24 20
  20897383.443     -707859.618 8   -551578.045 9
  21952902.022     2362260.364 8   1840722.428 5
  20746032.021    -2371976.024 8  -1848290.258 9
  24418787.325    -4441471.970 5  -3460884.567 3
 92  4 12  2 44  0.0000000  0  4 12 13 24 20
  20897117.526     -709248.249 8   -552660.082 9
  21964604.121     2423749.523 8   1888636.063 3
  20737843.790    -2415013.055 8  -1881825.536 9
  24399024.407    -4545337.889 5  -3541818.842 1
 92  4 12  2 44 30.0000000  0  4 12 13 24 20
  20896981.721     -709948.542 8   -553205.751 9
  21976339.796     2485414.872 8   1936687.001 4
  20729773.077    -2457428.452 8  -1914876.421 9
  24379259.090    -4649135.459 5  -3622700.284 2
 92  4 12  2 45  0.0000000  0  4 12 13 24 20
  20896977.823     -709964.522 8   -553218.199 9
  21988106.950     2547250.529 8   1984870.636 6
  20721821.381    -2499220.758 8  -1947441.790 9
  24359532.447    -4752867.849 5  -3703530.498 2
 92  4 12  2 45 30.0000000  0  4 12 13 24 20
  20897104.935     -709299.260 8   -552699.802 9
  21999905.283     2609251.217 8   2033182.870 5
  20713984.207    -2540399.819 8  -1979529.294 9
  24339793.811    -4856536.706 5  -3784311.165 2
 92  4 12  2 46  0.0000000  0  4 12 13 24 20
  20897365.755     -707946.879 8   -551645.987 9
  22011733.594     2671420.780 8   2081626.677 4
  20706262.753    -2580967.496 8  -2011140.402 9
  24320087.853    -4960135.033 5  -3865037.375 2
 92  4 12  2 46 30.0000000  0  4 12 13 24 20
  20897753.087     -705911.574 8   -550060.015 9
  22023594.583     2733754.034 8   2130198.067 4
  20698653.720    -2620952.938 8  -2042297.819 9
  24300382.495    -5063665.562 5  -3945710.304 1
 92  4 12  2 47  0.0000000  0  4 12 13 24 20
  20898267.531     -703202.313 8   -547948.899 9
  22035487.649     2796239.736 8   2178888.219 4
  20691151.714    -2660386.565 8  -2073025.255 9
  24280693.026    -5167136.095 5  -4026336.426 3
 92  4 12  2 47 30.0000000  0  4 12 13 24 20
  20898909.686     -699817.127 8   -545311.081 9
  22047407.697     2858877.846 8   2227697.146 4
  20683750.438    -2699265.030 8  -2103320.093 9
  24261024.542    -5270543.644 5  -4106913.558 1
 92  4 12  2 48  0.0000000  0  4 12 13 24 20
  20899684.649     -695750.204 8   -542142.044 8
  22059355.626     2921672.567 8   2276628.111 5
  20676464.281    -2737563.522 8  -2133163.008 9
  24241350.063    -5373880.585 5  -4187436.082 2
 92  4 12  2 48 30.0000000  0  4 12 13 24 20
  20900587.924     -691007.534 8   -538446.444 9
  22071334.133     2984615.771 8   2325674.764 5
  20669285.152    -2775274.827 8  -2162548.378 9
  24221703.764    -5477151.382 5  -4267906.650 2
 92  4 12  2 49  0.0000000  0  4 12 13 24 20
  20901616.812     -685588.484 8   -534223.801 9
  22083340.521     3047707.057 8   2374836.788 4
  20662226.538    -2812375.640 8  -2191458.038 9
  24202062.861    -5580354.211 5  -4348324.208 3
 92  4 12  2 49 30.0000000  0  4 12 13 24 20
  20902777.608     -679492.446 8   -529473.624 9
  22095373.591     3110945.469 8   2424113.480 4
  20655288.142    -2848842.581 8  -2219873.777 9
  24182436.648    -5683487.266 5  -4428687.427 2
 92  4 12  2 50  0.0000000  0  4 12 13 24 20
  20904067.315     -672721.176 8   -524197.314 9
  22107434.841     3174327.693 8   2473502.259 3
  20648464.266    -2884686.906 8  -2247804.354 9
  24162814.632    -5786550.792 5  -4508996.915 2
 92  4 12  2 50 30.0000000  0  4 12 13 24 20
  20905484.434     -665276.722 8   -518396.420 9
  22119522.773     3237849.803 8   2522999.997 5
  20641758.808    -2919936.527 8  -2275271.538 9
  24143230.689    -5889545.163 6  -4589252.065 3
 92  4 12  2 51  0.0000000  0  4 12 13 24 20
  20907026.866     -657163.973 8   -512074.794 9
  22131637.386     3301504.945 8   2572601.407 4
  20635161.875    -2954606.775 8  -2302287.252 9
  24123632.357    -5992473.913 6  -4669456.055 2
 92  4 12  2 51 30.0000000  0  4 12 13 24 20
  20908699.409     -648383.197 8   -505232.627 9
  22143774.484     3365291.933 8   2622305.564 4
  20628674.066    -2988706.991 8  -2328858.793 9
  24104066.702    -6095335.328 6  -4749607.617 3
 92  4 12  2 52  0.0000000  0  4 12 13 24 20
  20910497.564     -638936.055 8   -497871.211 8
  22155934.366     3429207.580 8   2672109.974 5
  20622288.487    -3022251.556 8  -2354997.351 9
  24084502.845    -6198129.353 6  -4829706.634 3
 92  4 12  2 52 30.0000000  0  4 12 13 24 20
  20912422.232     -628821.210 8   -489989.503 9
  22168125.126     3493251.472 8   2722014.308 3
  20616016.529    -3055216.528 8  -2380684.288 9
  24064959.075    -6300853.475 6  -4909751.233 2
 92  4 12  2 53  0.0000000  0  4 12 13 24 20
  20914472.212     -618039.166 8   -481587.913 9
  22180335.074     3557421.862 8   2772017.205 4
  20609856.693    -3087576.424 8  -2405899.737 9
  24045422.500    -6403505.940 6  -4989739.944 2
 92  4 12  2 53 30.0000000  0  4 12 13 24 20
  20916652.603     -606591.708 8   -472667.809 9
  22192569.604     3621715.167 7   2822115.915 5
  20603816.175    -3119329.647 8  -2430642.451 9
  24025900.615    -6506087.099 6  -5069673.148 2
 92  4 12  2 54  0.0000000  0  4 12 13 24 20
  20918955.908     -594483.068 8   -463232.505 9
  22204826.918     3686126.240 7   2872306.371 4
  20597888.678    -3150479.868 8  -2454915.295 9
  24006397.317    -6608599.536 6  -5149552.760 3
 92  4 12  2 54 30.0000000  0  4 12 13 24 20
  20921384.227     -581713.145 8   -453281.906 9
  22217107.317     3750654.402 8   2922588.047 3
  20592075.403    -3181021.952 8  -2478714.267 9
  23986903.912    -6711040.914 6  -5229377.075 4
 92  4 12  2 55  0.0000000  0  4 12 13 24 20
  20923940.857     -568283.400 8   -442817.173 9
  22229407.202     3815296.401 8   2972958.454 4
  20586375.449    -3210976.033 8  -2502055.058 9
  23967417.402    -6813410.971 6  -5309145.789 2
 92  4 12  2 55 30.0000000  0  4 12 13 24 20
  20926624.000     -554191.613 8   -431836.551 9
  22241731.070     3880053.552 8   3023418.563 4
  20580785.219    -3240351.922 8  -2524945.303 9
  23947952.178    -6915705.469 6  -5388855.653 2
 92  4 12  2 56  0.0000000  0  4 12 13 24 20
  20929429.758     -539438.974 8   -420340.992 8
  22254077.723     3944923.387 7   3073966.493 4
  20575304.413    -3269149.351 8  -2547384.814 9
  23928498.046    -7017923.880 6  -5468506.262 2
 92  4 12  2 56 30.0000000  0  4 12 13 24 20
  20932362.627     -524029.724 8   -408333.778 9
  22266440.264     4009900.819 8   3124598.243 4
  20569932.432    -3297378.014 8  -2569381.120 9
  23909061.601    -7120068.199 6  -5548099.103 2
 92  4 12  2 57  0.0000000  0  4 12 13 24 20
  20935417.212     -507971.017 8   -395820.496 9
  22278824.091     4074977.282 7   3175307.168 4
  20564667.477    -3325055.488 8  -2590947.934 9
  23889640.446    -7222143.663 6  -5627638.328 3
 92  4 12  2 57 30.0000000  0  4 12 13 24 20
  20938598.910     -491259.333 8   -382798.399 9
  22291226.205     4140155.308 7   3226095.224 4
  20559506.550    -3352174.220 8  -2612079.364 9
  23870230.083    -7324144.757 6  -5707119.608 2
 92  4 12  2 58  0.0000000  0  4 12 13 24 20
  20941903.522     -473896.406 8   -369268.847 9
  22303648.706     4205432.067 8   3276960.246 3
  20554451.150    -3378732.618 8  -2632774.167 9
  23850831.713    -7426070.806 6  -5786542.432 3
 92  4 12  2 58 30.0000000  0  4 12 13 24 20
  20945326.253     -455883.377 8   -355232.711 9
  22316089.193     4270806.410 8   3327901.283 4
  20549505.174    -3404731.978 8  -2653033.351 9
  23831453.728    -7527921.168 6  -5865906.232 2
 92  4 12  2 59  0.0000000  0  4 12 13 24 20
  20948881.491     -437224.271 8   -340693.144 9
  22328545.869     4336272.573 7   3378913.882 4
  20544665.024    -3430161.491 8  -2672848.507 9
  23812087.135    -7629697.655 6  -5945212.515 3
 92  4 12  2 59 30.0000000  0  4 12 13 24 20
  20952556.047     -417913.422 8   -325645.728 9
  22341022.032     4401835.814 7   3430002.107 5
  20539939.396    -3455001.427 8  -2692204.243 9
  23792729.236    -7731392.160 6  -6024454.926 3
 92  4 12  3  0  0.0000000  0  4 12 13 24 20
  20956352.919     -397957.854 8   -310095.940 9
  22353513.485     4467487.674 7   3481159.380 4
  20535323.491    -3479255.611 8  -2711103.555 9
  23773395.321    -7833009.746 6  -6103637.321 5
 92  4 12  3  0 30.0000000  0  4 12 13 24 20
  20960271.506     -377361.745 8   -294047.019 8
  22366026.822     4533223.180 7   3532381.862 4
  20530816.412    -3502930.507 8  -2729551.471 9
  23754067.402    -7934552.173 6  -6182761.163 3
 92  4 12  3  1  0.0000000  0  4 12 13 24 20
  20964316.006     -356122.439 8   -277496.906 8
  22378547.954     4599044.304 7   3583671.031 3
  20526422.653    -3526022.367 8  -2747545.080 9
  23734759.268    -8036014.524 6  -6261822.623 3
 92  4 12  3  1 30.0000000  0  4 12 13 24 20
  20968476.826     -334241.896 8   -260447.113 9
  22391092.469     4664948.804 8   3635025.170 3
  20522138.020    -3548543.711 8  -2765094.112 9
  23715470.921    -8137396.178 6  -6340821.125 3
 92  4 12  3  2  0.0000000  0  4 12 13 24 20
  20972762.059     -311723.260 8   -242900.144 8
  22403646.878     4730932.288 7   3686440.882 4
  20517958.613    -3570506.967 8  -2782208.275 9
  23696190.668    -8238698.000 6  -6419757.449 4
 92  4 12  3  2 30.0000000  0  5 16 12 13 24 20
  24830736.639    -2575032.470 5  -2006519.274 2
  20977169.308     -288569.407 8   -224858.170 9
  22416219.574     4796991.813 7   3737915.840 5
  20513885.632    -3591911.512 8  -2798887.083 9
  23676931.401    -8339920.357 6  -6498631.830 3
 92  4 12  3  3  0.0000000  0  5 16 12 13 24 20
  24812510.157    -2670776.475 5  -2081125.148 1
  20981694.675     -264780.223 8   -206321.147 8
  22428803.962     4863126.916 7   3789449.666 4
  20509921.177    -3612744.519 8  -2815120.528 9
  23657685.925    -8441060.644 6  -6577442.249 3
 92  4 12  3  3 30.0000000  0  5 16 12 13 24 20
  24794293.268    -2766573.505 5  -2155772.297 3
  20986342.058     -240355.704 8   -187289.050 9
  22441405.738     4929336.539 7   3841041.564 3
  20506062.848    -3633015.647 8  -2830916.154 9
  23638451.841    -8542116.697 6  -6656187.030 3
 92  4 12  3  4  0.0000000  0  5 16 12 13 24 20
  24776038.905    -2862437.977 5  -2230471.988 2
  20991109.657     -215299.239 8   -167764.535 8
  22454013.510     4995617.083 7   3892688.746 3
  20502313.944    -3652722.246 8  -2846271.887 9
  23619238.441    -8643089.286 6  -6734866.778 3
 92  4 12  3  4 30.0000000  0  5 16 12 13 24 20
  24757795.035    -2958369.203 5  -2305223.720 4
  20995998.972     -189612.595 8   -147748.958 9
  22466641.968     5061966.056 7   3944389.257 4
  20498672.364    -3671857.012 8  -2861182.034 9
  23600040.332    -8743977.307 6  -6813480.648 4
 92  4 12  3  5  0.0000000  0  5 16 12 13 24 20
  24739525.383    -3054358.598 5  -2380020.780 2
  21001006.106     -163296.902 8   -127243.225 9
  22479281.217     5128381.655 7   3996141.659 4
  20495136.912    -3690434.150 8  -2875657.664 9
  23580856.313    -8844779.310 6  -6892027.462 3
 92  4 12  3  5 30.0000000  0  5 16 12 13 24 20
  24721245.238    -3150400.952 5  -2454859.151 2
  21006126.861     -136356.658 8   -106250.816 8
  22491929.461     5194859.714 7   4047942.733 2
  20491702.190    -3708465.331 8  -2889707.880 9
  23561689.981    -8945497.057 6  -6970508.657 2
 92  4 12  3  6  0.0000000  0  5 16 12 13 24 20
  24702956.099    -3246472.054 5  -2529719.883 2
  21011380.424     -108793.315 8    -84772.888 8
  22504593.594     5261397.853 7   4099790.658 4
  20488381.689    -3725932.035 8  -2903318.245 9
  23542544.935    -9046129.616 6  -7048923.446 4
 92  4 12  3  6 30.0000000  0  5 16 12 13 24 20
  24684679.252    -3342554.018 5  -2604589.043 3
  21016741.013      -80604.774 8    -62807.781 8
  22517265.521     5327997.441 7   4151686.435 4
  20485163.116    -3742839.625 8  -2916492.938 9
  23523407.984    -9146671.957 6  -7127267.985 4
 92  4 12  3  7  0.0000000  0  5 16 12 13 24 20
  24666387.116    -3438648.785 5  -2679468.174 2
  21022227.515      -51792.921 8    -40356.987 9
  22529946.443     5394657.205 7   4203629.087 3
  20482050.372    -3759192.605 8  -2929235.464 9
  23504293.516    -9247123.612 6  -7205541.824 2
 92  4 12  3  7 30.0000000  0  5 16 12 13 24 20
  24648110.568    -3534770.375 5  -2754368.208 2
  21027825.240      -22360.755 8    -17422.831 9
  22542646.251     5461373.724 7   4255616.002 2
  20479048.550    -3774977.523 8  -2941535.354 9
  23485195.537    -9347484.220 6  -7283744.736 3
 92  4 12  3  8  0.0000000  0  5 16 12 13 24 20
  24629807.040    -3630934.298 5  -2829301.243 1
  21033546.479        7687.043 8      5991.040 8
  22555349.956     5528141.836 7   4307643.116 4
  20476149.257    -3790203.041 8  -2953399.344 9
  23466117.944    -9447755.535 6  -7361878.083 1
 92  4 12  3  8 30.0000000  0  5 16 12 13 24 20
  24611495.416    -3727148.549 5  -2904273.472 2
  21039380.440       38354.303 8     29887.618 8
  22568068.351     5594965.241 7   4359713.300 3
  20473360.588    -3804866.516 8  -2964825.373 9
  23447052.643    -9547931.216 6  -7439936.879 3
 92  4 12  3  9  0.0000000  0  5 16 12 13 24 20
  24593179.296    -3823414.592 5  -2979286.200 2
  21045334.019       69637.352 8     54264.015 8
  22580792.742     5661839.604 7   4411823.188 3
  20470678.944    -3818959.374 8  -2975806.781 9
  23428009.826    -9648011.856 6  -7517921.661 3
 92  4 12  3  9 30.0000000  0  5 16 12 13 24 20
  24574849.685    -3919728.061 5  -3054335.757 2
  21051403.917      101532.217 8     79117.161 8
  22593529.125     5728761.262 7   4463969.961 4
  20468104.626    -3832486.498 8  -2986347.340 9
  23408981.099    -9747998.556 6  -7595833.210 4
 92  4 12  3 10  0.0000000  0  5 16 12 13 24 20
  24556510.781    -4016073.914 5  -3129410.511 2
  21057588.635      134038.549 8    104446.765 9
  22606270.905     5795729.814 7   4516153.244 4
  20465634.336    -3845457.411 8  -2996454.496 9
  23389972.159    -9847888.649 6  -7673669.498 3
 92  4 12  3 10 30.0000000  0  5 16 12 13 24 20
  24538170.678    -4112439.702 5  -3204500.839 3
  21063888.773      167158.425 8    130254.470 8
  22619023.776     5862747.475 7   4568374.789 3
  20463271.372    -3857868.360 8  -3006125.310 9
  23370981.506    -9947676.950 6  -7751426.494 3
 92  4 12  3 11  0.0000000  0  5 16 12 13 24 20
  24519833.872    -4208815.417 4  -3279598.896 3
  21070310.028      200889.979 8    156538.795 8
  22631786.240     5929812.336 7   4620633.147 4
  20461015.134    -3869737.981 8  -3015374.319 9
  23352016.335   -10047362.313 6  -7829103.233 3
 92  4 12  3 11 30.0000000  0  5 16 12 13 24 20
  24501493.170    -4305200.962 4  -3354704.637 2
  21076843.405      235227.941 8    183295.648 8
  22644559.198     5996918.524 7   4672923.702 3
  20458855.129    -3881081.441 8  -3024213.324 9
  23333063.157   -10146947.196 6  -7906701.703 4
 92  4 12  3 12  0.0000000  0  5 16 12 13 24 20
  24483138.076    -4401595.839 5  -3429817.705
  21083494.900      270171.810 8    210524.635 8
  22657331.556     6064066.262 7   4725246.607 4
  20456798.253    -3891898.445 8  -3032642.109 9
  23314130.963   -10246428.918 6  -7984219.787 4
 92  4 12  3 12 30.0000000  0  5 16 12 13 24 20
  24464799.472    -4498008.748 5  -3504944.749 2
  21090260.316      305719.627 8    238224.233 8
  22670120.402     6131253.719 7   4777600.475 2
  20454840.609    -3902181.396 8  -3040654.748 9
  23295220.354   -10345806.309 6  -8061656.558 4
 92  4 12  3 13  0.0000000  0  5 16 12 13 24 20
  24446441.981    -4594435.872 5  -3580082.957 1
  21097138.155      341872.435 8    266395.252 8
  22682915.244     6198482.409 7   4829986.495 4
  20452990.589    -3911917.263 8  -3048241.090 9
  23276330.132   -10445074.698 6  -8139008.417 2
 92  4 12  3 13 30.0000000  0  5 16 12 13 24 20
  24428102.476    -4690885.418 5  -3655238.563 4
  21104132.613      378631.013 8    295038.294 8
  22695712.185     6265752.841 7   4882405.050 4
  20451243.399    -3921087.542 8  -3055386.709 9
  23257462.394   -10544230.523 6  -8216272.547 4
 92  4 12  3 14  0.0000000  0  5 16 12 13 24 20
  24409735.392    -4787358.305 5  -3730412.362 3
  21111241.592      415991.633 8    324150.466 8
  22708525.915     6333061.433 7   4934853.274 1
  20449609.230    -3929690.497 8  -3062090.263 9
  23238613.543   -10643274.305 6  -8293449.362 4
 92  4 12  3 14 30.0000000  0  5 16 12 13 24 20
  24391387.194    -4883838.896 5  -3805592.183 2
  21118464.791      453951.282 8    353729.410 8
  22721338.145     6400405.546 7   4987329.228 4
  20448078.790    -3937728.409 8  -3068353.519 9
  23219791.373   -10742205.548 6  -8370538.505 3
 92  4 12  3 15  0.0000000  0  5 16 12 13 24 20
  24373025.206    -4980316.325 5  -3880769.577 2
  21125801.612      492506.999 8    383772.827 8
  22734159.669     6467782.432 7   5039830.714 3
  20446652.377    -3945209.320 8  -3074182.750 9
  23200980.595   -10841023.516 6  -8447539.386 4
 92  4 12  3 15 30.0000000  0  5 16 12 13 24 20
  24354663.817    -5076774.015 5  -3955931.611 2
  21133255.352      531662.508 8    414283.616 8
  22746987.189     6535196.105 7   5092360.876 2
  20445332.091    -3952142.905 8  -3079585.500 9
  23182200.696   -10939721.404 6  -8524446.702 4
 92  4 12  3 16  0.0000000  0  5 16 12 13 24 20
  24336325.213    -5173190.280 5  -4031061.302 3
  21140818.816      571413.581 8    445258.477 8
  22759821.903     6602642.961 7   5144916.886 3
  20444116.433    -3958543.271 8  -3084572.749 9
  23163436.387   -11038300.352 6  -8601261.326 4
 92  4 12  3 16 30.0000000  0  5 16 12 13 24 20
  24317977.314    -5269573.828 5  -4106165.509 2
  21148496.201      611753.794 8    476692.406 7
  22772662.314     6670117.224 7   5197494.218 2
  20443002.704    -3964404.673 8  -3089140.031 9
  23144707.752   -11136763.095 6  -8677985.392 4
 92  4 12  3 17  0.0000000  0  5 16 12 13 24 20
  24299641.708    -5365939.817 5  -4181256.055 2
  21156285.708      652685.568 8    508587.297 8
  22785506.622     6737621.336 7   5250094.832 2
  20441989.705    -3969720.960 8  -3093282.544 9
  23125989.911   -11235103.713 6  -8754614.324 3
 92  4 12  3 17 30.0000000  0  5 16 12 13 24 20
  24281300.405    -5462295.299 5  -4256338.453 2
  21164186.139      694207.045 8    540941.682 8
  22798359.324     6805154.082 7   5302717.796 2
  20441080.734    -3974495.549 8  -3097002.960 9
  23107306.544   -11333320.837 6  -8831146.995 4
 92  4 12  3 18  0.0000000  0  5 16 12 13 24 20
  24262968.097    -5558656.161 5  -4331424.973 3
  21172197.493      736313.767 8    573752.119 7
  22811215.624     6872711.333 7   5355359.796 3
  20440275.492    -3978719.890 8  -3100294.610 9
  23088637.269   -11431414.928 6  -8907583.814 4
 92  4 12  3 18 30.0000000  0  5 16 12 13 24 20
  24244623.197    -5655045.216 5  -4406533.469 2
  21180320.969      779004.942 8    607017.964 8
  22824073.123     6940292.987 7   5408020.801 3
  20439579.673    -3982385.285 8  -3103150.721 9
  23069993.476   -11529383.664 6  -8983922.938 4
 92  4 12  3 19  0.0000000  0  5 16 12 13 24 20
  24226278.896    -5751450.683 5  -4481654.746 2
  21188554.469      822277.445 8    640736.794 7
  22836940.815     7007896.342 7   5460698.752 3
  20438985.185    -3985509.576 8  -3105585.192 9
  23051374.865   -11627226.307 6  -9060163.809 5
 92  4 12  3 19 30.0000000  0  5 16 12 13 24 20
  24207935.495    -5847856.123 5  -4556775.620 1
  21196898.293      866128.216 8    674906.222 8
  22849809.406     7075518.717 7   5513391.512 2
  20438490.827    -3988099.177 8  -3107603.032 9
  23032779.039   -11724942.441 6  -9136306.096 3
 92  4 12  3 20  0.0000000  0  5 16 12 13 24 20
  24189592.094    -5944248.646 5  -4631886.845 2
  21205354.838      910557.115 8    709526.152 7
  22862679.496     7143160.950 7   5566099.730 3
  20438099.298    -3990156.396 8  -3109206.030 9
  23014206.296   -11822528.236 6  -9212346.814 4
 92  4 12  3 20 30.0000000  0  5 16 12 13 24 20
  24171247.194    -6040601.748 5  -4706967.383 2
  21213921.708      955563.797 8    744596.292 7
  22875560.679     7210823.251 7   5618823.578 3
  20437804.602    -3991699.544 8  -3110408.431 9
  22995662.634   -11919980.279 6  -9288283.323 5
 92  4 12  3 21  0.0000000  0  5 16 12 13 24 20
  24152931.374    -6136897.576 5  -4782003.314 2
  21222592.905     1001145.805 8    780114.735 7
  22888429.570     7278504.342 7   5671562.085 2
  20437608.238    -3992743.516 8  -3111221.869 9
  22977142.056   -12017297.415 6  -9364114.711 3
 92  4 12  3 21 30.0000000  0  5 16 12 13 24 20
  24134608.059    -6233145.419 5  -4857001.860 3
  21231375.924     1047299.231 8    816078.445 7
  22901320.046     7346200.513 7   5724312.386 3
  20437503.011    -3993292.169 8  -3111649.376 9
  22958651.756   -12114479.769 6  -9439841.062 3
 92  4 12  3 22  0.0000000  0  5 16 12 13 24 20
  24116301.232    -6329342.946 5  -4931961.161 3
  21240267.769     1094027.951 8    852490.435 7
  22914205.725     7413917.186 7   5777078.597 4
  20437493.718    -3993339.535 8  -3111686.252 9
  22940181.243   -12211519.896 6  -9515456.613 5
 92  4 12  3 22 30.0000000  0  5 16 12 13 24 20
  24098013.293    -6425494.706 5  -5006884.390 1
  21249266.639     1141323.652 8    889344.221 8
  22927092.004     7481646.840 7   5829854.951 2
  20437583.056    -3992876.709 8  -3111325.559 9
  22921744.906   -12308422.131 6  -9590964.705 4
 92  4 12  3 23  0.0000000  0  5 16 12 13 24 20
  24079708.864    -6521620.091 5  -5081787.498 3
  21258378.231     1189186.817 8    926640.199 7
  22939986.977     7549390.375 7   5882642.140 3
  20437772.525    -3991877.010 8  -3110546.530 9
  22903331.654   -12405182.226 7  -9666362.048 4
 92  4 12  3 23 30.0000000  0  5 16 12 13 24 20
  24061431.118    -6617708.140 5  -5156661.048 2
  21267591.453     1237613.640 8    964375.376 7
  22952872.657     7617144.161 7   5935437.300 2
  20438065.422    -3990328.503 8  -3109339.866 9
  22884947.481   -12501800.241 7  -9741648.697 5
 92  4 12  3 24  0.0000000  0  5 16 12 13 24 20
  24043157.868    -6713746.841 5  -5231496.200 2
  21276915.298     1286604.323 8   1002549.943 7
  22965771.527     7684909.735 7   5988241.644 2
  20438467.743    -3988224.466 8  -3107700.317 9
  22866586.991   -12598272.119 7  -9816821.459 4
 92  4 12  3 24 30.0000000  0  5 16 12 13 24 20
  24024887.616    -6809745.516 5  -5306300.556 2
  21286344.071     1336153.431 8   1041159.627 7
  22978667.100     7752683.310 7   6041052.271 4
  20438972.893    -3985565.643 8  -3105628.468 9
  22848258.580   -12694599.047 7  -9891881.298 5
 92  4 12  3 25  0.0000000  0  5 16 12 13 24 20
  24006634.752    -6905697.763 5  -5381068.345 1
  21295877.770     1386263.675 8   1080206.574 7
  22991569.268     7820468.518 7   6093871.904 4
  20439582.072    -3982360.903 8  -3103131.229 9
  22829957.449   -12790774.512 7  -9966823.114 3
 92  4 12  3 25 30.0000000  0  5 16 12 13 24 20
  23988386.086    -7001590.509 5  -5455790.196 2
  21305520.895     1436928.958 8   1119686.016 7
  23004468.438     7888259.831 6   6146696.322 2
  20440291.980    -3978635.403 8  -3100228.198 9
  22811682.101   -12886800.801 7 -10041648.695 4
 92  4 12  3 26  0.0000000  0  5 16 12 13 24 20
  23970145.214    -7097440.012 5  -5530477.905 2
  21315267.447     1488146.995 8   1159596.173 7
  23017370.006     7956056.438 6   6199524.877 2
  20441098.722    -3974391.883 8  -3096921.518 9
  22793438.231   -12982675.562 7 -10116356.210 4
 92  4 12  3 26 30.0000000  0  5 16 12 13 24 20
  23951910.937    -7193238.200 5  -5605126.071 1
  21325117.428     1539916.840 8   1199936.309 7
  23030270.975     8023858.198 7   6252357.443 4
  20442002.896    -3969636.327 8  -3093215.853 9
  22775221.343   -13078395.581 7 -10190943.150 3
 92  4 12  3 27  0.0000000  0  5 16 12 13 24 20
  23933698.845    -7288966.199 6  -5679719.100 1
  21335073.836     1592237.726 8   1240705.822 7
  23043172.843     8091665.224 6   6305194.056 1
  20443006.601    -3964379.397 8  -3089119.498 9
  22757041.028   -13173958.069 7 -10265407.358 4
 92  4 12  3 27 30.0000000  0  5 16 12 13 24 20
  23915497.546    -7384621.007 6  -5754255.062 2
  21345135.470     1645106.137 8   1281901.988 6
  23056082.207     8159475.237 7   6358033.063 3
  20444101.443    -3958616.971 8  -3084629.262 9
  22738882.599   -13269362.243 7 -10339748.192 4
 92  4 12  3 28  0.0000000  0  5 16 12 13 24 20
  23897301.342    -7480197.883 6  -5828730.311 2
  21355301.433     1698520.030 8   1323523.212 7
  23068980.777     8227287.952 6   6410874.166 2
  20445293.718    -3952345.873 8  -3079742.649 9
  22720761.944   -13364605.816 7 -10413963.888 4
 92  4 12  3 28 30.0000000  0  5 16 12 13 24 20
  23879127.924    -7575685.775 6  -5903136.279 2
  21365568.425     1752476.877 8   1365567.504 6
  23081882.045     8295101.835 6   6463716.129 2
  20446582.226    -3945573.332 8  -3074465.302 9
  22702667.370   -13459687.393 7 -10488053.345 4
 92  4 12  3 29  0.0000000  0  5 16 12 13 24 20
  23860982.985    -7671085.995 6  -5977474.340
  21375935.548     1806975.677 8   1408034.093 7
  23094788.411     8362917.187 6   6516559.268 2
  20447973.263    -3938279.741 8  -3068781.949 9
  22684603.975   -13554603.568 7 -10562013.934 5
 92  4 12  3 29 30.0000000  0  5 16 12 13 24 20
  23842841.345    -7766403.997 5  -6051747.936 3
  21386414.793     1862012.353 8   1450919.815 6
  23107692.977     8430731.112 6   6569401.307 3
  20449459.334    -3930466.523 8  -3062693.686 9
  22666572.958   -13649354.256 7 -10635845.568 4
 92  4 12  3 30  0.0000000  0  5 16 12 13 24 20
  23824717.391    -7861631.535 5  -6125951.459 3
  21396986.075     1917588.840 8   1494226.155 7
  23120599.942     8498546.982 6   6622244.832 2
  20451043.138    -3922132.987 8  -3056199.985 9
  22648575.817   -13743933.079 7 -10709543.269 4
 92  4 12  3 30 30.0000000  0  5 16 12 13 24 20
  23806613.824    -7956783.804 6  -6200095.886 2
  21407664.982     1973699.891 8   1537949.049 7
  23133502.110     8566360.720 6   6675086.670 3
  20452729.470    -3913275.138 8  -3049297.731 9
  22630611.953   -13838341.057 7 -10783107.836 5
 92  4 12  3 31  0.0000000  0  5 16 12 13 24 20
  23788516.553    -8051868.415 5  -6274187.555 2
  21418444.620     2030342.871 8   1582086.422 7
  23146400.980     8634171.416 6   6727926.208 2
  20454510.837    -3903906.789 8  -3041997.678 9
  22612676.570   -13932576.200 7 -10856537.739 5
 92  4 12  3 31 30.0000000  0  5 16 12 13 24 20
  23770436.369    -8146888.909 5  -6348229.271 1
  21429324.388     2087518.904 8   1626639.178 6
  23159312.442     8701981.285 6   6780765.078 3
  20456389.336    -3894040.781 8  -3034309.853 9
  22594777.461   -14026633.039 7 -10929828.688 4
 92  4 12  3 32  0.0000000  0  5 16 12 13 24 20
  23752360.383    -8241858.092 6  -6422231.004 2
  21440303.387     2145220.689 8   1671601.593 7
  23172210.113     8769784.656 6   6833598.860 2
  20458362.270    -3883676.900 8  -3026234.060 9
  22576915.826   -14120514.849 7 -11002983.250 5
 92  4 12  3 32 30.0000000  0  5 16 12 13 24 20
  23734302.684    -8336775.026 6  -6496192.039 2
  21451384.016     2203444.725 8   1716970.967 6
  23185115.878     8837579.468 6   6886425.986 3
  20460429.040    -3872823.211 8  -3017776.611 9
  22559083.572   -14214220.923 7 -11076000.875 5
 92  4 12  3 33  0.0000000  0  5 16 12 13 24 20
  23716247.983    -8431620.223 6  -6570097.181 3
  21462565.076     2262190.463 8   1762746.849 7
  23198018.646     8905366.269 6   6939246.907 2
  20462585.447    -3861486.323 8  -3008942.635 9
  22541292.088   -14307747.418 7 -11148878.572 5
 92  4 12  3 33 30.0000000  0  5 16 12 13 24 20
  23698216.666    -8526374.450 6  -6643931.906 2
  21473842.668     2321456.931 8   1808928.514 7
  23210912.719     8973145.847 6   6992062.132 2
  20464836.888    -3849644.095 8  -2999714.884 9
  22523522.190   -14401090.560 7 -11221613.369 4
 92  4 12  3 34  0.0000000  0  5 16 12 13 24 20
  23680205.135    -8621019.158 5  -6717680.811 1
  21485215.595     2381240.432 8   1855513.042 6
  23223811.290     9040916.667 6   7044870.537 2
  20467188.160    -3837300.855 9  -2990096.745 9
  22505794.562   -14494249.053 7 -11294204.288 5
 92  4 12  3 34 30.0000000  0  5 16 12 13 24 20
  23662225.382    -8715534.856 5  -6791329.657 3
  21496692.549     2441541.149 8   1902500.602 7
  23236707.162     9108679.870 6   7097673.044 2
  20469627.572    -3824474.205 9  -2980101.911 9
  22488103.210   -14587218.748 7 -11366648.101 5
 92  4 12  3 35  0.0000000  0  5 16 12 13 24 20
  23644258.820    -8809929.488 5  -6864883.727 3
  21508265.138     2502352.008 8   1949885.677 6
  23249596.439     9176430.487 6   7150465.780 2
  20472161.418    -3811169.112 9  -2969734.268 9
  22470446.634   -14680002.072 7 -11438946.679 4
 92  4 12  3 35 30.0000000  0  5 16 12 13 24 20
  23626319.240    -8904201.816 6  -6938342.428 3
  21519933.660     2563672.116 8   1997667.576 6
  23262485.716     9244168.765 6   7203248.812 3
  20474786.101    -3797382.341 9  -2958991.298 9
  22452828.430   -14772595.460 7 -11511097.260 5
 92  4 12  3 36  0.0000000  0  5 16 12 13 24 20
  23608407.839    -8998346.375 6  -7011701.640 1
  21531699.614     2625500.463 8   2045845.490 7
  23275380.689     9311895.805 6   7256023.134 2
  20477494.126    -3783131.291 9  -2947886.541 9
  22435243.504   -14864995.252 7 -11583096.987 5
 92  4 12  3 36 30.0000000  0  5 16 12 13 24 20
  23590506.032    -9092373.551 6  -7084969.801 3
  21543560.603     2687832.542 8   2094415.938 6
  23288256.775     9379608.838 6   7308786.576 2
  20480297.785    -3768405.457 9  -2936411.831 9
  22417695.752   -14957201.436 7 -11654945.840 5
 92  4 12  3 37  0.0000000  0  5 16 12 13 24 20
  23572639.301    -9186276.949 6  -7158141.092 2
  21555519.025     2750668.497 8   2143379.006 7
  23301146.052     9447309.442 6   7361540.270 2
  20483196.179    -3753172.637 9  -2924542.064 9
  22400187.873   -15049208.804 7 -11726639.780 5
 92  4 12  3 37 30.0000000  0  5 16 12 13 24 20
  23554801.950    -9280036.681 6  -7231200.396 3
  21567570.082     2814004.851 8   2192732.002 6
  23314023.337     9514995.912 6   7414282.952 3
  20486193.203    -3737424.134 9  -2912270.466 9
  22382721.065   -15141016.299 7 -11798177.976 5
 92  4 12  3 38  0.0000000  0  5 16 12 13 24 20
  23536988.582    -9373649.800 6  -7304145.444 2
  21579714.674     2877837.980 8   2242472.094 6
  23326899.723     9582666.975 6   7467013.662 2
  20489288.561    -3721161.446 9  -2899598.213 9
  22365285.135   -15232623.072 7 -11869559.763 6
 92  4 12  3 38 30.0000000  0  5 16 12 13 24 20
  23519198.597    -9467124.808 6  -7376982.916 3
  21591959.098     2942164.950 8   2292597.007 7
  23339774.011     9650321.386 6   7519731.417 1
  20492480.151    -3704378.835 9  -2886520.813 9
  22347892.076   -15324027.343 7 -11940783.757 5
 92  4 12  3 39  0.0000000  0  5 16 12 13 24 20
  23501440.691    -9560458.298 6  -7449710.562 2
  21604293.159     3006983.807 8   2343105.201 6
  23352650.996     9717958.776 6   7572435.866 2
  20495772.772    -3687087.392 9  -2873046.930 9
  22330537.390   -15415226.402 7 -12011847.858 5
 92  4 12  3 39 30.0000000  0  5 16 12 13 24 20
  23483700.172    -9653665.387 6  -7522339.267 2
  21616717.758     3072289.988 7   2393993.134 6
  23365515.390     9785577.130 6   7625125.501 3
  20499154.730    -3669321.741 9  -2859203.537 9
  22313221.978   -15506219.826 7 -12082751.699 5
 92  4 12  3 40  0.0000000  0  5 16 12 13 24 20
  23465985.436    -9746761.701 6  -7594881.630 4
  21629240.089     3138083.028 8   2445260.427 6
  23378375.287     9853177.023 6   7677800.746 4
  20502619.432    -3651105.354 9  -2845008.912 9
  22295948.236   -15597003.620 7 -12153492.203 5
 92  4 12  3 40 30.0000000  0  5 16 12 13 24 20
  23448289.887    -9839747.677 6  -7667338.057 4
  21641854.456     3204358.763 7   2496903.845 6
  23391235.484     9920756.642 6   7730460.177 2
  20506170.474    -3632442.401 9  -2830466.322 9
  22278711.369   -15687576.732 7 -12224068.556 5
 92  4 12  3 41  0.0000000  0  5 16 12 13 24 20
  23430623.117    -9932605.457 6  -7739694.538 3
  21654556.362     3271119.645 7   2548925.326 6
  23404097.780     9988320.206 6   7783107.094 1
  20509807.556    -3613333.777 9  -2815576.453 9
  22261517.972   -15777931.867 7 -12294475.036 6
 92  4 12  3 41 30.0000000  0  5 16 12 13 24 20
  23412980.031   -10025339.683 6  -7811954.811 3
  21667350.905     3338358.534 7   2601319.250 6
  23416942.988    10055862.306 6   7835737.252 1
  20513526.481    -3593782.120 9  -2800341.367 9
  22244362.948   -15868071.405 7 -12364713.526 5
 92  4 12  3 42  0.0000000  0  5 16 12 13 24 20
  23395357.631   -10117935.778 6  -7884107.375 2
  21680236.585     3406076.213 7   2654086.266 6
  23429795.690    10123386.371 6   7888353.482 2
  20517335.345    -3573760.618 9  -2784740.167 9
  22227251.694   -15957989.595 7 -12434779.551 5
 92  4 12  3 42 30.0000000  0  5 16 12 13 24 20
  23377756.516   -10210392.613 6  -7956151.508 3
  21693212.202     3474263.647 7   2707219.331 6
  23442642.996    10190885.580 6   7940950.223 2
  20521238.642    -3553253.540 9  -2768760.587 9
  22210184.209   -16047690.487 7 -12504676.238 6
 92  4 12  3 43  0.0000000  0  5 16 12 13 24 20
  23360192.276   -10302706.344 6  -8028084.081 3
  21706281.054     3542923.427 7   2760720.454 6
  23455475.012    10258364.062 6   7993530.850 1
  20525235.175    -3532262.518 9  -2752403.916 9
  22193157.497   -16137166.766 7 -12574397.903 6
 92  4 12  3 43 30.0000000  0  6 16 12  3 13 24 20
  23342647.821   -10394879.340 6  -8099907.020 2
  21719432.350     3612051.111 7   2814586.164 6
  24834737.369     -165445.183 4   -128917.882 1
  23468321.419    10325819.516 6   8046093.570 1
  20529322.246    -3510779.877 9  -2735664.165 9
  22176173.654   -16226417.620 7 -12643943.925 6
 92  4 12  3 44  0.0000000  0  6 16 12  3 13 24 20
  23325140.541   -10486884.448 6  -8171599.110 4
  21732675.382     3681645.124 7   2868815.265 6
  24820236.707     -241631.275 4   -188283.794 2
  23481153.736    10393252.774 6   8098638.962 2
  20533501.353    -3488811.376 9  -2718545.830 9
  22159232.982   -16315440.115 7 -12713312.009 5
 92  4 12  3 44 30.0000000  0  6 16 12  3 13 24 20
  23307667.138   -10578709.824 6  -8243151.188 4
  21746005.653     3751701.880 7   2923404.941 6
  24805760.629     -317709.182 4   -247565.289 2
  23493977.358    10460662.201 6   8151165.742 2
  20537775.194    -3466367.884 9  -2701057.357 9
  22142334.881   -16404232.939 7 -12782501.119 6
 92  4 12  3 45  0.0000000  0  6 16 12  3 13 24 20
  23290229.110   -10670347.220 6  -8314556.736 2
  21759424.664     3822223.004 7   2978356.458 6
  24791298.341     -393674.878 4   -306759.399 2
  23506797.083    10528051.595 6   8203676.948 2
  20542132.678    -3443455.741 9  -2683203.706 9
  22125483.846   -16492789.159 7 -12851505.862 6
 92  4 12  3 45 30.0000000  0  6 16 12  3 13 24 20
  23272826.158   -10761798.149 6  -8385817.038 4
  21772932.113     3893200.541 7   3033663.626 6
  24776861.236     -469533.725 4   -365870.238 2
  23519628.500    10595415.175 6   8256168.118 3
  20546581.298    -3420076.382 9  -2664985.995 9
  22108676.282   -16581111.465 7 -12920328.351 5
 92  4 12  3 46  0.0000000  0  6 16 12  3 13 24 20
  23255463.977   -10853059.807 6  -8456929.840 2
  21786525.602     3964635.789 7   3089327.444 6
  24762452.910     -545282.315 4   -424895.149 2
  23532437.732    10662756.393 6   8308641.787 3
  20551116.558    -3396246.540 9  -2646417.258 9
  22091913.387   -16669193.441 7 -12988963.560 6
 92  4 12  3 46 30.0000000  0  6 16 12  3 13 24 20
  23238125.780   -10944159.229 6  -8527916.220 2
  21800205.432     4036521.669 7   3145342.417 7
  24748061.373     -620925.228 4   -483837.748 1
  23545242.168    10730070.642 6   8361094.412 3
  20555734.561    -3371979.412 9  -2627507.781 9
  22075197.259   -16757037.253 7 -13057413.191 5
 92  4 12  3 47  0.0000000  0  6 16 12  3 13 24 20
  23220816.064   -11035106.951 6  -8598784.406 3
  21813971.002     4108855.094 7   3201706.109 5
  24733685.726     -696463.286 4   -542698.656 3
  23558052.600    10797357.446 6   8413525.774 1
  20560435.007    -3347281.567 9  -2608262.681 9
  22058528.198   -16844640.816 7 -13125675.618 6
 92  4 12  3 47 30.0000000  0  6 16 12  3 13 24 20
  23203548.318   -11125890.794 6  -8669524.854 3
  21827822.613     4181635.433 7   3258418.050 6
  24719339.757     -771894.541 4   -601476.300 2
  23570845.343    10864617.961 6   8465936.527 2
  20565213.699    -3322158.716 9  -2588686.406 9
  22041902.608   -16931999.888 7 -13193747.536 5
 92  4 12  3 48  0.0000000  0  6 16 12  3 13 24 20
  23186304.255   -11216497.637 6  -8740127.425 4
  21841756.067     4254861.287 7   3315477.155 6
  24704992.590     -847218.236 4   -660170.265 2
  23583641.684    10931853.702 6   8518327.996 2
  20570075.733    -3296609.536 9  -2568777.936 9
  22025328.282   -17019110.790 7 -13261626.070 6
 92  4 12  3 48 30.0000000  0  6 16 12  3 13 24 20
  23169093.170   -11306921.013 6  -8810587.007 4
  21855777.960     4328529.140 7   3372880.668 6
  24690677.799     -922435.569 4   -718781.220 2
  23596430.831    10999063.056 6   8570698.912 2
  20575024.107    -3270603.479 9  -2548513.446 9
  22008798.026   -17105971.865 7 -13329309.930 6
 92  4 12  3 49  0.0000000  0  6 16 12  3 13 24 20
  23151927.654   -11397145.170 6  -8880891.401 3
  21869877.199     4402636.943 7   3430626.999 6
  24676383.695     -997545.865 4   -777308.895 2
  23609215.480    11066246.333 6   8623049.563 2
  20580063.319    -3244128.162 9  -2527883.301 9
  21992318.434   -17192579.917 8 -13396796.643 6
 92  4 12  3 49 30.0000000  0  6 16 12  3 13 24 20
  23134794.215   -11487154.877 6  -8951028.637 4
  21884063.678     4477183.067 7   3488714.865 6
  24662107.578    -1072548.244 4   -835752.343 2
  23621989.637    11133404.486 6   8675380.582 2
  20585191.269    -3217184.368 9  -2506888.127 9
  21975884.712   -17278931.581 8 -13464083.549 6
 92  4 12  3 50  0.0000000  0  6 16 12  3 13 24 20
  23117712.641   -11576955.664 6  -9021003.116 4
  21898333.199     4552164.231 7   3547141.755 5
  24647858.442    -1147443.520 4   -894112.495 1
  23634772.787    11200537.070 6   8727691.669 2
  20590406.758    -3189772.547 9  -2485528.238 9
  21959500.454   -17365024.844 8 -13531169.120 6
 92  4 12  3 50 30.0000000  0  6 16 12  3 13 24 20
  23100653.251   -11666557.649 6  -9090822.692 4
  21912684.564     4627576.599 7   3605904.610 5
  24633631.492    -1222233.465 4   -952390.525 2
  23647535.552    11267642.463 6   8779981.607 2
  20595711.586    -3161903.922 9  -2463812.404 9
  21943168.661   -17450858.402 8 -13598052.317 6
 92  4 12  3 51  0.0000000  0  6 16 12  3 13 24 20
  23083641.827   -11755956.654 6  -9160484.087 5
  21927110.278     4703413.226 7   3664998.076 6
  24619411.136    -1296922.402 4  -1010589.839 3
  23660310.908    11334715.833 6   8832246.578 2
  20601094.359    -3133617.567 9  -2441771.061 9
  21926884.234   -17536433.715 8 -13664734.286 5
 92  4 12  3 51 30.0000000  0  6 16 12  3 13 24 20
  23066674.474   -11845139.913 6  -9229977.409 3
  21941623.830     4779677.432 7   3724424.720 5
  24605221.360    -1371504.362 4  -1068705.858 2
  23673057.484    11401762.860 6   8884490.998 2
  20606553.880    -3104917.314 9  -2419407.197 9
  21910649.873   -17621742.221 8 -13731208.343 6
 92  4 12  3 52  0.0000000  0  6 16 12  3 13 24 20
  23049746.093   -11934110.467 6  -9299304.942 4
  21956217.127     4856368.421 7   3784183.924 6
  24591054.068    -1445977.644 4  -1126737.180 2
  23685823.845    11468785.354 6   8936716.368 1
  20612098.841    -3075796.808 9  -2396715.866 9
  21894470.074   -17706779.519 8 -13797471.069 6
 92  4 12  3 52 30.0000000  0  6 16 12  3 13 24 20
  23032850.989   -12022862.189 6  -9368461.987 4
  21970891.068     4933479.415 7   3844270.405 6
  24576901.465    -1520346.462 4  -1184686.651 2
  23698564.725    11535779.432 6   8988919.564 2
  20617719.050    -3046249.195 9  -2373691.724 9
  21878334.344   -17791547.025 8 -13863523.573 6
 92  4 12  3 53  0.0000000  0  6 16 12  3 13 24 20
  23016010.448   -12111390.436 6  -9437444.878 3
  21985645.355     5011007.544 7   3904681.921 5
  24562773.446    -1594611.657 4  -1242555.879 3
  23711304.706    11602744.676 6   9041100.283 2
  20623421.403    -3016273.738 9  -2350334.199 9
  21862256.175   -17876042.399 8 -13929364.020 6
 92  4 12  3 53 30.0000000  0  6 16 12  3 13 24 20
  22999201.984   -12199702.970 6  -9506259.707 4
  22000480.884     5088952.243 7   3965418.040 4
  24548656.819    -1668770.902 4  -1300342.054 1
  23724051.881    11669683.166 6   9093260.109 1
  20629211.294    -2985856.150 9  -2326632.146 9
  21846230.170   -17960260.796 8 -13994988.644 5
 92  4 12  3 54  0.0000000  0  6 16 12  3 13 24 20
  22982437.290   -12287815.215 6  -9574918.482 4
  22015389.263     5167310.648 7   4026476.532 5
  24534570.171    -1742824.569 4  -1358045.992 2
  23736776.571    11736594.686 6   9145399.026 2
  20635084.528    -2954992.116 9  -2302582.222 9
  21830256.927   -18044199.762 8 -14060395.525 6
 92  4 12  3 54 30.0000000  0  6 16 12  3 13 24 20
  22965711.869   -12375726.031 6  -9643420.259 3
  22030376.488     5246079.060 7   4087854.503 5
  24520500.311    -1816773.809 5  -1415668.591 1
  23749503.661    11803477.729 6   9197515.663 2
  20641039.605    -2923690.712 9  -2278191.490 9
  21814338.548   -18127857.752 8 -14125583.459 6
 92  4 12  3 55  0.0000000  0  6 16 12  3 13 24 20
  22949015.527   -12463434.884 6  -9711764.691 3
  22045445.256     5325256.274 7   4149551.016 5
  24506428.353    -1890617.316 4  -1473208.733 2
  23762228.951    11870334.109 5   9249611.461 2
  20647078.925    -2891962.525 9  -2253468.191 9
  21798472.631   -18211230.510 8 -14190549.149 6
 92  4 12  3 55 30.0000000  0  6 16 12  3 13 24 20
  22932368.651   -12550920.423 6  -9779935.117 3
  22060588.972     5404840.836 7   4211564.965 5
  24492407.059    -1964354.025 4  -1530665.731 2
  23774952.143    11937165.389 6   9301687.788 1
  20653199.488    -2859798.076 9  -2228404.956 9
  21782662.477   -18294314.184 8 -14255289.574 7
 92  4 12  3 56  0.0000000  0  6 16 12  3 13 24 20
  22915766.745   -12638162.959 6  -9847916.153 4
  22075810.635     5484827.780 7   4273892.431 4
  24478395.959    -2037986.244 4  -1588041.327 3
  23787652.851    12003968.841 5   9353742.498 2
  20659401.294    -2827195.155 9  -2203000.059 9
  21766906.584   -18377108.363 8 -14319804.412 6
 92  4 12  3 56 30.0000000  0  6 16 12  3 13 24 20
  22899214.304   -12725146.460 6  -9915695.381 4
  22091107.245     5565209.155 7   4336527.268 6
  24464400.448    -2111519.482 4  -1645339.752 2
  23800363.151    12070739.215 5   9405771.269 3
  20665688.841    -2794166.465 9  -2177263.386 9
  21751206.753   -18459615.995 8 -14384095.983 7
 92  4 12  3 57  0.0000000  0  6 16 12  3 13 24 20
  22882712.528   -12811864.671 6  -9983267.895 3
  22106478.803     5645987.153 7   4399471.146 5
  24450430.719    -2184948.806 5  -1702557.198 1
  23813054.865    12137481.478 5   9457778.234 2
  20672056.733    -2760698.891 9  -2151184.734 9
  21735562.084   -18541829.141 8 -14448158.074 6
 92  4 12  3 57 30.0000000  0  6 16 12  3 13 24 20
  22866259.318   -12898324.201 6 -10050638.820 5
  22121923.811     5727155.266 7   4462719.019 5
  24436477.179    -2258278.117 4  -1759696.778 2
  23825762.168    12204192.084 5   9509760.619 2
  20678508.566    -2726796.441 9  -2124767.215 9
  21719972.876   -18623748.872 8 -14511991.545 6
 92  4 12  3 58  0.0000000  0  6 16 12  3 13 24 20
  22849850.178   -12984554.426 6 -10117831.064 5
  22137442.867     5808708.514 7   4526266.981 6
  24422532.632    -2331510.012 4  -1816760.389 3
  23838450.584    12270868.512 5   9561716.317 2
  20685039.845    -2692477.604 9  -2098025.242 9
  21704438.829   -18705374.600 8 -14575595.910 6
 92  4 12  3 58 30.0000000  0  6 16 12  3 13 24 20
  22833480.610   -13070566.228 6 -10184853.098 3
  22153038.071     5890647.699 7   4590115.684 5
  24408617.765    -2404640.860 4  -1873745.280 2
  23851140.799    12337514.654 5   9613648.274 1
  20691648.769    -2657748.984 9  -2070963.954 9
  21688964.443   -18786699.944 8 -14638966.227 6
 92  4 12  3 59  0.0000000  0  6 16 12  3 13 24 20
  22817153.613   -13156355.839 6 -10251702.026 5
  22168702.527     5972973.004 7   4654265.258 4
  24394719.687    -2477667.973 5  -1930649.358 2
  23863819.022    12404133.518 5   9665559.167 2
  20698333.542    -2622611.221 9  -2043583.858 9
  21673546.416   -18867719.731 8 -14702098.449 7
 92  4 12  3 59 30.0000000  0  6 16 12  3 13 24 20
  22800873.683   -13241915.125 6 -10318371.492 4
  22184442.830     6055680.726 7   4718712.819 5
  24380845.292    -2550592.263 5  -1987473.238 1
  23876478.358    12470724.331 5   9717448.054 2
  20705095.361    -2587076.514 9  -2015894.451 9
  21658189.247   -18948431.539 8 -14764990.686 6
 92  4 12  4  0  0.0000000  0  6 16 12  3 13 24 20
  22784636.624   -13327230.613 6 -10384850.959 3
  22200249.687     6138763.790 7   4783452.852 4
  24366987.686    -2623418.189 5  -2044220.480 3
  23889158.979    12537282.303 5   9769311.400 1
  20711932.428    -2551150.258 9  -1987899.949 9
  21642885.742   -19028837.448 8 -14827644.559 7
 92  4 12  4  0 29.9990000  0  6 16 12  3 13 24 20
  22768456.526   -13412273.905 6 -10451118.340 4
  22216134.490     6222219.731 7   4848483.446 5
  24353152.563    -2696141.051 5  -2100887.412 2
  23901816.217    12603808.282 5   9821149.790 2
  20718843.543    -2514825.397 9  -1959594.839 9
  21627645.793   -19108929.064 8 -14890053.535 6
 92  4 12  4  0 59.9990000  0  6 16 12  3 13 24 20
  22752324.993   -13497034.232 6 -10517165.236 5
  22232084.648     6306054.225 7   4913809.011 5
  24339327.634    -2768762.509 4  -2157475.797 3
  23914459.964    12670310.361 5   9872969.673 2
  20725836.802    -2478083.036 9  -1930964.411 9
  21612467.000   -19188706.144 8 -14952217.418 7
 92  4 12  4  1 29.9990000  0  6 16 12  3 13 24 20
  22736251.920   -13581515.583 6 -10582994.731 5
  22248109.154     6390255.982 7   4979420.747 5
  24325520.992    -2841285.478 4  -2213987.407 2
  23927121.099    12736780.375 6   9924764.420 2
  20732908.007    -2440923.253 9  -1902008.715 9
  21597342.771   -19268168.802 8 -15014136.282 7
 92  4 12  4  1 59.9990000  0  6 16 12  3 13 24 20
  22720228.013   -13665715.394 6 -10648604.873 4
  22264198.117     6474821.505 7   5045315.942 4
  24311753.024    -2913711.357 5  -2270422.921 1
  23939757.351    12803217.947 5   9976533.979 1
  20740057.757    -2403346.374 9  -1872728.014 9
  21582282.697   -19347315.022 8 -15075808.586 7
 92  4 12  4  2 29.9990000  0  6 16 12  3 13 24 20
  22704260.168   -13749630.207 6 -10713992.940 5
  22280361.427     6559751.856 7   5111495.414 5
  24297983.556    -2986036.434 5  -2326780.339 3
  23952392.404    12869627.024 5  10028281.259 2
  20747287.252    -2365354.032 9  -1843123.570 9
  21567281.382   -19426138.068 8 -15137229.063 7
 92  4 12  4  2 59.9990000  0  6 16 12  3 13 24 20
  22688346.285   -13833249.597 6 -10779150.788 4
  22296594.289     6645045.600 7   5177958.076 5
  24284240.171    -3058259.227 5  -2383058.050 2
  23965031.354    12936009.692 6  10080008.110 1
  20754596.792    -2326952.853 9  -1813200.557 9
  21552345.722   -19504633.841 8 -15198394.518 6
 92  4 12  4  3 29.9990000  0  6 16 12  3 13 24 20
  22672490.861   -13916567.967 6 -10844074.102 5
  22312897.902     6730701.001 7   5244702.512 5
  24270520.469    -3130379.165 5  -2439255.174 3
  23977654.415    13002366.423 6  10131714.629 3
  20761974.984    -2288171.779 9  -1782981.529 9
  21537470.619   -19582798.688 8 -15259302.107 6
 92  4 12  4  3 59.9990000  0  6 16 12  3 13 24 20
  22656692.398   -13999589.847 6 -10908766.387 5
  22329258.476     6816712.408 6   5311724.369 5
  24256818.454    -3202399.198 5  -2495374.880 2
  23990269.682    13068694.455 6  10183398.781 2
  20769428.724    -2249019.251 9  -1752473.046 9
  21522660.872   -19660632.509 8 -15319951.757 7
 92  4 12  4  4 29.9990000  0  6 16 12  3 13 24 20
  22640950.596   -14082325.831 7 -10973235.867 5
  22345691.300     6903072.218 6   5379017.724 4
  24243122.436    -3274323.966 5  -2551419.922 2
  24002897.540    13134989.275 6  10235057.145 2
  20776945.720    -2209498.363 9  -1721677.534 9
  21507911.683   -19738137.382 8 -15380345.091 8
 92  4 12  4  4 59.9990000  0  6 16 12  3 13 24 20
  22625258.859   -14164781.155 6 -11037486.679 5
  22362193.376     6989778.732 7   5446581.244 5
  24229454.298    -3346152.625 5  -2607390.070 2
  24015504.113    13201252.552 6  10286690.828 3
  20784541.561    -2169599.938 9  -1690587.837 9
  21493225.749   -19815309.528 8 -15440479.145 7
 92  4 12  4  5 29.9990000  0  6 16 12  3 13 24 20
  22609617.188   -14246963.592 6 -11101524.851 5
  22378761.106     7076831.133 7   5514414.259 5
  24215814.041    -3417883.154 5  -2663283.758 3
  24028088.501    13267486.177 5  10338301.487 2
  20792204.556    -2129318.412 9  -1659199.618 9
  21478602.473   -19892144.256 8 -15500350.285 8
 92  4 12  4  5 59.9990000  0  6 16 12  3 13 24 20
  22594029.479   -14328883.747 7 -11165358.660 5
  22395387.895     7164224.211 7   5582512.737 4
  24202175.283    -3489518.090 5  -2719102.951 2
  24040698.670    13333688.128 5  10389887.442 3
  20799947.896    -2088632.743 9  -1627496.488 9
  21464049.348   -19968640.997 8 -15559958.045 8
 92  4 12  4  6 29.9990000  0  6 16 12  3 13 24 20
  22578498.730   -14410519.292 7 -11228970.652 5
  22412083.038     7251956.668 7   5650875.679 5
  24188568.303    -3561056.226 5  -2774846.758 2
  24053281.559    13399859.954 5  10441449.897 4
  20807765.584    -2047544.609 9  -1595479.746 9
  21449555.582   -20044795.545 8 -15619299.174 8
 92  4 12  4  6 59.9990000  0  6 16 12  3 13 24 20
  22563019.846   -14491853.618 6 -11292347.964 6
  22428844.434     7340027.460 7   5719502.266 5
  24174970.016    -3632495.761 5  -2830513.738 1
  24065880.937    13466004.264 5  10492990.921 2
  20815660.618    -2006052.220 9  -1563148.000 9
  21435129.868   -20120603.708 8 -15678370.378 8
 92  4 12  4  7 29.9990000  0  6 16 12  3 13 24 20
  22547603.919   -14572872.861 7 -11355479.763 5
  22445668.487     7428438.398 6   5788393.897 5
  24161394.215    -3703832.490 5  -2886100.578 2
  24078472.220    13532126.185 6  10544514.531 2
  20823632.999    -1964158.804 9  -1530503.765 9
  21420771.308   -20196057.605 8 -15737165.545 7
 92  4 12  4  7 59.9990000  0  6 16 12  3 13 24 20
  22532246.151   -14653571.478 7 -11418361.696 4
  22462556.396     7517178.817 7   5857542.265 4
  24147834.302    -3775073.724 4  -2941613.065 3
  24091027.828    13598217.134 5  10596013.935 2
  20831678.529    -1921876.938 9  -1497556.843 9
  21406480.802   -20271162.275 8 -15795688.575 8
 92  4 12  4  8 29.9990000  0  6 16 12  3 13 24 20
  22516948.941   -14733931.977 6 -11480980.173 5
  22479503.064     7606246.276 7   5926945.474 5
  24134304.069    -3846219.477 5  -2997051.093 2
  24103618.512    13664278.486 6  10647490.293 2
  20839795.110    -1879218.799 9  -1464316.713 9
  21392257.149   -20345914.369 8 -15853936.888 8
 92  4 12  4  8 59.9990000  0  6 16 12  3 13 24 20
  22501722.782   -14813967.469 7 -11543345.411 5
  22496514.187     7695638.541 7   5996601.787 4
  24120772.337    -3917269.110 5  -3052414.261 3
  24116170.522    13730311.014 5  10698944.159 2
  20847985.740    -1836185.670 9  -1430784.388 9
  21378098.250   -20420310.716 8 -15911907.983 8
 92  4 12  4  9 29.9990000  0  6 16 12  3 13 24 20
  22486552.683   -14893680.163 7 -11605459.128 5
  22513588.567     7785353.691 7   6066509.682 4
  24107259.791    -3988222.294 5  -3107702.252 4
  24128727.330    13796315.921 5  10750376.684 1
  20856244.722    -1792780.987 9  -1396962.550 9
  21364008.904   -20494347.885 8 -15969599.204 8
 92  4 12  4  9 59.9990000  0  6 16 12  3 13 24 20
  22471446.441   -14973069.567 7 -11667320.888 5
  22530720.507     7875388.017 6   6136666.306 4
  24093788.317    -4059079.588 5  -3162915.532 4
  24141295.828    13862293.363 5  10801787.583 2
  20864574.755    -1748998.490 9  -1362846.301 9
  21349990.609   -20568023.701 8 -16027008.862 7
 92  4 12  4 10 29.9990000  0  6 16 12  3 13 24 20
  22456401.057   -15052132.063 7 -11728927.946 4
  22547913.305     7965737.486 6   6207068.478 4
  24080323.139    -4129842.114 5  -3218054.946 2
  24153848.439    13928241.437 5  10853175.697 2
  20872980.037    -1704836.437 9  -1328434.300 9
  21336037.069   -20641336.474 8 -16084135.621 8
 92  4 12  4 10 59.9990000  0  6 16 12  3 13 24 20
  22441413.233   -15130874.246 7 -11790285.416 5
  22565160.665     8056399.862 7   6277714.477 4
  24066878.047    -4200509.555 5  -3273120.259 3
  24166371.369    13994161.410 5  10904541.820 4
  20881453.671    -1660303.900 9  -1293733.603 9
  21322154.280   -20714283.104 8 -16140977.082 8
 92  4 12  4 11 29.9990000  0  6 16 12  3 13 24 20
  22426495.260   -15209291.836 7 -11851389.929 5
  22582474.878     8147371.104 6   6348601.154 3
  24053444.946    -4271083.188 5  -3328112.529 3
  24178918.883    14060052.614 5  10955885.761 1
  20890000.154    -1615405.327 9  -1258747.689 9
  21308346.139   -20786861.922 8 -16197531.928 8
 92  4 12  4 11 59.9990000  0  6 16 12  3 13 24 20
  22411632.150   -15287383.935 7 -11912240.840 5
  22599848.451     8238649.109 6   6419726.887 5
  24040038.528    -4341562.331 5  -3383031.086 1
  24191452.606    14125916.505 5  11007208.220 1
  20898611.393    -1570149.795 9  -1223483.623 9
  21294604.852   -20859069.132 9 -16253797.221 8
 92  4 12  4 12 29.9990000  0  6 16 12  3 13 24 20
  22396837.092   -15365147.804 7 -11972835.970 4
  22617272.388     8330230.900 6   6491089.298 5
  24026632.409    -4411947.100 5  -3437876.141 2
  24203983.631    14191752.581 5  11058509.021 1
  20907286.487    -1524562.048 9  -1187960.690 9
  21280934.616   -20930902.370 8 -16309771.097 8
 92  4 12  4 12 59.9990000  0  6 16 12  3 13 24 20
  22382097.197   -15442591.722 7 -12033181.808 5
  22634757.783     8422111.850 6   6562684.833 4
  24013259.866    -4482239.380 5  -3492649.595 2
  24216505.962    14257559.922 5  11109787.710 3
  20916023.038    -1478647.772 9  -1152183.316 9
  21267338.428   -21002360.220 9 -16365452.477 8
 92  4 12  4 13 29.9990000  0  6 16 12  3 13 24 20
  22367425.353   -15519699.396 7 -12093265.621 5
  22652298.041     8514293.086 6   6634514.350 3
  23999903.513    -4552435.523 5  -3547347.664 2
  24229038.186    14323342.914 5  11161047.030 2
  20924824.945    -1432391.865 9  -1116139.736 9
  21253812.392   -21073436.219 8 -16420836.308 7
 92  4 12  4 13 59.9990000  0  6 16 12  3 13 24 20
  22352815.268   -15596463.020 7 -12153081.372 5
  22669891.960     8606764.267 6   6706569.806 4
  23986559.151    -4622542.678 5  -3601976.390 2
  24241536.534    14389094.532 5  11212282.028 1
  20933689.508    -1385800.452 9  -1079834.728 9
  21240355.608   -21144135.047 9 -16475926.247 8
 92  4 12  4 14 29.9990000  0  6 16 12  3 13 24 20
  22338276.533   -15672871.211 7 -12212620.145 6
  22687551.235     8699527.482 6   6778852.827 3
  23973236.374    -4692556.268 5  -3656532.205 1
  24254030.684    14454820.043 5  11263496.590 2
  20942624.223    -1338850.604 9  -1043250.416 9
  21226978.269   -21214448.711 8 -16530716.046 7
 92  4 12  4 14 59.9990000  0  6 16 12  3 13 24 20
  22323805.251   -15748920.239 7 -12271879.045 5
  22705255.179     8792576.643 6   6851358.646 3
  23959935.782    -4762479.480 5  -3711017.616 1
  24266539.524    14520516.653 5  11314688.938 1
  20951629.089    -1291531.045 9  -1006378.016 9
  21213669.882   -21284377.694 8 -16585206.100 8
 92  4 12  4 15 29.9990000  0  6 16 12  3 13 24 20
  22309405.020   -15824609.124 7 -12330857.316 5
  22723013.385     8885906.787 6   6924083.411 4
  23946643.884    -4832314.514 5  -3765434.298 1
  24279027.079    14586182.328 4  11365856.856 1
  20960702.907    -1243847.844 9   -969222.267 9
  21200437.043   -21353921.118 8 -16639395.721 8
 92  4 12  4 15 59.9990000  0  6 16 12  3 13 24 20
  22295070.144   -15899938.017 7 -12389555.083 6
  22740823.455     8979515.766 6   6997025.448 3
  23933374.470    -4902060.715 5  -3819781.751
  24291532.022    14651819.173 5  11417002.446 2
  20969848.676    -1195798.049 9   -931780.856 9
  21187276.454   -21423075.823 9 -16693282.451 8
 92  4 12  4 16 29.9990000  0  6 16 12  3 13 24 20
  22280802.121   -15974912.943 7 -12447977.041 6
  22758691.086     9073400.875 6   7070182.663 4
  23920114.949    -4971717.888 5  -3874059.845 2
  24304023.775    14717427.319 5  11468125.588 1
  20979062.197    -1147384.013 9   -894055.628 9
  21174190.813   -21491838.853 8 -16746863.977 7
 92  4 12  4 16 59.9990000  0  6 16 12  3 13 24 20
  22266601.852   -16049524.767 7 -12506116.062 4
  22776615.377     9167562.137 6   7143555.072 5
  23906869.219    -5041283.414 5  -3928266.581 1
  24316499.038    14783009.901 5  11519229.025 1
  20988341.074    -1098612.364 9   -856051.735 9
  21161182.518   -21560204.418 8 -16800135.794 8
 92  4 12  4 17 29.9990000  0  6 16 12  3 13 24 20
  22252473.233   -16123780.238 7 -12563977.386 6
  22794580.140     9261993.988 6   7217138.316 4
  23893659.464    -5110759.839 5  -3982403.817 1
  24328970.404    14848565.065 5  11570311.029 1
  20997688.003    -1049487.201 9   -817772.379 9
  21148248.572   -21628172.288 8 -16853097.720 8
 92  4 12  4 17 59.9990000  0  6 16 12  3 13 24 20
  22238411.169   -16197665.396 7 -12621550.174 5
  22812604.862     9356697.212 6   7290933.015 4
  23880456.904    -5180143.749 5  -4036469.035 2
  24341428.280    14914096.596 5  11621374.433 2
  21007105.683    -1000004.631 9   -779214.525 9
  21135391.973   -21695735.992 8 -16905744.708 8
 92  4 12  4 18 29.9990000  0  6 16 12  3 13 24 20
  22224420.454   -16271188.715 7 -12678841.012 6
  22830672.155     9451660.878 6   7364930.642 4
  23867261.539    -5249443.126 5  -4090468.334 2
  24353905.942    14979597.101 5  11672413.655 1
  21016583.023     -950191.314 9   -740398.938 9
  21122613.019   -21762900.908 8 -16958080.964 8
 92  4 12  4 18 59.9990000  0  6 16 12  3 13 24 20
  22210497.793   -16344339.433 7 -12735841.493 5
  22848794.009     9546886.715 6   7439132.600 4
  23854094.654    -5318653.487 5  -4144398.295 2
  24366372.212    15045071.641 6  11723433.043 1
  21026123.618     -900058.252 9   -701334.213 9
  21109907.815   -21829659.875 8 -17010100.884 8
 92  4 12  4 19 29.9990000  0  6 16 12  3 13 24 20
  22196651.278   -16417116.549 7 -12792550.859 5
  22866957.535     9642370.435 6   7513535.472 3
  23840946.056    -5387776.046 5  -4198259.876 3
  24378818.095    15110519.796 5  11774431.505 2
  21035722.372     -849611.393 9   -662024.958 9
  21097280.257   -21896011.549 8 -17061803.440 8
 92  4 12  4 19 59.9990000  0  6 16 12  3 13 24 20
  22182874.915   -16489504.070 7 -12848956.663 4
  22885183.118     9738108.159 6   7588136.276 4
  23827808.851    -5456812.189 5  -4252054.111 2
  24391272.074    15175940.788 5  11825408.848 2
  21045381.086     -798858.289 9   -622477.078 9
  21084731.544   -21961953.595 8 -17113186.805 8
 92  4 12  4 20 29.9990000  0  6 16 12  3 13 24 20
  22169175.599   -16561506.516 7 -12905062.401 6
  22903454.269     9834099.579 6   7662934.768 3
  23814692.631    -5525759.229 5  -4305778.899 3
  24403707.465    15241337.757 5  11876367.688 1
  21055097.659     -747801.101 9   -582692.250 9
  21072261.677   -22027481.115 8 -17164247.156 9
 92  4 12  4 20 59.9990000  0  6 16 12  3 13 24 20
  22155546.135   -16633123.809 7 -12960868.018 5
  22921759.896     9930337.899 6   7737925.646 4
  23801579.109    -5594621.291 5  -4359437.487 1
  24416143.456    15306707.250 5  11927304.842 2
  21064874.791     -696427.009 9   -542660.477 9
  21059870.955   -22092595.468 8 -17214985.556 9
 92  4 12  4 21 29.9990000  0  6 16 12  3 13 24 20
  22141995.516   -16704348.595 7 -13016367.779 5
  22940125.481    10026819.919 6   7813106.424 4
  23788492.569    -5663398.618 5  -4413029.973 3
  24428595.335    15372049.672 5  11978220.988 2
  21074714.279     -644714.244 9   -502364.809 9
  21047560.277   -22157293.743 8 -17265399.740 8
 92  4 12  4 21 59.9990000  0  6 16 12  3 13 24 20
  22128515.048   -16775180.481 7 -13071561.398 5
  22958530.940    10123544.743 6   7888476.388 3
  23775425.815    -5732089.122 5  -4466554.908 3
  24441021.433    15437367.314 5  12029117.857 3
  21084621.820     -592660.482 9   -461803.423 9
  21035328.145   -22221571.548 8 -17315486.290 8
 92  4 12  4 22 29.9990000  0  6 16 12  3 13 24 20
  22115105.331   -16845636.777 7 -13126462.343 6
  22976975.671    10220504.198 6   7964029.198 4
  23762362.659    -5800698.353 5  -4520016.449 2
  24453437.038    15502655.400 5  12079991.703 1
  21094591.119     -540265.143 9   -420975.892 9
  21023176.658   -22285431.210 9 -17365247.009 9
 92  4 12  4 22 59.9990000  0  5 16 12  3 24 20
  22101773.261   -16915694.183 7 -13181052.463 5
  22995477.962    10317700.104 6   8039766.246 4
  23749326.183    -5869221.313 5  -4573410.764 2
  21104629.070     -487515.637 9   -379872.368 9
  21011106.713   -22348864.917 8 -17414675.823 9
 92  4 12  4 23 29.9990000  0  5 16 12  3 24 20
  22088517.637   -16985354.715 7 -13235333.322 5
  23014013.830    10415125.327 6   8115681.989 4
  23736310.694    -5937662.694 5  -4626741.560 1
  21114731.176     -434432.685 9   -338509.024 9
  20999115.015   -22411874.560 9 -17463774.186 8
 92  4 12  4 23 59.9990000  0  5 16 12  3 24 20
  22075337.862   -17054615.818 7 -13289302.964 5
  23032597.664    10512779.083 6   8191775.795 4
  23723292.806    -6006020.267 5  -4680007.016 3
  21124892.641     -381035.325 9   -296900.688 9
  20987204.561   -22474455.278 9 -17512538.329 9
 92  4 12  4 24 29.9990000  0  5 16 12  3 24 20
  22062236.332   -17123461.036 7 -13342948.525 6
  23051222.271    10610657.459 6   8268044.634 2
  23710303.698    -6074295.158 5  -4733208.047 2
  21135112.266     -327335.488 9   -255056.655 9
  20975378.947   -22536605.590 9 -17560967.085 8
 92  4 12  4 24 59.9990000  0  5 16 12  3 24 20
  22049218.444   -17191878.898 7 -13396261.080 4
  23069888.549    10708757.840 6   8344486.479 5
  23697325.083    -6142486.713 5  -4786344.145 2
  21145383.455     -273346.922 9   -212987.637 9
  20963633.679   -22598322.071 9 -17609057.800 8
 92  4 12  4 25 29.9990000  0  5 16 12  3 24 20
  22036278.502   -17259880.790 7 -13449249.496 5
  23088599.495    10807074.965 6   8421097.188 2
  23684357.560    -6210597.822 5  -4839417.542 3
  21155708.907     -219087.262 9   -170707.374 9
  20951974.150   -22659604.794 9 -17656810.516 8
 92  4 12  4 25 59.9990000  0  5 16 12  3 24 20
  22023416.206   -17327468.020 7 -13501914.829 6
  23107351.514    10905606.671 6   8497875.091 3
  23671420.017    -6278627.680 5  -4892427.685 3
  21166086.823     -164550.833 9   -128211.455 9
  20940393.467   -22720450.308 9 -17704222.549 9
 92  4 12  4 26 29.9990000  0  5 16 12  3 24 20
  22010631.857   -17394653.372 7 -13554266.990 6
  23126138.907    11004349.576 6   8574817.600 3
  23658494.465    -6346576.734 5  -4945374.797 2
  21176519.900     -109719.059 9    -85485.389 9
  20928897.926   -22780856.199 9 -17751292.021 9
 92  4 12  4 26 59.9990000  0  5 16 12  3 24 20
  21997918.558   -17461454.578 7 -13606319.818 5
  23144971.869    11103300.769 6   8651922.398 4
  23645573.410    -6414445.208 5  -4998259.186 2
  21187013.536      -54580.977 9    -42520.648 9
  20917487.824   -22840819.723 9 -17798016.796 9
 92  4 12  4 27 29.9990000  0  5 16 12  3 24 20
  21985285.004   -17527872.623 7 -13658074.067 5
  23163838.708    11202458.814 6   8729188.368 3
  23632672.741    -6482231.285 5  -5051079.353 3
  21197566.830         874.924 9       691.753 9
  20906161.965   -22900336.730 9 -17844393.645 9
 92  4 12  4 27 59.9990000  0  5 16 12  3 24 20
  21972715.905   -17593897.488 7 -13709521.959 5
  23182744.220    11301819.161 6   8806611.966 2
  23619786.162    -6549937.062 5  -5103836.979 2
  21208180.682       56656.805 9     44158.158 9
  20894921.547   -22959406.363 9 -17890421.885 9
 92  4 12  4 28 29.9990000  0  5 16 12  3 24 20
  21960231.648   -17659515.262 7 -13760652.639 6
  23201692.902    11401376.984 6   8884189.465 3
  23606921.169    -6617564.095 5  -5156533.179 3
  21218857.491      112769.495 8     87882.330 9
  20883766.869   -23018027.722 9 -17936100.831 9
 92  4 12  4 28 59.9990000  0  5 16 12  3 24 20
  21947824.437   -17724698.126 7 -13811444.432 6
  23220675.461    11501134.122 6   8961922.257 4
  23594071.464    -6685107.678 5  -5209164.421 2
  21229597.256      169200.369 8    131854.445 9
  20872698.232   -23076193.479 9 -17981424.745 9
 92  4 12  4 29 29.9990000  0  5 16 12  3 24 20
  21935506.864   -17789442.991 7 -13861894.917 5
  23239697.292    11601081.493 6   9039803.296 4
  23581231.353    -6752574.462 5  -5261735.781 2
  21240395.480      225938.415 9    176065.912 9
  20861713.836   -23133907.437 9 -18026396.623 9
 92  4 12  4 29 59.9990000  0  5 16 12  3 24 20
  21923270.536   -17853740.280 7 -13911996.649 6
  23258755.998    11701214.816 6   9117829.237 2
  23568405.033    -6819965.657 5  -5314248.266 3
  21251247.367      282979.697 8    220513.672 9
  20850820.577   -23191168.358 9 -18071015.482 9
 92  4 12  4 30 29.9990000  0  5 16 12  3 24 20
  21911122.046   -17917585.126 7 -13961745.833 6
  23277842.585    11801534.628 6   9196000.497 4
  23555585.308    -6887277.851 5  -5366699.162 3
  21262160.413      340313.009 8    265188.975 9
  20840009.462   -23247969.878 9 -18115276.366 9
 92  4 12  4 30 59.9990000  0  5 16 12  3 24 20
  21899058.997   -17980975.016 7 -14011140.504 6
  23296967.545    11902037.856 6   9274314.661 3
  23542803.357    -6954510.800 5  -5419088.323 4
  21273120.525      397915.986 8    310074.423 9
  20829289.783   -23304309.473 9 -18159177.310 9
 92  4 12  4 31 29.9990000  0  5 16 12  3 24 20
  21887082.288   -18043905.557 7 -14060177.240 6
  23316124.283    12002721.775 6   9352769.606 2
  23530023.804    -7021665.032 5  -5471416.162 2
  21284131.602      455784.729 8    355166.951 9
  20818656.144   -23360184.461 9 -18202716.222 9
 92  4 12  4 31 59.9990000  0  5 16 12  3 24 20
  21875197.616   -18106371.327 7 -14108851.797 5
  23335318.495    12103581.056 6   9431361.211 3
  23517255.343    -7088742.455 5  -5523684.135 2
  21295193.345      513907.045 8    400457.071 9
  20808110.045   -23415594.705 9 -18245892.997 9
 92  4 12  4 32 29.9990000  0  5 16 12  3 24 20
  21863392.388   -18168388.174 7 -14157176.565 6
  23354545.685    12204610.647 6   9510085.541 3
  23504504.570    -7155745.476 5  -5575894.181 2
  21306300.055      572269.692 8    445934.463 8
  20797656.882   -23470539.839 9 -18288707.347 9
 92  4 12  4 32 59.9990000  0  5 16 12  3 24 20
  21851678.298   -18229961.047 7 -14205155.376 5
  23373806.151    12305812.354 6   9588943.970 2
  23491772.085    -7222669.318 5  -5628042.498 2
  21317453.234      630883.521 8    491607.578 8
  20787290.958   -23525012.146 9 -18331153.259 8
 92  4 12  4 33 29.9990000  0  5 16 12  3 24 20
  21840041.554   -18291109.404 7 -14252803.399 6
  23393090.901    12407176.698 6   9667929.101 3
  23479049.792    -7289520.526 5  -5680134.226 2
  21328657.378      689751.389 9    537478.657 8
  20777016.470   -23579016.171 9 -18373234.278 9
 92  4 12  4 33 59.9990000  0  5 16 12  3 24 20
  21828481.257   -18351844.170 7 -14300129.140 5
  23412408.327    12508704.529 5   9747041.612 3
  23466344.887    -7356295.363 5  -5732166.460 2
  21339907.089      748886.280 9    583557.788 8
  20766828.324   -23632545.562 9 -18414945.445 9
 92  4 12  4 34 29.9990000  0  5 16 12  3 24 20
  21817006.401   -18412154.525 7 -14347124.169 6
  23431764.427    12610394.690 6   9826280.648 4
  23453648.077    -7422992.149 5  -5784137.839 3
  21351213.463      808297.333 9    629852.119 8
  20756730.714   -23685595.955 9 -18456283.372 9
 92  4 12  4 34 59.9990000  0  5 16 12  3 24 20
  21805618.184   -18472018.040 7 -14393771.021 5
  23451134.318    12712236.408 5   9905637.791 2
  23440970.454    -7489618.962 5  -5836054.716 3
  21362571.999      867986.059 9    676362.811 8
  20746727.840   -23738172.700 9 -18497252.218 9
 92  4 12  4 35 29.9990000  0  5 16 12  3 24 20
  21794312.712   -18531410.588 7 -14440050.885 6
  23470547.678    12814230.851 5   9985113.940 3
  23428308.720    -7556171.419 5  -5887913.631 2
  21373985.398      927961.698 9    723097.084 8
  20736813.702   -23790269.291 9 -18537846.925 9
 92  4 12  4 35 59.9990000  0  5 16 12  3 24 20
  21783102.872   -18590302.402 7 -14485940.559 5
  23489988.319    12916377.191 5  10064708.408 3
  23415658.977    -7622647.741 5  -5939713.227 4
  21385454.258      988226.105 8    770056.361 9
  20726991.902   -23841881.087 9 -18578063.864 9
 92  4 12  4 36 29.9990000  0  5 16 12  3 24 20
  21771996.460   -18648683.747 7 -14531432.468 6
  23509454.144    13018665.876 5  10144413.822 4
  23403020.626    -7689054.291 5  -5991458.493 3
  21396976.781     1048770.028 9    817233.444 9
  20717261.538   -23893012.195 9 -18617906.249 9
 92  4 12  4 36 59.9990000  0  5 16 12  3 24 20
  21760983.884   -18706562.346 7 -14576532.639 6
  23528945.749    13121098.229 5  10224231.154 2
  23390397.864    -7755387.341 6  -6043146.425 2
  21408547.871     1109591.133 9    864626.516 9
  20707625.310   -23943656.147 9 -18657369.029 9
 92  4 12  4 37 29.9990000  0  5 16 12  3 24 20
  21750059.147   -18763962.558 7 -14621260.034 6
  23548464.038    13223673.825 5  10304160.147 3
  23377793.990    -7821643.982 5  -6094774.867 2
  21420172.324     1170677.673 8    912226.424 8
  20698081.116   -23993807.621 9 -18696448.053 9
 92  4 12  4 37 59.9990000  0  5 16 12  3 24 20
  21739224.948   -18820901.557 7 -14665628.034 6
  23568018.001    13326384.517 5  10384194.433 4
  23365195.811    -7887829.165 6  -6146347.590 2
  21431842.644     1232007.025 8    960015.530 9
  20688631.059   -24043469.614 9 -18735145.676 9
 92  4 12  4 38 29.9990000  0  5 16 12  3 24 20
  21728473.790   -18877400.860 7 -14709653.417 5
  23587586.054    13429228.477 5  10464332.494 3
  23352620.118    -7953942.570 5  -6197864.385 1
  21443560.332     1293580.915 8   1007995.182 8
  20679273.637   -24092638.892 9 -18773459.360 9
 92  4 12  4 38 59.9990000  0  5 16 12  3 24 20
  21717803.878   -18933466.483 7 -14753340.874 6
  23607177.491    13532203.812 5  10544572.933 2
  23340041.725    -8019982.430 5  -6249323.895 4
  21455322.689     1355393.170 8   1056160.578 8
  20670010.649   -24141311.538 9 -18811386.064 9
 92  4 12  4 39 29.9990000  0  5 16 12  3 24 20
  21707218.206   -18989088.853 7 -14796682.947 6
  23626799.807    13635305.231 5  10624911.618 1
  23327490.015    -8085951.632 5  -6300728.327 3
  21467128.216     1417436.001 8   1104505.645 8
  20660846.594   -24189487.678 9 -18848925.878 9
 92  4 12  4 39 59.9990000  0  5 16 12  3 24 20
  21696722.471   -19044247.591 7 -14839663.735 7
  23646447.305    13738530.619 5  10705346.952 1
  23314950.896    -8151849.322 5  -6352077.058 3
  21478981.710     1479723.386 8   1153041.271 9
  20651773.974   -24237164.163 9 -18886076.348 9
 92  4 12  4 40 29.9990000  0  5 16 12  3 24 20
  21686313.377   -19098931.055 7 -14882274.192 6
  23666101.998    13841877.162 5  10785876.640 1
  23302424.667    -8217675.311 5  -6403369.902 2
  21490885.569     1542269.380 8   1201778.417 8
  20642795.490   -24284338.580 9 -18922835.606 9
 92  4 12  4 40 59.9990000  0  5 16 12  3 24 20
  21676007.113   -19153110.975 7 -14924492.258 6
  23685791.168    13945341.771 5  10866498.364 2
  23289918.524    -8283429.714 6  -6454606.981 3
  21502834.098     1605066.067 8   1250710.913 8
  20633913.239   -24331008.790 9 -18959201.969 9
 92  4 12  4 41 29.9990000  0  5 16 12  3 24 20
  21665797.381   -19206768.415 8 -14966303.217 6
  23705497.125    14048924.097 5  10947211.749 4
  23277418.678    -8349110.289 6  -6505786.519 3
  21514834.191     1668118.208 8   1299842.445 8
  20625128.721   -24377170.049 9 -18995171.750 9
 92  4 12  4 41 59.9990000  0  5 16 12  3 24 20
  21655687.479   -19259903.854 8 -15007707.415 6
  23725243.855    14152617.501 5  11028011.743 3
  23264925.427    -8414720.371 6  -6556911.162 1
  21526880.151     1731432.384 8   1349178.165 8
  20616443.133   -24422823.290 9 -19030745.685 9
 92  4 12  4 42 29.9990000  0  5 16 12  3 24 20
  21645672.913   -19312518.725 8 -15048705.974 6
  23744989.686    14256417.765 5  11108894.971 3
  23252455.859    -8480261.641 6  -6607982.142 2
  21538976.776     1794996.472 8   1398708.626 8
  20607851.681   -24467967.859 9 -19065923.228 9
 92  4 12  4 42 59.9990000  0  5 16 12  3 24 20
  21635759.076   -19364609.055 8 -15089295.797 6
  23764765.195    14360324.214 5  11189860.956 1
  23239999.183    -8545731.512 6  -6658997.511 2
  21551116.572     1858798.732 8   1448424.677 8
  20599360.659   -24512599.160 9 -19100700.843 9
 92  4 12  4 43 29.9990000  0  5 16 12  3 24 20
  21625942.072   -19416199.796 8 -15129496.329 7
  23784555.095    14464331.739 5  11270905.717 2
  23227554.499    -8611132.669 6  -6709959.338 3
  21563304.035     1922836.663 8   1498324.362 9
  20590963.772   -24556717.104 9 -19135078.427 9
 92  4 12  4 43 59.9990000  0  5 16 12  3 24 20
  21616212.907   -19467311.189 8 -15169323.345 6
  23804365.380    14568436.498 5  11352026.226 2
  23215120.007    -8676465.594 6  -6760868.012 2
  21575532.570     1987096.454 8   1548396.928 8
  20582665.817   -24600320.445 9 -19169055.028 9
 92  4 12  4 44 29.9990000  0  5 16 12  3 24 20
  21606578.777   -19517951.479 8 -15208783.257 6
  23824195.153    14672633.984 5  11433218.965 4
  23202700.205    -8741731.940 6  -6811724.794 2
  21587799.177     2051561.736 8   1598629.613 7
  20574467.992   -24643408.822 9 -19202630.357 9
 92  4 12  4 44 59.9990000  0  5 16 12  3 24 20
  21597030.687   -19568131.349 8 -15247884.413 5
  23844038.715    14776916.114 5  11514477.678 2
  23190289.396    -8806937.006 6  -6862533.849 2
  21600105.058     2116226.363 8   1649017.626 8
  20566363.103   -24685985.014 9 -19235806.578 9
 92  4 12  4 45 29.9990000  0  5 16 12  3 24 20
  21587569.537   -19617854.311 8 -15286629.520 6
  23863893.370    14881282.079 5  11595801.694 3
  23177898.375    -8872078.559 6  -6913293.365 3
  21612444.816     2181094.060 8   1699563.878 7
  20558360.143   -24728044.560 9 -19268580.222 9
 92  4 12  4 45 59.9990000  0  5 16 12  3 24 20
  21578197.724   -19667107.132 8 -15325008.301 6
  23883763.615    14985727.920 5  11677187.995 3
  23165513.648    -8937157.809 6  -6964004.370 3
  21624831.940     2246166.362 8   1750269.573 7
  20550456.715   -24769586.341 9 -19300950.412 9
 92  4 12  4 46 29.9990000  0  5 16 12  3 24 20
  21568921.246   -19715866.529 8 -15363002.594 6
  23903663.838    15090252.524 5  11758635.612 2
  23153139.715    -9002172.798 6  -7014665.294 5
  21637256.539     2311461.624 8   1801148.999 7
  20542648.921   -24810606.437 9 -19332914.098 9
 92  4 12  4 46 59.9990000  0  5 16 12  3 24 20
  21559735.605   -19764115.955 8 -15400599.509 6
  23923572.155    15194855.871 5  11840144.605 1
  23140785.567    -9067120.535 6  -7065273.832 3
  21649726.407     2376987.205 8   1852207.882 8
  20534944.853   -24851099.962 9 -19364467.466 9
 92  4 12  4 47 29.9990000  0  6 16 25 12  3 24 20
  21550651.295   -19811852.704 8 -15437796.926 6
  24460546.916    -2844849.268 5  -2216765.458 1
  23943484.970    15299526.389 5  11921705.977 2
  23128433.519    -9132009.803 6  -7115836.775 3
  21662237.644     2442740.001 8   1903443.832 8
  20527339.119   -24891073.308 9 -19395615.499 9
 92  4 12  4 47 59.9990000  0  6 16 25 12  3 24 20
  21541668.013   -19859060.824 8 -15474582.430 6
  24453683.467    -2880884.166 5  -2244844.540 2
  23963420.269    15404265.433 5  12003320.740 1
  23116100.056    -9196836.408 6  -7166350.929 4
  21674792.953     2508722.966 8   1954859.127 8
  20519829.918   -24930520.265 9 -19426353.366 9
 92  4 12  4 48 29.9990000  0  6 16 25 12  3 24 20
  21532782.765   -19905743.757 8 -15510958.698 7
  24446939.636    -2916382.964 5  -2272505.867 2
  23983361.565    15509065.746 5  12084983.213 2
  23103766.595    -9261605.060 6  -7216819.881 3
  21687390.232     2574923.892 8   2006444.264 7
  20512424.744   -24969442.892 9 -19456682.656 9
 92  4 12  4 48 59.9990000  0  6 16 25 12  3 24 20
  21524002.443   -19951899.283 8 -15546924.007 6
  24440286.642    -2951360.791 5  -2299761.232 2
  24003316.650    15613928.783 5  12166694.560 2
  23091463.113    -9326310.782 6  -7267239.838 3
  21700030.382     2641333.614 8   2058192.098 7
  20505119.401   -25007834.864 9 -19486598.457 9
 92  4 12  4 49 29.9990000  0  6 16 25 12  3 24 20
  21515317.456   -19997531.581 8 -15582481.600 6
  24433725.984    -2985814.816 5  -2326608.443 2
  24023283.727    15718848.795 5  12248450.304 3
  23079161.729    -9390956.689 6  -7317613.162 4
  21712704.407     2707939.543 8   2110092.822 8
  20497911.791   -25045697.034 9 -19516101.422 9
 92  4 12  4 49 59.9990000  0  6 16 25 12  3 24 20
  21506734.098   -20042638.356 8 -15617629.692 6
  24427251.066    -3019765.470 5  -2353063.424 2
  24043266.993    15823822.920 5  12330248.220 3
  23066864.842    -9455542.667 5  -7367939.804 3
  21725413.210     2774729.774 8   2162137.152 7
  20490811.507   -25083027.599 9 -19545190.145 9
 92  4 12  4 50 29.9990000  0  6 16 25 12  3 24 20
  21498250.870   -20087221.257 8 -15652369.575 6
  24420891.869    -3053227.263 5  -2379137.431 3
  24063233.770    15928848.768 5  12412086.393 3
  23054582.645    -9520068.192 5  -7418219.344 3
  21738157.986     2841707.618 8   2214327.674 7
  20483809.254   -25119823.660 9 -19573862.379 9
 92  4 12  4 50 59.9990000  0  6 16 25 12  3 24 20
  21489862.977   -20131286.290 8 -15686705.926 7
  24414628.305    -3086170.889 5  -2404807.715 2
  24083237.122    16033923.087 5  12493962.389 1
  23042320.234    -9584533.404 6  -7468451.866 4
  21750938.738     2908870.772 8   2266662.594 8
  20476908.931   -25156083.581 9 -19602116.834 9
 92  4 12  4 51 29.9990000  0  6 16 25 12  3 24 20
  21481576.114   -20174843.395 8 -15720646.494 6
  24408459.175    -3118587.626 5  -2430067.403 2
  24103246.769    16139038.539 5  12575870.345 1
  23030062.020    -9648942.957 6  -7518641.032 2
  21763754.267     2976215.061 8   2319138.661 7
  20470109.038   -25191810.069 9 -19629955.633 9
 92  4 12  4 51 59.9990000  0  6 16 25 12  3 24 20
  21473386.084   -20217892.026 8 -15754190.850 6
  24402381.483    -3150457.084 5  -2454900.678 3
  24123251.320    16244195.803 5  12657811.007 3
  23017816.697    -9713293.247 6  -7568784.040 2
  21776606.969     3043753.938 8   2371766.354 8
  20463412.574   -25226997.903 9 -19657374.704 9
 92  4 12  4 52 29.9990000  0  6 16 25 12  3 24 20
  21465290.189   -20260437.398 8 -15787343.044 6
  24396444.993    -3181759.247 5  -2479291.888 2
  24143270.861    16349390.910 5  12739781.082 3
  23005584.565    -9777585.380 6  -7618881.704 3
  21789497.145     3111493.563 8   2424550.458 8
  20456817.740   -25261646.084 9 -19684373.257 9
 92  4 12  4 52 59.9990000  0  6 16 25 12  3 24 20
  21457291.427   -20302463.577 8 -15820090.687 7
  24390583.150    -3212492.041 5  -2503239.408 3
  24163294.599    16454621.583 5  12821778.877 2
  22993358.129    -9841818.588 6  -7668933.487 2
  21802427.194     3179434.805 8   2477491.670 7
  20450327.833   -25295751.757 9 -19710949.086 9
 92  4 12  4 53 29.9990000  0  6 16 25 12  3 24 20
  21449395.492   -20343953.435 8 -15852420.411 6
  24384842.725    -3242682.062 5  -2526763.975 2
  24183331.528    16559882.127 5  12903799.949 2
  22981146.983    -9905995.635 6  -7718941.479 3
  21815392.618     3247580.623 8   2530592.300 6
  20443940.754   -25329315.990 9 -19737103.012 9
 92  4 12  4 53 59.9990000  0  6 16 25 12  3 24 20
  21441601.788   -20384902.763 8 -15884328.944 7
  24379190.438    -3272345.099 5  -2549878.028 3
  24203365.758    16665168.540 5  12985841.192
  22968941.533    -9970117.672 6  -7768906.613 3
  21828400.613     3315927.373 8   2583849.515 7
  20437660.402   -25362338.489 9 -19762834.799 9
 92  4 12  4 54 29.9990000  0  6 16 25 12  3 24 20
  21433915.410   -20425300.016 8 -15915807.281 6
  24373654.171    -3301497.476 5  -2572594.004 2
  24223404.186    16770479.563 5  13067901.597 2
  22956758.267   -10034183.100 6  -7818827.644 3
  21841442.184     3384467.162 8   2637257.119 7
  20431480.481   -25394815.288 9 -19788141.377 9
 92  4 12  4 54 59.9990000  0  6 16 25 12  3 24 20
  21426335.157   -20465141.576 8 -15946852.619 6
  24368204.843    -3330132.523 5  -2594906.967 2
  24243446.211    16875815.513 5  13149981.403 1
  22944575.900   -10098188.614 6  -7868701.989 3
  21854520.031     3453187.227 8   2690805.209 8
  20425403.088   -25426741.308 9 -19813018.769 9
 92  4 12  4 55 29.9990000  0  6 16 25 12  3 24 20
  21418858.333   -20504442.968 8 -15977477.044 6
  24362857.745    -3358239.147 5  -2616808.143 2
  24263481.342    16981171.608 4  13232076.929 3
  22932404.627   -10162136.148 6  -7918531.151 4
  21867626.357     3522074.364 8   2744483.472 7
  20419431.822   -25458116.758 9 -19837467.150 9
 92  4 12  4 55 59.9990000  0  6 16 25 12  3 24 20
  21411480.141   -20543221.941 8 -16007694.389 7
  24357592.490    -3385803.518 5  -2638286.780 3
  24283545.851    17086543.158 5  13314184.495 1
  22920251.640   -10226027.362 6  -7968316.433 2
  21880769.558     3591124.938 8   2798289.110 7
  20413564.283   -25488941.606 9 -19861486.485 9
 92  4 12  4 56 29.9990000  0  6 16 25 12  3 24 20
  21404199.681   -20581468.939 8 -16037497.211 6
  24352466.639    -3412812.240 5  -2659332.446 2
  24303601.367    17191926.801 5  13396301.440 2
  22908102.250   -10289862.709 6  -8018058.175 3
  21893940.041     3660344.789 8   2852226.639 7
  20407805.271   -25519214.702 9 -19885075.890 9
 92  4 12  4 56 59.9990000  0  6 16 25 12  3 24 20
  21397021.150   -20619186.048 8 -16066887.130 7
  24347422.630    -3439265.476 5  -2679945.308 2
  24323666.177    17297322.974 5  13478428.118 2
  22895967.551   -10353639.072 6  -8067753.961 3
  21907148.596     3729747.687 8   2906306.814 7
  20402150.885   -25548931.318 9 -19908231.678 9
 92  4 12  4 57 29.9990000  0  6 16 25 12  3 24 20
  21389946.348   -20656367.086 8 -16095859.333 6
  24342496.140    -3465175.003 5  -2700134.459 1
  24343710.899    17402728.096 5  13560561.839 1
  22883834.950   -10417356.867 6  -8117404.129 3
  21920393.427     3799352.147 8   2960544.038 7
  20396602.926   -25578090.206 9 -19930952.857 9
 92  4 12  4 57 59.9990000  0  6 16 25 12  3 24 20
  21382975.274   -20693004.499 8 -16124407.938 7
  24337670.981    -3490551.720 5  -2719908.453 1
  24363780.506    17508135.747 5  13642697.531 1
  22871722.136   -10481019.417 6  -8167011.211 3
  21933674.833     3869155.496 8   3014936.254 7
  20391158.394   -25606693.122 9 -19953240.827 9
 92  4 12  4 58 29.9990000  0  6 16 25 12  3 24 20
  21376110.327   -20729078.704 8 -16152517.681 7
  24332933.960    -3515395.921 5  -2739267.537 2
  24383848.013    17613545.932 5  13724835.602 2
  22859621.913   -10544624.132 6  -8216573.247 3
  21946994.912     3939151.247 8   3069478.384 7
  20385822.688   -25634735.653 9 -19975092.127 9
 92  4 12  4 58 59.9990000  0  6 16 25 12  3 24 20
  21369350.306   -20764593.600 8 -16180191.591 6
  24328322.253    -3539711.788 5  -2758214.922 1
  24403889.739    17718954.940 5  13806972.333 1
  22847530.984   -10608171.786 6  -8266090.816 4
  21960348.867     4009323.688 7   3124158.197 7
  20380591.610   -25662217.096 9 -19996506.215 9
 92  4 12  4 59 29.9990000  0  6 16 25 12  3 24 20
  21362701.209   -20799548.264 8 -16207428.937 7
  24323787.592    -3563501.725 5  -2776752.452 3
  24423952.749    17824354.833 5  13889102.006 2
  22835441.853   -10671667.455 6  -8315567.891 4
  21973731.902     4079650.589 7   3178958.369 7
  20375468.157   -25689140.705 9 -20017485.637 9
 92  4 12  4 59 59.9990000  0  6 16 25 12  3 24 20
  21356155.541   -20833936.486 8 -16234224.927 7
  24319358.158    -3586775.727 5  -2794888.023 2
  24444006.766    17929745.781 5  13971224.583 2
  22823376.106   -10735107.627 6  -8365001.707 4
  21987140.719     4150115.024 8   3233865.715 7
  20370453.828   -25715501.995 9 -20038026.878 9
 92  4 12  5  0 29.9990000  0  6 16 25 12  3 24 20
  21349717.798   -20867772.089 8 -16260590.297 7
  24315026.457    -3609533.272 5  -2812621.163 3
  24464055.087    18035124.390 5  14053337.586 1
  22811308.260   -10798493.299 6  -8414393.068 3
  22000576.218     4220718.523 7   3288881.424 7
  20365543.227   -25741299.823 9 -20058129.062 9
 92  4 12  5  0 59.9990000  0  6 16 25 12  3 24 20
  21343381.084   -20901074.557 8 -16286540.240 6
  24310795.786    -3631777.923 5  -2829954.584 1
  24484106.706    18140487.807 5  14135438.767 1
  22799259.302   -10861824.308 6  -8463741.820 3
  22014039.897     4291465.469 7   3344008.901 7
  20360741.752   -25766532.715 9 -20077791.035 9
 92  4 12  5  1 29.9990000  0  6 16 25 12  3 24 20
  21337143.303   -20933841.542 8 -16312072.910 6
  24306662.248    -3653509.492 5  -2846888.233 2
  24504150.830    18245836.491 4  14217528.448 2
  22787217.538   -10925096.891 6  -8513045.064 2
  22027532.057     4362364.697 8   3399255.043 6
  20356049.400   -25791196.009 9 -20097009.171 9
 92  4 12  5  1 59.9990000  0  6 16 25 12  3 24 20
  21331008.650   -20966085.725 8 -16337198.220 7
  24302629.440    -3674715.838 5  -2863412.590 2
  24524200.949    18351163.517 5  14299601.299 2
  22775190.464   -10988315.574 6  -8562306.297 4
  22041053.296     4433420.129 8   3454622.904 6
  20351465.574   -25815292.252 9 -20115785.455 9
 92  4 12  5  2 29.9990000  0  6 16 25 12  3 24 20
  21324972.329   -20997808.585 8 -16361917.294 7
  24298691.066    -3695373.502 5  -2879509.490 1
  24544245.972    18456469.712 5  14381657.825 2
  22763169.685   -11051476.137 6  -8611522.243 3
  22054606.314     4504650.840 7   3510127.357 6
  20346986.375   -25838816.174 9 -20134115.763 9
 92  4 12  5  2 59.9990000  0  6 16 25 12  3 24 20
  21319035.240   -21028998.275 8 -16386220.923 7
  24294867.813    -3715490.230 5  -2895184.822 2
  24564267.012    18561748.329 4  14463692.918 2
  22751159.101   -11114582.696 6  -8660696.108 4
  22068192.608     4576049.440 7   3565762.630 6
  20342620.197   -25861770.400 9 -20152002.164 9
 92  4 12  5  3 29.9990000  0  6 16 25 12  3 24 20
  21313206.974   -21059627.487 8 -16410087.806 7
  24291136.296    -3735054.579 5  -2910429.744 2
  24584293.148    18667000.257 4  14545707.204 1
  22739162.306   -11177631.462 6  -8709824.937 4
  22081812.479     4647617.799 7   3621530.171 7
  20338361.945   -25884150.002 9 -20169440.803 9
 92  4 12  5  3 59.9990000  0  6 16 25 12  3 24 20
  21307486.634   -21089692.542 8 -16433515.090 7
  24287519.900    -3754063.137 5  -2925241.553 2
  24604318.085    18772217.434 4  14627694.430 2
  22727175.703   -11240627.577 6  -8758912.747 4
  22095462.630     4719352.871 7   3677427.623 6
  20334206.821   -25905958.487 9 -20186434.414 9
 92  4 12  5  4 29.9990000  0  6 16 25 12  3 24 20
  21301875.119   -21119171.165 8 -16456485.421 7
  24284021.921    -3772524.040 5  -2939626.616 2
  24624336.426    18877401.043 4  14709655.919
  22715197.197   -11303566.831 6  -8807956.234 4
  22109146.956     4791254.729 7   3733455.040 6
  20330171.915   -25927190.516 9 -20202978.843 9
 92  4 12  5  4 59.9990000  0  6 16 25 12  3 24 20
  21296380.823   -21148059.544 8 -16478995.824 7
  24280604.287    -3790432.969 5  -2953581.587 3
  24644341.277    18982547.963 4  14791588.356 1
  22703234.278   -11366449.425 6  -8856955.585 4
  22122857.364     4863310.216 7   3789602.168 6
  20326238.638   -25947845.020 9 -20219073.252 9
 92  4 12  5  5 29.9990000  0  6 16 25 12  3 24 20
  21290994.152   -21176363.933 8 -16501051.162 6
  24277296.377    -3807784.451 5  -2967102.176 3
  24664342.830    19087655.727 4  14873490.731 3
  22691270.760   -11429275.016 6  -8905910.522 3
  22136597.152     4935525.391 7   3845873.718 6
  20322418.982   -25967920.271 9 -20234716.286 9
 92  4 12  5  5 59.9990000  0  6 16 25 12  3 24 20
  21285714.507   -21204094.209 8 -16522659.141 6
  24274112.582    -3824590.234 5  -2980197.546 2
  24684352.478    19192721.190 4  14955360.181 2
  22679330.925   -11492044.052 6  -8954821.381 4
  22150368.119     5007886.374 7   3902258.907 6
  20318710.849   -25987415.606 9 -20249907.455 9
 92  4 12  5  6 29.9990000  0  7 17 16 25 12  3 24 20
  23726841.450     -253085.003 5   -197209.512 2
  21280549.082   -21231252.195 8 -16543821.174 7
  24270998.037    -3840857.170 5  -2992873.030 2
  24704327.350    19297735.904 4  15037190.062 3
  22667394.988   -11554761.568 6  -9003692.099 4
  22164164.568     5080374.106 7   3958742.842 6
  20315107.944   -26006335.262 9 -20264650.034 9
 92  4 12  5  6 59.9990000  0  6 17 16 25  3 24 20
  23708159.583     -351290.723 5   -273733.283 2
  21275490.684   -21257831.723 8 -16564532.474 7
  24268013.604    -3856572.581 5  -3005118.748 2
  22655477.039   -11617419.375 6  -9052516.282 3
  22177983.801     5152992.766 7   4015328.797 6
  20311618.659   -26024669.514 9 -20278936.449 9
 92  4 12  5  7 29.9990000  0  6 17 16 25  3 24 20
  23689512.791     -449282.731 5   -350090.516 3
  21270544.709   -21283825.149 8 -16584787.060 7
  24265129.300    -3871753.092 5  -3016947.667 1
  22643561.489   -11680023.353 6  -9101298.539 4
  22191821.922     5225729.250 7   4072006.558 6
  20308244.195   -26042423.236 9 -20292770.512 9
 92  4 12  5  7 59.9990000  0  6 17 16 25  3 24 20
  23670902.275     -547073.966 5   -426291.350 2
  21265713.852   -21309216.484 8 -16604572.493 7
  24262334.036    -3886398.983 5  -3028359.976 3
  22631658.828   -11742569.889 6  -9150036.027 3
  22205686.123     5298578.391 7   4128772.117 6
  20304975.558   -26059591.728 9 -20306148.542 9
 92  4 12  5  8 29.9990000  0  7 17 16 25 12  3 24 20
  23652323.837     -644679.145 5   -502347.173 2
  21260993.620   -21334015.221 8 -16623896.144 6
  24259650.894    -3900506.428 5  -3039352.713 2
  24784159.983        1742.60914      1351.001 1
  22619763.964   -11805063.101 6  -9198731.976 4
  22219571.310     5371550.973 7   4185633.848 6
  20301818.144   -26076178.179 9 -20319073.044 9
 92  4 12  5  8 59.9990000  0  7 17 16 25 12  3 24 20
  23633778.975     -742093.161 5   -578254.057 2
  21256383.712   -21358234.087 8 -16642767.967 7
  24257077.175    -3914091.630 5  -3049938.573 2
  24804106.074       17450.028 5     13590.221 2
  22607881.090   -11867499.558 6  -9247383.681 5
  22233481.980     5444656.000 7   4242598.815 6
  20298774.650   -26092177.934 9 -20331540.373 9
 92  4 12  5  9 29.9990000  0  6 17 16 25  3 24 20
  23615282.980     -839309.439 5   -654006.854 2
  21251882.928   -21381884.071 8 -16661196.500 8
  24254582.002    -3927170.143 5  -3060129.574 2
  22596015.604   -11929877.012 6  -9295989.437 4
  22247422.330     5517896.637 7   4299669.423 6
  20295841.481   -26107587.583 9 -20343547.878 9
 92  4 12  5  9 59.9990000  0  6 17 16 25  3 24 20
  23596822.660     -936338.844 5   -729614.063 2
  21247486.771   -21404985.709 8 -16679197.751 8
  24252183.663    -3939747.509 5  -3069930.060 1
  22584155.215   -11992201.725 6  -9344554.098 3
  22261383.065     5591277.747 7   4356849.493 6
  20293020.134   -26122412.644 9 -20355099.872 9
 92  4 12  5 10 29.9990000  0  6 17 16 25  3 24 20
  23578392.619    -1033169.004 5   -805066.003 2
  21243193.144   -21427551.965 8 -16696781.821 7
  24249888.152    -3951818.595 5  -3079336.086 2
  22572308.016   -12054470.878 6  -9393075.458 4
  22275377.977     5664807.506 7   4414145.397 6
  20290313.608   -26136649.297 9 -20366193.356 9
 92  4 12  5 10 59.9990000  0  6 17 16 25  3 24 20
  23560005.747    -1129799.919 5   -880362.707 3
  21239005.043   -21449568.419 8 -16713937.463 7
  24247693.671    -3963375.056 5  -3088341.060 1
  22560469.212   -12116682.320 6  -9441551.837 5
  22289397.471     5738479.250 7   4471551.942 6
  20287713.208   -26150294.465 9 -20376825.940 9
 92  4 12  5 11 29.9990000  0  6 17 16 25  3 24 20
  23541660.247    -1226247.041 5   -955516.188 3
  21234920.670   -21471022.178 8 -16730654.657 7
  24245600.520    -3974386.630 5  -3096921.481 2
  22548640.001   -12178838.247 6  -9489984.971 5
  22303441.249     5812296.811 7   4529072.120 5
  20285230.627   -26163349.759 9 -20386998.896 9
 92  4 12  5 11 59.9990000  0  6 17 16 25  3 24 20
  23523339.931    -1322509.302 5  -1030525.590 4
  21230951.119   -21491896.542 8 -16746920.362 7
  24243614.395    -3984839.190 5  -3105066.287 2
  22536824.281   -12240936.814 6  -9538373.416 5
  22317515.606     5886252.822 7   4586700.166 6
  20282857.170   -26175812.511 9 -20396710.118 9
 92  4 12  5 12 29.9990000  0  6 17 16 25  3 24 20
  23505053.490    -1418572.724 5  -1105380.062 2
  21227086.194   -21512188.138 8 -16762731.966 7
  24241726.901    -3994735.487 5  -3112777.668 2
  22525015.457   -12302977.634 6  -9586716.856 4
  22331613.945     5960326.508 7   4644419.910 6
  20280599.733   -26187681.220 9 -20405958.457 9
 92  4 12  5 12 59.9990000  0  6 17 16 25  3 24 20
  23486819.214    -1514440.950 5  -1180082.461 4
  21223340.887   -21531887.177 8 -16778081.845 7
  24239944.036    -4004083.972 5  -3120062.198 3
  22513220.121   -12364962.853 6  -9635016.960 4
  22345730.273     6034509.156 7   4702224.552 5
  20278454.118   -26198957.304 9 -20414745.010 9
 92  4 12  5 13 29.9990000  0  6 17 16 25  3 24 20
  23468614.616    -1610096.448 5  -1254619.086 4
  21219703.205   -21550996.336 8 -16792972.064 6
  24238276.291    -4012906.771 6  -3126937.025 1
  22501434.981   -12426892.690 6  -9683273.928 5
  22359869.984     6108800.897 7   4760114.217 5
  20276420.626   -26209640.396 9 -20423069.486 9
 92  4 12  5 13 59.9990000  0  6 17 16 25  3 24 20
  23450454.688    -1705513.676 5  -1328970.016 3
  21216180.344   -21569512.771 8 -16807400.432 7
  24236682.294    -4021227.838 5  -3133420.957 1
  22489662.431   -12488767.100 6  -9731487.700 4
  22374022.287     6183192.207 7   4818081.459 5
  20274500.455   -26219729.537 9 -20430931.150 9
 92  4 12  5 14 29.9990000  0  6 17 16 25  3 24 20
  23432340.328    -1800684.386 5  -1403128.886 3
  21212767.807   -21587443.353 8 -16821372.289 7
  24235198.321    -4029025.974 5  -3139497.404 2
  22477895.577   -12550582.613 6  -9779655.577 5
  22388199.172     6257700.053 7   4876139.508 5
  20272698.703   -26229220.792 9 -20438326.926 9
 92  4 12  5 14 59.9990000  0  6 17 16 25  3 24 20
  23414276.933    -1895611.488 5  -1477097.914 2
  21209468.890   -21604778.845 8 -16834880.440 7
  24233826.771    -4036300.947 6  -3145166.178 2
  22466142.213   -12612339.641 6  -9827777.877 5
  22402404.538     6332344.397 7   4934303.914 6
  20271001.577   -26238114.089 9 -20445256.765 9
 92  4 12  5 15 29.9990000  0  6 17 16 25  3 24 20
  23396252.212    -1990291.411 5  -1550874.345 3
  21206280.598   -21621523.653 8 -16847928.311 7
  24232526.571    -4043043.846 5  -3150420.337 2
  22454404.140   -12674036.756 6  -9875853.492 4
  22416634.487     6407113.396 7   4992565.458 6
  20269422.870   -26246407.256 9 -20451718.974 9
 92  4 12  5 15 59.9990000  0  6 17 16 25  3 24 20
  23378290.746    -2084746.226 5  -1624475.369 2
  21203207.724   -21637682.787 8 -16860519.824 7
  24231358.280    -4049233.546 5  -3155243.436 4
  22442672.960   -12735679.208 6  -9923886.507 5
  22430880.625     6481993.024 7   5050913.218 6
  20267958.685   -26254104.199 9 -20457716.585 9
 92  4 12  5 16 29.9990000  0  6 17 16 25  3 24 20
  23360360.159    -2178984.346 5  -1697907.494 2
  21200244.576   -21653251.285 8 -16872651.102 7
  24230283.824    -4054859.312 5  -3159627.160 3
  22430957.072   -12797266.271 7  -9971876.371 5
  22445150.445     6556974.854 7   5109340.601 5
  20266608.718   -26261204.583 9 -20463249.340 9
 92  4 12  5 16 59.9990000  0  6 17 16 25  3 24 20
  23342461.950    -2273009.345 5  -1771173.609 2
  21197396.548   -21668217.905 8 -16884313.380 7
  24229319.991    -4059942.616 5  -3163588.158 2
  22419246.279   -12858794.694 7 -10019820.536 5
  22459434.357     6632047.516 7   5167838.777 6
  20265372.975   -26267704.308 9 -20468314.070 9
 92  4 12  5 17 29.9990000  0  6 17 16 25  3 24 20
  23324610.508    -2366821.984 5  -1844274.227 2
  21194660.941   -21682585.502 8 -16895508.885 7
  24228461.685    -4064471.957 5  -3167117.471 2
  22407549.277   -12920263.209 7 -10067718.019 5
  22473739.853     6707207.959 7   5226405.347 6
  20264250.552   -26273601.660 9 -20472909.402 9
 92  4 12  5 17 59.9990000  0  6 17 16 25  3 24 20
  23306802.836    -2460425.061 5  -1917211.581 2
  21192044.053   -21696350.412 8 -16906234.764 8
  24227694.216    -4068458.680 5  -3170223.981 1
  22395863.966   -12981671.693 7 -10115568.734 4
  22488062.738     6782481.602 7   5285060.125 6
  20263240.251   -26278895.792 8 -20477034.695 9
 92  4 12  5 18 29.9990000  0  6 17 16 25  3 24 20
  23289026.043    -2553814.178 5  -1989982.187 2
  21189535.389   -21709528.004 8 -16916503.005 8
  24227034.073    -4071927.409 5  -3172926.893 3
  22384189.748   -13043021.080 7 -10163373.393 5
  22502411.404     6857883.443 7   5343814.792 6
  20262351.966   -26283587.632 9 -20480690.672 9
 92  4 12  5 18 59.9990000  0  6 17 16 25  3 24 20
  23271294.518    -2646993.860 5  -2062589.594 2
  21187136.750   -21722135.053 8 -16926326.653 7
  24226473.461    -4074882.007 5  -3175229.141 1
  22372528.420   -13104308.081 7 -10211129.442 4
  22516788.251     6933431.667 7   5402683.522 5
  20261572.505   -26287673.271 9 -20483874.283 9
 92  4 12  5 19 29.9990000  0  5 17 16 25  3 24
  23253605.264    -2739961.919 5  -2135032.136 3
  21184841.839   -21734172.759 8 -16935706.664 8
  24226012.980    -4077320.425 5  -3177129.187 1
  22360873.989   -13165537.048 7 -10258840.269 5
  22531192.080     7009124.461 7   5461664.891 6
 92  4 12  5 19 59.9990000  0  6 17 16 25  3 24 20
  23235957.382    -2832703.373 5  -2207298.078 3
  21182663.847   -21745639.632 8 -16944641.875 7
  24225644.235    -4079254.039 5  -3178635.877 2
  22349237.545   -13226701.651 7 -10306500.943 4
  22545625.588     7084953.662 7   5520752.579 5
  20260361.344       -2151.99919     -1650.370 9
 92  4 12  5 20 29.9990000  0  6 17 16 25  3 24 20
  23218344.874    -2925211.607 5  -2279382.303 1
  21180590.782   -21756535.634 8 -16953132.235 7
  24225369.326    -4080674.442 5  -3179742.645 2
  22337609.195   -13287808.382 7 -10354116.533 5
  22560071.988     7160876.479 7   5579913.200 5
  20259929.942       -4423.927 8     -3420.685 9
 92  4 12  5 20 59.9990000  0  6 17 16 25  3 24 20
  23200792.626    -3017473.086 5  -2351274.236 3
  21178629.540   -21766831.590 8 -16961155.041 7
  24225198.445    -4081572.413 5  -3180442.362 1
  22325994.036   -13348854.561 7 -10401684.943 5
  22574536.074     7236880.168 7   5639136.845 5
  20259613.061       -6090.627 8     -4719.409 9
 92  4 12  5 21 29.9990000  0  6 17 16 25  3 24 20
  23183286.844    -3109483.562 5  -2422970.605 2
  21176790.313   -21776509.521 8 -16968696.262 7
  24225134.589    -4081948.936 5  -3180735.758 1
  22314384.273   -13409838.479 7 -10449204.825 4
  22589010.653     7312958.924 7   5698418.979 6
  20259410.402       -7149.892 8     -5544.813 9
 92  4 12  5 21 59.9990000  0  6 17 16 25  3 24 20
  23165832.627    -3201238.209 5  -2494467.632 2
  21175061.410   -21785568.456 8 -16975755.151 7
  24225155.874    -4081792.561 5  -3180613.923 1
  22302795.496   -13470757.344 7 -10496674.028 4
  22603499.024     7389111.702 7   5757758.795 5
  20259325.261       -7598.763 8     -5894.576 9
 92  4 12  5 22 29.9990000  0  6 17 16 25  3 24 20
  23148407.191    -3292754.489 5  -2565778.906 4
  21173458.120   -21794009.320 8 -16982332.427 7
  24225292.879    -4081089.543 5  -3180066.073 1
  22291212.715   -13531616.608 7 -10544096.772 5
  22618010.477     7465348.726 7   5817164.255 4
  20259355.240       -7442.559 8     -5772.865 9
 92  4 12  5 22 59.9990000  0  6 17 16 25  3 24 20
  23131040.514    -3384049.451 5  -2636917.738 3
  21171967.252   -21801841.312 8 -16988435.256 7
  24225532.113    -4079846.938 5  -3179097.782 2
  22279642.225   -13592413.701 7 -10591471.092 6
  22632537.820     7541694.775 7   5876654.672 4
  20259503.338       -6678.466 8     -5177.482 9
 92  4 12  5 23 29.9990000  0  6 17 16 25  3 24 20
  23113703.516    -3475134.996 5  -2707893.400 3
  21170590.605   -21809081.590 8 -16994077.016 8
  24225875.675    -4078061.379 5  -3177706.400 2
  22268087.324   -13653148.405 7 -10638796.796 5
  22647084.949     7618144.419 7   5936225.824 4
  20259759.361       -5306.010 8     -4108.040 9
 92  4 12  5 23 59.9990000  0  6 17 16 25  3 24 20
  23096411.487    -3566001.888 5  -2778698.653 3
  21169324.582   -21815736.765 8 -16999262.848 7
  24226311.573    -4075729.348 5  -3175889.244 2
  22256539.618   -13713819.794 7 -10686073.140 4
  22661650.066     7694684.785 7   5995867.662 4
  20260140.097       -3324.271 8     -2563.831 9
 92  4 12  5 24 29.9990000  0  6 17 16 25  3 24 20
  23079161.129    -3656649.500 5  -2849333.084 3
  21168168.282   -21821809.386 8 -17003994.741 7
  24226866.189    -4072878.921 5  -3173668.095 3
  22245005.103   -13774430.628 7 -10733302.316 6
  22676228.374     7771312.554 7   6055577.610 4
  20260632.956        -735.988 9      -546.991 9
 92  4 12  5 24 59.9990000  0  6 17 16 25  3 24 20
  23061959.638    -3747063.792 5  -2919785.687 3
  21167124.704   -21827293.092 8 -17008267.731 7
  24227496.354    -4069538.321 5  -3171065.056 2
  22233484.679   -13834977.744 7 -10780481.856 4
  22690828.866     7848022.150 7   6115351.299 5
  20261237.337        2461.828 8      1944.819 9
 92  4 12  5 25 29.9990000  0  6 17 16 25  3 24 20
  23044790.824    -3837233.169 5  -2990047.452 3
  21166196.248   -21832173.940 8 -17012070.969 8
  24228216.454    -4065704.478 5  -3168077.621 1
  22221977.146   -13895458.416 7 -10827609.615 5
  22705440.151     7924809.479 7   6175185.558 5
  20261964.334        6271.835 8      4913.649 9
 92  4 12  5 25 59.9990000  0  6 17 16 25  3 24 20
  23027687.064    -3927151.021 5  -3060113.225 2
  21165382.011   -21836451.499 8 -17015404.119 8
  24229053.476    -4061388.074 5  -3164714.185 2
  22210479.205   -13955878.335 7 -10874690.027 5
  22720072.121     8001675.012 7   6235080.769 5
  20262806.151       10688.313 8      8355.054 9
 92  4 12  5 26 29.9990000  0  6 17 16 25  3 24 20
  23010622.277    -4016817.470 5  -3129983.100 3
  21164684.694   -21840120.055 8 -17018262.717 7
  24229946.257    -4056585.433 5  -3160971.941 2
  22198997.453   -14016232.096 7 -10921718.901 5
  22734718.781     8078641.676 7   6295054.790 5
  20263763.688       15716.562 8     12273.165 9
 92  4 12  5 26 59.9990000  0  6 17 16 25  3 24 20
  22993603.359    -4106241.664 5  -3199664.190 2
  21164099.199   -21843187.715 8 -17020653.081 7
  24230967.350    -4051273.707 5  -3156832.875 2
  22187520.200   -14076521.174 7 -10968697.367 5
  22749380.132     8155711.724 7   6355109.350 5
  20264837.545       21354.757 9     16666.559 9
 92  4 12  5 27 29.9990000  0  6 17 16 25  3 24 20
  22976633.607    -4195417.747 5  -3269151.967 3
  21163630.324   -21845663.447 8 -17022582.201 7
  24232078.082    -4045425.641 5  -3152275.880 4
  22176059.733   -14136743.906 7 -11015624.136 6
  22764067.264     8232881.949 7   6415241.991 3
  20266025.023       27604.512 8     21536.494 9
 92  4 12  5 27 59.9990000  0  6 17 16 25  3 24 20
  22959719.017    -4284335.558 6  -3338438.496 4
  21163269.074   -21847560.727 8 -17024060.588 8
  24233292.241    -4039046.294 5  -3147304.992 1
  22164612.158   -14196902.378 7 -11062500.833 4
  22778772.984     8310150.370 7   6475451.120 5
  20267330.319       34463.738 8     26881.336 9
 92  4 12  5 28 29.9990000  0  6 17 16 25  3 24 20
  22942840.702    -4373008.176 6  -3407533.959 2
  21163017.248   -21848875.204 8 -17025084.839 7
  24234618.822    -4032133.140 5  -3141918.108 3
  22153175.976   -14256994.195 7 -11109325.592 5
  22793493.393     8387510.641 7   6535731.850 5
  20268754.034       41934.797 8     32702.931 9
 92  4 12  5 28 59.9990000  0  6 17 16 25  3 24 20
  22926014.251    -4461427.546 6  -3476432.089 3
  21162880.543   -21849592.015 8 -17025643.383 8
  24236025.748    -4024679.434 5  -3136109.976 2
  22141753.284   -14317017.186 7 -11156096.714 5
  22808228.792     8464950.667 7   6596074.689 5
  20270291.370       50019.083 8     39002.364 9
 92  4 12  5 29 29.9990000  0  6 17 16 25  3 24 20
  22909236.665    -4549592.325 6  -3545131.837 2
  21162859.258   -21849707.957 8 -17025733.758 8
  24237520.513    -4016708.986 4  -3129899.240 2
  22130344.082   -14376977.537 7 -11202819.032 4
  22822974.983     8542455.905 7   6656468.366 5
  20271945.024       58710.231 8     45774.685 9
 92  4 12  5 29 59.9990000  0  6 17 16 25  3 24 20
  22892513.043    -4637501.968 6  -3613632.791 2
  21162956.990   -21849197.336 8 -17025335.823 8
  24239155.581    -4008236.371 5  -3123297.191 1
  22118947.471   -14436871.050 7 -11249489.270 6
  22837739.762     8620028.447 7   6716914.455 5
  20273712.901       68012.100 8     53022.881 9
 92  4 12  5 30 29.9990000  0  6 17 16 25  3 24 20
  22875829.293    -4725155.641 6  -3681934.281 1
  21163175.539   -21848046.243 8 -17024438.864 8
  24240853.007    -3999265.320 5  -3116306.733 2
  22107562.553   -14496697.287 7 -11296107.086 5
  22852513.534     8697664.584 7   6777410.118 5
  20275601.293       77924.613 8     60746.910 9
 92  4 12  5 30 59.9990000  0  6 17 16 25  3 24 20
  22859202.803    -4812545.266 6  -3750030.016 3
  21163515.803   -21846262.999 8 -17023049.306 8
  24242683.540    -3989797.316 5  -3108929.019 3
  22096192.625   -14556457.595 7 -11342673.527 5
  22867295.700     8775371.541 7   6837960.958 5
  20277603.308       88445.936 8     68945.333 9
 92  4 12  5 31 29.9990000  0  6 17 16 25  3 24 20
  22842621.582    -4899677.715 6  -3817925.362 3
  21163970.588   -21843865.512 8 -17021181.114 8
  24244576.729    -3979841.879 5  -3101171.515 3
  22084833.488   -14616152.184 7 -11389188.745 5
  22882099.752     8853147.260 7   6898565.398 4
  20279720.441       99575.678 8     77617.850 9
 92  4 12  5 31 59.9990000  0  6 17 16 25  3 24 20
  22826093.724    -4986553.444 6  -3885620.675 3
  21164544.391   -21840860.118 8 -17018839.242 7
  24246534.373    -3969391.212 5  -3093028.154 2
  22073485.744   -14675778.433 7 -11435650.729 5
  22896910.398     8930994.615 7   6959225.649 4
  20281955.994      111315.917 8     86766.083 9
 92  4 12  5 32 29.9990000  0  6 17 16 25  3 24 20
  22809605.739    -5073175.621 6  -3953118.404 3
  21165225.519   -21837275.460 8 -17016045.996 7
  24248642.814    -3958428.525 5  -3084485.763 2
  22062148.492   -14735337.651 7 -11482060.476 5
  22911739.333     9008909.590 7   7019938.624 4
  20284304.868      123664.684 8     96388.475 9
 92  4 12  5 32 59.9990000  0  6 17 16 25  3 24 20
  22793164.521    -5159562.634 6  -4020432.896 4
  21166017.271   -21833121.889 8 -17012809.420 7
  24250826.202    -3946951.840 5  -3075542.922 2
  22050830.128   -14794830.396 7 -11528418.409 5
  22926579.959     9086891.226 6   7080703.513 3
  20286768.562      136620.799 8    106484.154 9
 92  4 12  5 33 29.9990000  0  6 17 16 25  3 24 20
  22776775.166    -5245711.110 6  -4087561.488 3
  21166916.049   -21828391.341 8 -17009123.267 7
  24253105.524    -3934959.077 5  -3066197.899 2
  22039520.758   -14854253.201 7 -11574721.857 6
  22941426.881     9164940.266 6   7141520.965 4
  20289353.073      150186.965 8    117055.178 9
 92  4 12  5 33 59.9990000  0  6 17 16 25  3 24 20
  22760425.085    -5331615.492 6  -4154499.896 3
  21167928.748   -21823074.528 8 -17004980.293 8
  24255489.774    -3922445.116 5  -3056446.739 1
  22028227.576   -14913605.281 7 -11620970.186 6
  22956298.985     9243056.837 6   7202390.998 3
  20292050.906      164363.686 8    128101.963 9
 92  4 12  5 34 29.9990000  0  6 17 16 25  3 24 20
  22744120.273    -5417293.895 6  -4221262.246 3
  21169051.171   -21817166.414 8 -17000376.560 8
  24257954.967    -3909421.267 5  -3046298.250 2
  22016947.285   -14972892.071 7 -11667167.655 5
  22971167.791     9321233.495 6   7263307.854 4
  20294860.860      179144.735 8    139619.657 9
 92  4 12  5 34 59.9990000  0  6 17 16 25  3 24 20
  22727858.631    -5502743.842 6  -4287846.545 3
  21170289.613   -21810651.379 8 -16995299.892 7
  24260534.682    -3895903.493 5  -3035764.929 2
  22005676.587   -15032110.131 7 -11713311.542 6
  22986056.384     9399473.975 6   7324274.469 4
  20297790.432      194532.715 8    151610.271 9
 92  4 12  5 35 29.9990000  0  6 17 16 25  3 24 20
  22711651.850    -5587943.792 6  -4354236.051 3
  21171645.874   -21803529.467 8 -16989750.346 7
  24263186.346    -3881900.425 5  -3024853.430 1
  21994420.879   -15091259.716 7 -11759402.094 6
  23000960.266     9477768.403 6   7385283.095 4
  20300835.424      210527.021 8    164073.356 9
 92  4 12  5 35 59.9990000  0  6 17 16 25  3 24 20
  22695479.847    -5672886.211 6  -4420424.880 2
  21173114.558   -21795804.456 8 -16983730.856 7
  24265945.036    -3867424.881 5  -3013573.793 2
  21983179.561   -15150337.860 7 -11805436.966 6
  23015868.945     9556111.469 6   7446329.636 4
  20303994.637      227129.496 8    177010.340 9
 92  4 12  5 36 29.9990000  0  6 17 16 25  3 24 20
  22679371.398    -5757571.687 6  -4486413.492 3
  21174701.360   -21787487.751 8 -16977250.306 7
  24268802.358    -3852485.581 5  -3001932.760 3
  21971950.835   -15209344.686 7 -11851416.266 5
  23030783.320     9634514.793 6   7507423.119 4
  20307268.370      244338.947 8    190420.306 9
 92  4 12  5 36 59.9990000  0  6 17 16 25  3 24 20
  22663305.820    -5841973.928 6  -4552181.428 3
  21176393.088   -21778593.981 8 -16970320.085 8
  24271718.439    -3837081.767 5  -2989929.860 2
  21960736.498   -15268279.186 7 -11897339.201 5
  23045718.981     9712991.357 6   7568573.685 5
  20310657.524      262156.090 8    204303.778 9
 92  4 12  5 37 29.9990000  0  6 17 16 25  3 24 20
  22647299.301    -5926090.977 6  -4617727.132 2
  21178193.342   -21769122.782 8 -16962939.924 8
  24274742.745    -3821208.351 5  -2977560.955 2
  21949535.953   -15327136.883 7 -11943202.312 5
  23060677.126     9791553.184 6   7629790.674 5
  20314163.897      280584.500 8    218663.572 9
 92  4 12  5 37 59.9990000  0  6 17 16 25  3 24 20
  22631344.047    -6009944.473 6  -4683067.466 5
  21180102.420   -21759079.643 8 -16955114.100 7
  24277862.686    -3804855.754 5  -2964818.673 3
  21938349.197   -15385923.553 7 -11989010.068 5
  23075636.470     9870203.939 6   7691076.963 5
  20317786.589      299616.817 8    233493.930 9
 92  4 12  5 38 29.9990000  0  6 17 16 25  3 24 20
  22615435.559    -6093538.057 6  -4748205.273 4
  21182124.521   -21748454.270 8 -16946834.583 7
  24281069.865    -3788013.452 5  -2951694.773 3
  21927175.632   -15444639.707 7 -12034762.875 5
  23090620.696     9948937.396 6   7752427.683 4
  20321525.001      319252.023 8    248794.080 9
 92  4 12  5 38 59.9990000  0  6 17 16 25  3 24 20
  22599577.438    -6176867.224 6  -4813137.042 5
  21184261.741   -21737220.162 8 -16938080.722 7
  24284357.390    -3770676.913 5  -2938185.762 2
  21916016.758   -15503282.087 7 -12080458.201 5
  23105613.916    10027736.786 6   7813829.808 4
  20325374.636      339492.398 8    264565.789 9
 92  4 12  5 39 29.9990000  0  6 17 16 25  3 24 20
  22583771.481    -6259941.054 6  -4877869.853 3
  21186521.576   -21725359.152 8 -16928838.374 8
  24287755.837    -3752841.115 5  -2924287.802 3
  21904871.373   -15561847.221 7 -12126093.327 5
  23120614.932    10106587.147 6   7875271.623 4
  20329342.988      360340.512 8    280811.060 9
 92  4 12  5 39 59.9990000  0  6 17 16 25  3 24 20
  22568011.990    -6342758.264 6  -4942402.708 4
  21188897.431   -21712868.295 8 -16919105.231 7
  24291246.920    -3734510.880 5  -2910004.444 2
  21893742.777   -15620335.985 7 -12171668.951 6
  23135632.735    10185478.405 6   7936745.337 4
  20333423.763      381794.282 9    297528.269 9
 92  4 12  5 40 29.9990000  0  6 17 16 25  3 24 20
  22552297.769    -6425316.910 6  -5006734.080 3
  21191396.502   -21699743.923 8 -16908878.438 8
  24294818.647    -3715706.303 5  -2895351.562 1
  21882624.374   -15678749.900 7 -12217186.259 6
  23150655.934    10264404.923 6   7998246.510 5
  20337619.958      403851.024 8    314715.323 9
 92  4 12  5 40 59.9990000  0  6 17 16 25  3 24 20
  22536641.408    -6507612.519 6  -5070860.475 5
  21194013.690   -21685997.641 8 -16898167.039 8
  24298492.304    -3696423.330 4  -2880325.872 1
  21871525.758   -15737083.378 7 -12262640.882 5
  23165684.531    10343380.132 6   8059785.612 3
  20341938.170      426515.488 9    332375.935 9
 92  4 12  5 41 29.9990000  0  6 17 16 25  3 24 20
  22521026.418    -6589649.816 6  -5134785.607 3
  21196741.502   -21671659.572 8 -16886994.507 8
  24302253.500    -3676668.140 5  -2864932.209 2
  21860438.833   -15795338.542 7 -12308034.481 5
  23180720.621    10422402.780 6   8121361.696 3
  20346364.905      449784.151 8    350507.345 9
 92  4 12  5 41 59.9990000  0  6 17 16 25  3 24 20
  22505461.493    -6671428.048 6  -5198508.861 4
  21199580.536   -21656742.585 8 -16875370.888 8
  24306083.049    -3656446.189 4  -2849174.858 2
  21849369.596   -15853516.076 7 -12353367.592 6
  23195769.004    10501467.886 6   8182970.870 5
  20350905.562      473654.997 8    369107.992 9
 92  4 12  5 42 29.9990000  0  6 17 16 25  3 24 20
  22489956.227    -6752939.910 6  -5262024.557 4
  21202528.995   -21641250.555 8 -16863299.163 8
  24310038.811    -3635746.285 5  -2833045.100 3
  21838310.852   -15911613.044 7 -12398637.914 6
  23210816.486    10580571.038 6   8244609.691 5
  20355563.737      498130.131 8    388179.506 9
 92  4 12  5 42 59.9990000  0  6 17 16 25  3 24 20
  22474498.628    -6834174.505 6  -5325324.205 4
  21205582.980   -21625201.132 8 -16850793.118 7
  24314069.820    -3614564.464 5  -2816539.761 2
  21827272.494   -15969629.909 7 -12443845.822 6
  23225882.855    10659713.683 6   8306279.267 5
  20360335.233      523207.370 8    407720.198 9
 92  4 12  5 43 29.9990000  0  6 17 16 25  3 24 20
  22459094.992    -6915131.603 6  -5388407.612 4
  21208745.491   -21608579.482 8 -16837841.176 7
  24318185.971    -3592904.362 4  -2799661.784 3
  21816248.525   -16027567.007 7 -12488991.573 5
  23240946.828    10738889.916 6   8367975.024 5
  20365220.651      548885.285 8    427728.952 9
 92  4 12  5 43 59.9990000  0  6 17 16 25  3 24 20
  22443736.924    -6995812.205 6  -5451275.577 4
  21212020.124   -21591366.791 8 -16824428.691 7
  24322404.650    -3570762.122 5  -2782408.087 2
  21805239.847   -16085421.090 7 -12534072.630 6
  23256023.091    10818111.229 6   8429705.887 4
  20370223.587      575165.777 9    448207.241 9
 92  4 12  5 44 29.9990000  0  6 17 16 25  3 24 20
  22428433.419    -7076216.084 6  -5513927.895 3
  21215408.079   -21573559.864 8 -16810553.157 8
  24326714.166    -3548152.586 4  -2764790.299 1
  21794243.759   -16143194.623 7 -12579090.937 5
  23271103.850    10897382.985 6   8491476.089 4
  20375340.145      602044.801 8    469151.920 9
 92  4 12  5 44 59.9990000  0  6 17 16 25  3 24 20
  22413191.070    -7156347.753 6  -5576368.114 4
  21218909.355   -21555154.238 8 -16796211.116 7
  24331098.931    -3525095.118 4  -2746823.403 3
  21783265.059   -16200888.627 7 -12624047.269 6
  23286197.801    10976699.637 6   8553281.259 4
  20380567.327      629520.303 8    490561.386 9
 92  4 12  5 45 29.9990000  0  6 17 16 25  3 24 20
  22397989.494    -7236215.209 6  -5638602.443 3
  21222529.049   -21536139.265 8 -16781394.249 8
  24335562.241    -3501595.462 4  -2728511.946 1
  21772301.649   -16258498.903 7 -12668938.358 6
  23301290.252    11056050.116 6   8615112.796 4
  20385908.729      657594.676 8    512437.520 9
 92  4 12  5 45 59.9990000  0  6 17 16 25  3 24 20
  22382841.881    -7315821.342 6  -5700633.150 5
  21226259.366   -21516529.730 8 -16766114.098 7
  24340115.189    -3477667.178 4  -2709866.575 2
  21761354.727   -16316025.391 7 -12713764.150 6
  23316406.988    11135441.732 6   8676976.389 4
  20391365.851      686266.570 8    534779.234 9
 92  4 12  5 46 29.9990000  0  6 17 16 25  3 24 20
  22367747.331    -7395154.579 6  -5762451.220 4
  21230104.504   -21496336.352 8 -16750378.988 8
  24344753.278    -3453310.100 4  -2690887.052 2
  21750423.395   -16373467.735 7 -12758524.389 7
  23331521.623    11214866.775 6   8738866.022 2
  20396933.896      715534.927 8    557585.738 9
 92  4 12  5 46 59.9990000  0  6 17 16 25  3 24 20
  22352703.145    -7474214.639 6  -5824056.404 4
  21234058.167   -21475562.677 8 -16734191.698 7
  24349470.213    -3428494.039 4  -2671549.860 3
  21739509.151   -16430823.281 7 -12803216.988 6
  23346644.354    11294333.058 6   8800787.801 3
  20402616.762      745400.725 9    580857.763 9
 92  4 12  5 47 29.9990000  0  6 17 16 25  3 24 20
  22337707.227    -7553003.587 6  -5885450.343 4
  21238121.254   -21454210.779 8 -16717553.847 8
  24354296.271    -3403202.065 5  -2651841.773
  21728614.093   -16488090.103 7 -12847840.454 6
  23361772.181    11373853.250 6   8862751.552 2
  20408414.749      775864.431 8    604595.701 9
 92  4 12  5 47 59.9990000  0  6 17 16 25  3 24 20
  22322766.770    -7631511.108 6  -5946624.982 5
  21242296.164   -21432274.484 8 -16700460.630 8
  24359188.285    -3377424.732 5  -2631755.634 2
  21717730.727   -16545268.025 7 -12892394.644 6
  23376916.198    11453433.938 6   8924762.472 3
  20414325.456      806924.625 9    628798.438 9
 92  4 12  5 48 29.9990000  0  6 17 16 25  3 24 20
  22307883.574    -7709724.544 6  -6007570.461 5
  21246580.198   -21409744.737 8 -16682904.979 7
  24364184.326    -3351146.315 4  -2611278.913 3
  21706871.046   -16602352.681 7 -12936876.162 6
  23392069.508    11533072.169 6   8986818.221 2
  20420349.486      838583.760 8    653467.872 9
 92  4 12  5 48 59.9990000  0  5 17 16  3 24 20
  22293056.438    -7787650.868 6  -6068292.246 4
  21250981.452   -21386622.075 8 -16664887.311 7
  21696025.154   -16659345.150 7 -12981285.855 6
  23407240.505    11612762.811 6   9048914.805 4
  20426487.437      870839.146 8    678601.924 9
 92  4 12  5 49 29.9990000  0  5 17 16  3 24 20
  22278283.565    -7865289.309 6  -6128789.673 4
  21255493.628   -21362917.274 8 -16646416.039 7
  21685199.049   -16716247.213 7 -13025625.093 6
  23422408.804    11692494.721 6   9111043.532 4
  20432739.609      903687.433 8    704197.971 9
 92  4 12  5 49 59.9990000  0  5 17 16  3 24 20
  22263561.057    -7942645.047 6  -6189066.827 4
  21260113.130   -21338632.705 8 -16627492.994 7
  21674385.835   -16773061.066 7 -13069895.601 6
  23437582.499    11772261.012 6   9173199.068 4
  20439101.804      937124.697 8    730252.970 9
 92  4 12  5 50 29.9990000  0  5 17 16  3 24 20
  22248889.215    -8019735.590 6  -6249137.311 4
  21264845.054   -21313776.316 8 -16608124.379 8
  21663591.208   -16829789.422 7 -13114099.498 7
  23452770.285    11852058.802 6   9235379.107 3
  20445578.520      971146.359 8    756763.338 9
 92  4 12  5 50 59.9990000  0  5 17 16  3 24 20
  22234269.536    -8096577.922 6  -6309014.410 4
  21269681.606   -21288351.285 8 -16588312.664 7
  21652811.570   -16886434.962 7 -13158238.858 6
  23467960.769    11931877.349 6   9297575.339 4
  20452159.264     1005747.629 8    783725.347 9
 92  4 12  5 51 29.9990000  0  5 17 16  3 24 20
  22219690.628    -8173183.231 6  -6368706.807 4
  21274629.080   -21262348.859 8 -16568051.029 8
  21642048.122   -16942996.332 7 -13202312.622 6
  23483151.852    12011715.125 5   9359786.566 3
  20458855.729     1040928.377 9    811138.896 9
 92  4 12  5 51 59.9990000  0  5 17 16  3 24 20
  22205155.790    -8249558.446 6  -6428219.919 5
  21279689.278   -21235762.196 8 -16547334.157 8
  21631298.464   -16999473.195 7 -13246320.547 6
  23498346.833    12091572.333 5   9422012.953 2
  20465660.418     1076686.757 8    839002.549 9
 92  4 12  5 52 29.9990000  0  5 17 16  3 24 20
  22190673.716    -8325676.291 6  -6487532.502 4
  21284860.098   -21208598.149 8 -16526167.363 8
  21620567.693   -17055862.922 7 -13290260.568 7
  23513549.609    12171446.435 6   9484252.481 4
  20472575.730     1113023.555 9    867316.924 9
 92  4 12  5 52 59.9990000  0  5 17 16  3 24 20
  22176241.408    -8401521.334 6  -6546632.486 4
  21290137.344   -21180862.745 8 -16504555.357 7
  21609855.808   -17112166.535 7 -13334133.495 6
  23528755.681    12251333.850 6   9546502.380 2
  20479598.968     1149935.813 8    896079.704 9
 92  4 12  5 53 29.9990000  0  5 17 16  3 24 20
  22161868.158    -8477066.922 6  -6605499.146 4
  21295521.618   -21152556.174 8 -16482498.280 7
  21599158.614   -17168381.009 7 -13377936.957 6
  23543954.559    12331243.257 6   9608769.415 4
  20486732.830     1187424.632 9    925291.748 9
 92  4 12  5 53 59.9990000  0  5 17 16  3 24 20
  22147549.770    -8552295.169 6  -6664118.509 4
  21301012.017   -21123699.562 8 -16460012.611 8
  21588477.608   -17224511.727 8 -13421675.146 6
  23559169.627    12411164.836 6   9671045.939 3
  20493976.715     1225482.285 9    954947.041 9
 92  4 12  5 54 29.9990000  0  5 17 16  3 24 20
  22133296.738    -8627202.888 7  -6722488.099 5
  21306610.341   -21094289.108 8 -16437095.373 7
  21577812.491   -17280557.947 7 -13465347.502 6
  23574379.596    12491094.008 6   9733328.389 2
  20501324.928     1264107.890 9    985044.900 9
 92  4 12  5 54 59.9990000  0  5 17 16  3 24 20
  22119095.269    -8701823.978 7  -6780634.347 4
  21312314.492   -21064322.062 8 -16413744.428 7
  21567163.863   -17336519.432 7 -13508953.833 6
  23589594.664    12571026.668 6   9795613.542 4
  20508782.865     1303299.246 9   1015583.598 9
 92  4 12  5 55 29.9990000  0  5 17 16  3 24 20
  22104950.461    -8776178.336 6  -6838572.757 5
  21318118.474   -21033804.371 8 -16389964.403 8
  21556528.725   -17392396.731 7 -13552494.557 7
  23604784.547    12650958.440 5   9857898.036 3
  20516347.828     1343054.178 8   1046561.445 9
 92  4 12  5 55 59.9990000  0  5 17 16  3 24 20
  22090844.627    -8850281.936 6  -6896315.772 5
  21324032.180   -21002739.876 8 -16365758.311 7
  21545913.374   -17448189.958 8 -13595969.782 7
  23620005.011    12730883.316 6   9920177.108 4
  20524021.616     1383370.155 8   1077976.462 9
 92  4 12  5 56 29.9990000  0  5 17 16  3 24 20
  22076784.061    -8924146.122 6  -6953872.233 3
  21330047.816   -20971124.934 8 -16341123.294 7
  21535308.816   -17503896.738 7 -13639377.637 6
  23635215.581    12810811.607 6   9982458.882 3
  20531798.531     1424246.897 8   1109828.440 9
 92  4 12  5 56 59.9990000  0  5 17 16  3 24 20
  22062779.555    -8997764.291 6  -7011236.991 5
  21336166.280   -20938974.882 8 -16316071.310 7
  21524725.842   -17559519.015 8 -13682719.640 7
  23650426.750    12890749.521 6  10044748.146 4
  20539685.172     1465680.449 8   1142114.302 9
 92  4 12  5 57 29.9990000  0  5 17 16  3 24 20
  22048821.819    -9071109.315 7  -7068388.907 3
  21342384.574   -20906285.400 8 -16290598.979 8
  21514157.558   -17615055.772 8 -13725995.006 6
  23665640.917    12970702.899 6  10107049.431 3
  20547673.441     1507669.673 8   1174833.156 9
 92  4 12  5 57 59.9990000  0  5 17 16  3 24 20
  22034921.342    -9144158.519 7  -7125310.301 5
  21348711.095   -20873051.344 8 -16264702.328 8
  21503606.063   -17670505.406 8 -13769202.481 6
  23680857.183    13050672.680 6  10169363.545 3
  20555769.637     1550213.615 8   1207984.256 9
 92  4 12  5 58 29.9990000  0  5 17 16  3 24 20
  22021073.029    -9216914.931 7  -7182003.574 5
  21355138.045   -20839266.308 8 -16238376.334 7
  21493072.555   -17725867.504 8 -13812341.753 7
  23696094.136    13130670.067 6  10231699.151 2
  20563970.459     1593310.594 8   1241566.285 9
 92  4 12  5 58 59.9990000  0  5 17 16  3 24 20
  22007287.372    -9289374.016 7  -7238465.145 4
  21361672.022   -20804926.484 8 -16211618.034 7
  21482556.435   -17781137.916 8 -13855409.579 6
  23711308.903    13210689.014 6  10294051.576 3
  20572275.910     1636962.438 8   1275580.695 9
 92  4 12  5 59 29.9990000  0  5 17 16  3 24 20
  21993553.280    -9361541.604 7  -7294699.588 5
  21368315.723   -20770020.948 8 -16184418.917 8
  21472055.006   -17836309.546 8 -13898400.440 6
  23726546.454    13290723.831 6  10356416.328 2
  20580692.283     1681173.899 8   1310031.167 9
 92  4 12  5 59 59.9990000  0  5 17 16  3 24 20
  21979870.753    -9433445.138 7  -7350728.265 4
  21375062.852   -20734565.150 8 -16156791.041 8
  21461573.062   -17891384.096 8 -13941315.651 6
  23741776.510    13370771.379 6  10418791.041 3
  20589209.986     1725940.491 9   1344914.201 9
 92  4 12  6  0 29.9990000  0  5 17 16  3 24 20
  21966233.792    -9505108.393 7  -7406569.708 5
  21381916.408   -20698563.421 8 -16128737.749 7
  21451112.704   -17946358.356 8 -13984152.701 6
  23757007.466    13450834.027 5  10481177.535 3
  20597834.116     1771263.065 9   1380230.474 9
 92  4 12  6  0 59.9990000  0  5 17 16  3 24 20
  21952648.098    -9576523.651 7  -7462217.925 5
  21388867.096   -20662024.911 8 -16100266.189 8
  21440671.232   -18001229.994 8 -14026909.788 6
  23772250.713    13530899.944 5  10543566.529 3
  20606564.372     1817141.410 8   1415979.809 9
 92  4 12  6  1 29.9990000  0  5 17 16  3 24 20
  21939101.076    -9647688.070 7  -7517670.673 4
  21395924.810   -20624945.420 8 -16071373.073 8
  21430251.046   -18055998.220 8 -14069586.307 7
  23787487.065    13610968.313 5  10605957.476 1
  20615397.157     1863574.184 8   1452161.180 9
 92  4 12  6  1 59.9990000  0  5 17 16  3 24 20
  21925608.018    -9718587.377 7  -7572916.836 4
  21403084.153   -20587322.593 8 -16042056.592 7
  21419850.346   -18110657.887 8 -14112178.229 6
  23802723.117    13691047.083 5  10668356.435 1
  20624341.166     1910563.586 8   1488776.275 9
 92  4 12  6  2 29.9990000  0  5 17 16  3 24 20
  21912178.815    -9789188.920 7  -7627930.984 5
  21410350.822   -20549149.723 8 -16012311.500 7
  21409467.034   -18165211.393 8 -14154687.418 7
  23817978.956    13771129.833 5  10730758.565 2
  20633386.804     1958104.686 8   1525821.271 9
 92  4 12  6  2 59.9990000  0  5 17 16  3 24 20
  21898802.075    -9859468.464 7  -7682694.234 4
  21417719.422   -20510423.831 8 -15982135.480 7
  21399106.207   -18219660.335 8 -14197115.142 7
  23833198.220    13851212.656 5  10793160.752 2
  20642538.568     2006193.231 8   1563292.841 9
 92  4 12  6  3 29.9990000  0  5 17 16  3 24 20
  21885487.392    -9929428.918 7  -7737208.828 5
  21425194.746   -20471133.701 8 -15951519.782 8
  21388765.166   -18273997.479 8 -14239455.746 7
  23848434.572    13931302.235 5  10855568.187 1
  20651794.660     2054833.798 8   1601194.554 8
 92  4 12  6  3 59.9990000  0  5 17 16  3 24 20
  21872232.068    -9999084.249 7  -7791485.665 5
  21432777.697   -20431284.370 8 -15920468.369 7
  21378446.910   -18328222.773 8 -14281709.208 7
  23863675.121    14011399.340 5  10917981.502 3
  20661156.879     2104023.905 8   1639524.490 9
 92  4 12  6  4 29.9990000  0  5 17 16  3 24 20
  21859032.207   -10068448.860 7  -7845535.974 3
  21440465.874   -20390880.177 8 -15888984.579 8
  21368149.937   -18382334.040 8 -14323873.802 6
  23878922.267    14091508.287 5  10980404.005 2
  20670621.926     2153762.808 8   1678282.044 9
 92  4 12  6  4 59.9990000  0  5 17 16  3 24 20
  21845882.111   -10137563.329 7  -7899391.352 5
  21448255.981   -20349930.713 8 -15857075.892 6
  21357871.553   -18436333.036 8 -14365950.911 7
  23894188.897    14171625.553 5  11042833.052 2
  20680188.004     2204045.868 8   1717463.627 9
 92  4 12  6  5 29.9990000  0  5 17 16  3 24 20
  21832772.187   -10206440.178 7  -7953061.587 5
  21456154.614   -20308438.663 8 -15824744.435 8
  21347620.150   -18490216.375 8 -14407937.913 7
  23909426.748    14251752.641 5  11105269.713 3
  20689862.307     2254873.918 8   1757069.864 9
 92  4 12  6  5 59.9990000  0  5 17 16  3 24 20
  21819715.325   -10275067.865 7  -8006537.661 5
  21464146.481   -20266424.079 8 -15792005.798 7
  21337389.133   -18543990.657 8 -14449839.928 7
  23924660.402    14331888.715 5  11167713.388 2
  20699636.440     2306237.647 8   1797093.526 8
 92  4 12  6  6 29.9990000  0  5 17 16  3 24 20
  21806711.228   -10343413.751 7  -8059794.150 5
  21472240.577   -20223886.375 8 -15758859.525 7
  21327175.503   -18597648.927 8 -14491651.537 7
  23939932.130    14412039.946 5  11230168.860 1
  20709514.001     2358140.988 8   1837537.661 9
 92  4 12  6  6 59.9990000  0  5 17 16  3 24 20
  21793758.994   -10411467.441 7  -8112822.958 5
  21480439.001   -20180828.091 8 -15725307.602 7
  21316987.357   -18651194.334 8 -14533375.213 7
  23955172.379    14492185.193 5  11292619.671 3
  20719491.995     2410577.809 8   1878397.488 8
 92  4 12  6  7 29.9990000  0  5 17 16  3 24 20
  21780870.317   -10479199.787 7  -8165601.350 5
  21488728.562   -20137256.638 8 -15691355.843 8
  21306820.495   -18704624.957 8 -14575009.432 7
  23970427.318    14572317.587 5  11355060.467 1
  20729572.215     2463547.167 8   1919672.285 9
 92  4 12  6  7 59.9990000  0  5 17 16  3 24 20
  21768044.297   -10546601.846 7  -8218122.392 6
  21497119.754   -20093168.456 8 -15657001.410 7
  21296677.317   -18757936.554 8 -14616550.910 7
  23985668.767    14652445.939 6  11417498.121 3
  20739751.069     2517050.798 8   1961363.406 8
 92  4 12  6  8 29.9990000  0  5 17 16  3 24 20
  21755278.234   -10613694.487 7  -8270402.316 4
  21505608.377   -20048552.263 8 -15622235.550 7
  21286551.527   -18811132.829 8 -14658002.538 8
  24000903.919    14732554.036 5  11479920.039 4
  20750033.650     2571081.540 8   2003465.263 9
 92  4 12  6  8 59.9990000  0  5 17 16  3 24 20
  21742562.837   -10680499.045 7  -8322457.761 5
  21514197.731   -20003411.914 8 -15587061.253 7
  21276451.519   -18864214.570 8 -14699364.915 7
  24016155.861    14812652.103 6  11542334.079 4
  20760415.163     2625635.752 8   2045975.010 8
 92  4 12  6  9 29.9990000  0  5 17 16  3 24 20
  21729903.201   -10747021.621 7  -8374293.482 5
  21522887.515   -19957756.367 8 -15551485.514 7
  21266372.197   -18917179.869 8 -14740636.548 7
  24031396.110    14892756.047 5  11604752.713 4
  20770897.706     2680712.567 8   2088891.984 8
 92  4 12  6  9 59.9990000  0  5 17 16  3 24 20
  21717295.130   -10813281.844 7  -8425924.767 5
  21531672.933   -19911580.024 8 -15515503.946 7
  21256313.860   -18970026.289 8 -14781815.544 7
  24046647.452    14972874.153 6  11667182.383 2
  20781476.183     2736310.887 8   2132215.320 9
 92  4 12  6 10 29.9990000  0  5 17 16  3 24 20
  21704738.623   -10879279.714 7  -8477351.632 5
  21540553.985   -19864900.376 8 -15479130.195 7
  21246281.905   -19022756.437 8 -14822903.944 7
  24061880.207    15052997.688 5  11729616.299 2
  20792155.390     2792424.841 8   2175940.447 8
 92  4 12  6 10 59.9990000  0  5 17 16  3 24 20
  21692230.681   -10945002.534 7  -8528564.166 5
  21549532.170   -19817730.546 8 -15442374.481 7
  21236267.637   -19075369.459 8 -14863901.080 8
  24077140.842    15133128.348 6  11792055.716 2
  20802930.531     2849052.887 8   2220066.169 8
 92  4 12  6 11 29.9990000  0  5 17 16  3 24 20
  21679780.600   -11010438.342 7  -8579553.048 5
  21558603.289   -19770059.492 8 -15405228.203 7
  21226280.952   -19127863.443 8 -14904805.473 8
  24092381.691    15213247.593 5  11854486.266 3
  20813804.303     2906193.648 8   2264591.408 9
 92  4 12  6 11 59.9990000  0  5 17 16  3 24 20
  21667388.379   -11075571.597 7  -8630306.158 5
  21567778.138   -19721857.717 8 -15367668.381 7
  21216314.052   -19180229.609 8 -14945610.257 8
  24107628.236    15293358.083 5  11916909.963 3
  20824776.708     2963852.421 8   2309520.293 9
 92  4 12  6 12 29.9990000  0  5 17 16  3 24 20
  21655048.022   -11140402.260 7  -8680823.512 5
  21577050.719   -19673130.674 8 -15329699.267 7
  21206374.733   -19232474.732 8 -14986320.717 8
  24122878.978    15373447.116 6  11979316.958 2
  20835844.145     3022019.301 8   2354845.104 9
 92  4 12  6 12 59.9990000  0  5 17 16  3 24 20
  21642765.226   -11204946.416 7  -8731117.595 5
  21586422.231   -19623871.966 8 -15291315.854 6
  21196454.899   -19284596.560 8 -15026935.099 7
  24138105.737    15453512.018 5  12041705.184 4
  20847008.117     3080693.593 8   2400565.316 8
 92  4 12  6 13 29.9990000  0  5 17 16  3 24 20
  21630530.695   -11269223.745 7  -8781203.767 5
  21595899.870   -19574083.093 8 -15252519.337 6
  21186560.849   -19336591.862 8 -15067450.888 7
  24153341.490    15533559.659 6  12104079.953 3
  20858272.518     3139874.613 8   2446680.364 9
 92  4 12  6 13 59.9990000  0  5 17 16  3 24 20
  21618350.727   -11333245.556 7  -8831090.824 6
  21605467.147   -19523791.149 8 -15213330.804 7
  21176687.784   -19388463.530 8 -15107870.349 8
  24168570.347    15613591.264 5  12166442.203 1
  20869629.556     3199556.387 8   2493185.627 8
 92  4 12  6 14 29.9990000  0  5 17 16  3 24 20
  21606216.627   -11397015.408 7  -8880781.569 5
  21615125.260   -19473034.040 8 -15173779.807 7
  21166840.801   -19440212.078 8 -15148193.869 8
  24183801.003    15693603.626 5  12228789.482 1
  20881081.928     3259735.340 8   2540078.284 8
 92  4 12  6 14 59.9990000  0  5 17 16  3 24 20
  21594130.795   -11460516.751 7  -8930263.078 6
  21624870.613   -19421816.096 8 -15133869.711 7
  21157018.701   -19491834.270 8 -15188418.924 7
  24199017.569    15773602.370 5  12291126.111 2
  20892626.335     3320411.333 8   2587358.257 8
 92  4 12  6 15 29.9990000  0  5 17 16  3 24 20
  21582103.121   -11523727.519 7  -8979518.167 6
  21634706.805   -19370133.418 8 -15093597.488 6
  21147219.085   -19543327.675 8 -15228543.640 9
  24214254.521    15853593.879 5  12353457.084 2
  20904268.476     3381583.697 8   2635024.997 8
 92  4 12  6 15 59.9990000  0  5 17 16  3 24 20
  21570132.708   -11586625.461 7  -9028529.501 6
  21644633.832   -19317981.957 8 -15052959.989 6
  21137444.352   -19594695.836 8 -15268570.765 8
  24229465.390    15933566.923 5  12415773.730 2
  20916000.854     3443245.483 8   2683073.113 8
 92  4 12  6 16 29.9990000  0  5 17 16  3 24 20
  21558224.652   -11649206.589 7  -9077293.966 6
  21654646.900   -19265349.465 8 -15011947.643 6
  21127692.403   -19645936.861 8 -15308498.811 8
  24244678.358    16013522.614 5  12478076.855 2
  20927826.767     3505394.472 8   2731500.863 8
 92  4 12  6 16 59.9990000  0  5 17 16  3 24 20
  21546369.059   -11711489.914 7  -9125826.377 6
  21664758.000   -19212215.472 8 -14970544.523 6
  21117964.737   -19697056.007 8 -15348331.899 8
  24259882.633    16093462.498 5  12540367.631 2
  20939745.316     3568022.529 8   2780301.914 8
 92  4 12  6 17 29.9990000  0  5 17 16  3 24 20
  21534572.226   -11773495.599 7  -9174142.439 5
  21674960.837   -19158584.505 8 -14928754.149 7
  21108261.955   -19748052.456 8 -15388069.372 8
  24275097.400    16173377.832 5  12602639.263 1
  20951755.601     3631126.576 8   2829473.875 8
 92  4 12  6 17 59.9990000  0  5 17 16  3 24 20
  21522825.458   -11835231.504 7  -9222248.304 5
  21685261.106   -19104473.964 8 -14886590.084 6
  21098581.056   -19798923.086 8 -15427708.810 8
  24290299.875    16253272.014 5  12664894.444
  20963854.326     3694706.196 8   2879016.403 8
 92  4 12  6 18 29.9990000  0  5 17 16  3 24 20
  21511123.059   -11896721.812 7  -9270162.785 5
  21695646.216   -19049902.743 8 -14844067.058 7
  21088924.741   -19849670.110 8 -15467251.928 8
  24305493.057    16333145.600 4  12727133.612 1
  20976041.489     3758755.720 8   2928925.098 8
 92  4 12  6 18 59.9990000  0  5 17 16  3 24 20
  21499467.728   -11957964.370 7  -9317884.220 6
  21706120.666   -18994867.251 8 -14801182.268 6
  21079291.210   -19900292.390 8 -15506697.838 8
  24320678.744    16412995.292 5  12789354.154 2
  20988318.890     3823273.010 8   2979198.279 8
 92  4 12  6 19 29.9990000  0  5 17 16  3 24 20
  21487865.160   -12018948.078 7  -9365403.957 5
  21716679.056   -18939390.404 8 -14757953.549 7
  21069680.763   -19950793.453 8 -15546049.295 8
  24335854.838    16492807.797 5  12851545.710 1
  21000680.231     3888250.918 8   3029830.401 7
 92  4 12  6 19 59.9990000  0  6 17 23 16  3 24 20
  21476313.258   -12079663.727 7  -9412714.813 6
  24174793.438     -309367.713 5   -241065.497 2
  21727321.089   -18883453.307 7 -14714366.189 7
  21060095.799   -20001167.016 8 -15585301.409 8
  24351064.509    16572601.319 5  12913722.419 2
  21013135.109     3953692.264 8   3080823.629 8
 92  4 12  6 20 29.9990000  0  6 17 23 16  3 24 20
  21464806.924   -12140115.345 7  -9459819.923 6
  24153527.061     -421071.165 5   -328106.987 3
  21738056.057   -18827027.456 7 -14670397.988 7
  21050534.219   -20051412.377 8 -15624453.620 8
  24366254.393    16652369.336 5  12975879.262 2
  21025676.327     4019593.904 8   3132175.522 8
 92  4 12  6 20 59.9990000  0  6 17 23 16  3 24 20
  21453356.350   -12200294.949 7  -9506713.086 6
  24132283.768     -532716.477 5   -415103.207 3
  21748886.059   -18770110.129 7 -14626046.829 6
  21040996.321   -20101531.242 8 -15663507.263 8
  24381412.799    16732102.458 5  13038009.003 2
  21038306.284     4085950.328 8   3183881.807 8
 92  4 12  6 21 29.9990000  0  6 17 23 16  3 24 20
  21441950.446   -12260206.264 7  -9553397.190 6
  24111044.372     -644310.850 5   -502059.690 2
  21759806.900   -18712721.481 7 -14581328.395 6
  21031484.806   -20151522.895 8 -15702461.782 9
  24396576.002    16811799.807 5  13100110.779 3
  21051019.882     4152758.333 8   3235939.978 8
 92  4 12  6 21 59.9990000  0  6 17 23 16  3 24 20
  21430603.601   -12319861.618 7  -9599881.830 5
  24089822.663     -755848.147 5   -588971.714 4
  21770817.676   -18654863.891 7 -14536244.560 6
  21021993.376   -20201394.772 8 -15741322.952 8
  24411740.104    16891448.168 5  13162174.379 2
  21063814.424     4220007.377 8   3288341.808 8
 92  4 12  6 22 29.9990000  0  6 17 23 16  3 24 20
  21419300.227   -12379250.219 7  -9646158.627 6
  24068621.640     -867319.912 5   -675832.704 3
  21781913.895   -18596562.572 7 -14490814.943 6
  21012527.729   -20251140.898 8 -15780086.160 9
  24426884.420    16971029.213 5  13224185.573 2
  21076696.507     4287699.409 8   3341088.816 8
 92  4 12  6 22 59.9990000  0  6 17 23 16  3 24 20
  21408054.413   -12438351.879 7  -9692211.829 6
  24047407.726     -978715.110 4   -762634.012 2
  21793088.358   -18537842.994 7 -14445059.421 6
  21003087.265   -20300753.492 8 -15818745.310 8
  24442022.140    17050555.041 5  13286153.768 2
  21089662.231     4355838.839 8   3394184.448 8
 92  4 12  6 23 29.9990000  0  6 17 23 16  3 24 20
  21396863.159   -12497175.701 7  -9738048.532 6
  24026236.982    -1090015.782 5   -849361.654 4
  21804340.169   -18478706.216 7 -14398978.804 6
  20993672.583   -20350231.359 8 -15857299.469 8
  24457139.774    17130038.082 5  13348088.514 1
  21102712.796     4424422.489 8   3447626.225 6
 92  4 12  6 23 59.9990000  0  6 17 23 16  3 24 20
  21385719.275   -12555726.108 7  -9783672.199 6
  24005069.836    -1201214.419 4   -936009.825 3
  21815674.423   -18419145.920 7 -14352568.184 7
  20984280.685   -20399576.368 8 -15895750.104 8
  24472263.404    17209487.299 5  13409996.978 2
  21115848.202     4493444.725 8   3501409.769 8
 92  4 12  6 24 29.9990000  0  6 17 23 16  3 24 20
  21374627.253   -12614008.309 7  -9829086.859 7
  23983945.260    -1312306.181 5  -1022574.713 2
  21827087.222   -18359165.166 7 -14305829.928 6
  20974916.068   -20448783.665 8 -15934093.432 8
  24487383.138    17288919.222 5  13471891.995 3
  21129065.153     4562906.587 8   3555535.864 8
 92  4 12  6 24 59.9990000  0  6 17 23 16  3 24 20
  21363589.794   -12672023.229 7  -9874293.259 6
  23962810.491    -1423290.487 5  -1109055.860 2
  21838585.762   -18298742.392 7 -14258747.236 7
  20965582.029   -20497846.439 8 -15972324.135 8
  24502491.778    17368364.114 5  13533797.024 1
  21142368.143     4632811.009 8   3610006.817 8
 92  4 12  6 25 29.9990000  0  5 17 23 16  3 20
  21352599.703   -12729779.953 7  -9919298.458 6
  23941713.796    -1534176.732 5  -1195460.621 2
  21850171.841   -18237858.941 7 -14211305.580 6
  20956270.775   -20546764.309 8 -16010441.929 9
  21155756.574     4703154.561 8   3664819.944 7
 92  4 12  6 25 59.9990000  0  5 17 23 16  3 20
  21341656.679   -12787264.831 7  -9964091.812 7
  23920623.397    -1644970.927 4  -1281793.625 2
  21861845.160   -18176528.325 7 -14163515.477 6
  20946992.199   -20595532.736 8 -16048443.282 8
  21169223.252     4773938.261 8   3719976.050 7
 92  4 12  6 26 29.9990000  0  5 17 23 16  3 20
  21330771.814   -12844478.220 7 -10008673.650 6
  23899553.983    -1755688.525 4  -1368066.955 2
  21873596.425   -18114768.593 7 -14115391.011 6
  20937737.606   -20644158.581 8 -16086333.522 8
  21182773.871     4845150.618 8   3775466.165 7
 92  4 12  6 26 59.9990000  0  5 17 23 16  3 20
  21319937.314   -12901403.981 7 -10053031.332 6
  23878511.251    -1866324.714 4  -1454276.874 2
  21885428.033   -18052590.936 7 -14066940.872 6
  20928514.192   -20692640.285 8 -16124111.451 9
  21196407.833     4916789.410 8   3831288.564 7
 92  4 12  6 27 29.9990000  0  5 17 23 16  3 20
  21309163.973   -12958034.881 7 -10097159.255 6
  23857476.313    -1976853.094 5  -1540402.763 2
  21897338.488   -17990007.179 7 -14018174.318 6
  20919314.760   -20740973.380 8 -16161773.575 8
  21210123.037     4988855.644 8   3887444.035 7
 92  4 12  6 27 59.9990000  0  5 17 23 16  3 20
  21298441.296   -13014373.679 7 -10141059.570 7
  23836460.561    -2087263.593 5  -1626436.800 2
  21909321.792   -17927022.090 7 -13969095.019 6
  20910146.507   -20789157.999 8 -16199320.012 8
  21223916.788     5061344.918 8   3943929.155 6
 92  4 12  6 28 29.9990000  0  5 17 23 16  3 20
  21287774.081   -13070431.185 7 -10184740.706 7
  23815472.391    -2197545.470 5  -1712370.632 3
  21921386.640   -17863617.068 7 -13919688.491 6
  20901005.835   -20837190.748 8 -16236748.116 9
  21237791.783     5134256.495 8   4000743.345 7
 92  4 12  6 28 59.9990000  0  5 17 23 16  3 20
  21277156.031   -13126216.602 7 -10228209.812 6
  23794519.896    -2307687.276 5  -1798195.315 2
  21933535.429   -17799780.900 7 -13869946.027 6
  20891894.842   -20885069.122 8 -16274055.922 8
  21251748.321     5207588.929 8   4057885.465 7
 92  4 12  6 29 29.9990000  0  5 17 23 16  3 20
  21266588.947   -13181746.567 7 -10271479.868 6
  23773589.586    -2417704.894 5  -1883923.212 3
  21945767.561   -17735490.238 7 -13819849.404 6
  20882814.428   -20932789.217 8 -16311240.400 8
  21265779.507     5281341.978 8   4115355.342 7
 92  4 12  6 29 59.9990000  0  5 17 23 16  3 20
  21256073.426   -13237027.420 7 -10314555.813 6
  23752668.569    -2527621.694 5  -1969572.544 4
  21958089.031   -17670747.478 7 -13769400.501 6
  20873761.895   -20980350.169 8 -16348300.865 8
  21279897.034     5355512.874 8   4173150.811 7
 92  4 12  6 30 29.9990000  0  5 17 23 16  3 20
  21245597.179   -13292058.794 7 -10357437.363 7
  23731767.938    -2637438.490 5  -2055143.944 2
  21970492.645   -17605560.925 7 -13718605.760 6
  20864742.939   -21027750.744 9 -16385236.360 9
  21294089.209     5430098.172 8   4231269.211 7
 92  4 12  6 30 59.9990000  0  5 17 23 16  3 20
  21235173.995   -13346828.923 7 -10400115.347 7
  23710878.101    -2747159.189 5  -2140640.468 2
  21982980.799   -17539941.309 7 -13667473.595 6
  20855754.562   -21074990.576 9 -16422046.595 8
  21308359.031     5505093.927 8   4289707.432 7
 92  4 12  6 31 29.9990000  0  5 17 23 16  3 20
  21224801.176   -13401325.888 7 -10442580.464 7
  23690027.236    -2856785.363 5  -2226063.335 2
  21995547.499   -17473899.020 7 -13616012.084 6
  20846794.964   -21122068.044 9 -16458730.321 8
  21322709.495     5580497.672 7   4348463.573 7
 92  4 12  6 31 59.9990000  0  5 17 23 16  3 20
  21214491.013   -13455540.756 7 -10484825.769 7
  23669191.060    -2966295.126 5  -2311395.512 3
  22008192.145   -17407445.667 7 -13564230.234 5
  20837867.744   -21168979.122 8 -16495284.392 8
  21337134.609     5656309.794 7   4407537.915 7
 92  4 12  6 32 29.9990000  0  5 17 23 16  3 20
  21204227.019   -13509469.838 7 -10526848.385 6
  23648371.373    -3075681.464 5  -2396631.508 4
  22020916.536   -17340572.429 7 -13512121.225 6
  20828974.101   -21215720.615 9 -16531706.314 9
  21351640.367     5732528.994 7   4466929.486 6
 92  4 12  6 32 59.9990000  0  5 17 23 16  3 20
  21194016.987   -13563119.795 7 -10568653.500 7
  23627581.365    -3184947.277 5  -2481773.596 2
  22033720.673   -17273291.091 7 -13459694.208 6
  20820110.737   -21262292.124 9 -16567995.787 8
  21366221.073     5809151.143 7   4526635.002 7
 92  4 12  6 33 29.9990000  0  5 17 23 16  3 20
  21183857.321   -13616504.569 7 -10610251.980 7
  23606812.644    -3294081.491 5  -2566813.136 4
  22046602.155   -17205605.445 7 -13406952.150 6
  20811279.750   -21308692.000 8 -16604151.516 9
  21380880.325     5886173.629 7   4586652.493 7
 92  4 12  6 33 59.9990000  0  5 17 23 16  3 20
  21173749.818   -13669631.968 7 -10651649.907 7
  23586085.593    -3403067.505 5  -2651737.208 4
  22059560.684   -17137515.178 7 -13353894.790 6
  20802485.639   -21354918.403 9 -16640172.080 9
  21395608.528     5963594.895 7   4646980.718 7
 92  4 12  6 34 29.9990000  0  5 17 23 16  3 20
  21163688.483   -13722489.990 7 -10692837.935 7
  23565363.938    -3511893.107 5  -2736536.291 3
  22072591.762   -17069029.141 7 -13300529.055 6
  20793722.406   -21400968.657 9 -16676055.383 9
  21410417.676     6041413.071 7   4707618.227 7
 92  4 12  6 34 59.9990000  0  5 17 23 16  3 20
  21153684.709   -13775065.734 7 -10733806.007 7
  23544687.851    -3620548.651 5  -2821202.848 3
  22085693.892   -17000158.136 7 -13246863.348 6
  20784992.749   -21446840.881 9 -16711799.951 9
  21425303.571     6119625.489 7   4768562.937 7
 92  4 12  6 35 29.9990000  0  5 17 23 16  3 20
  21143737.295   -13827347.762 7 -10774545.217 7
  23524051.338    -3729016.345 5  -2905723.069 4
  22098876.666   -16930896.182 7 -13192892.995 6
  20776298.768   -21492530.953 9 -16747402.595 9
  21440259.017     6198231.957 7   4829814.682 6
 92  4 12  6 35 59.9990000  0  5 17 23 16  3 20
  21133841.146   -13879333.100 7 -10815053.226 7
  23503445.704    -3837309.225 5  -2990107.060 2
  22112134.088   -16861256.921 7 -13138628.653 6
  20767638.064   -21538041.305 9 -16782865.196 9
  21455292.710     6277225.658 7   4891368.191 7
 92  4 12  6 36 29.9990000  0  5 17 23 16  3 20
  21124011.252   -13931010.932 8 -10855321.631 7
  23482862.252    -3945445.415 5  -3074368.946 2
  22125452.368   -16791246.637 7 -13084075.195 6
  20759013.634   -21583367.961 9 -16818184.655 9
  21470398.952     6356606.321 7   4953223.218 6
 92  4 12  6 36 59.9990000  0  5 17 23 16  3 20
  21114233.221   -13982393.048 7 -10895359.597 6
  23462310.280    -4053441.591 5  -3158521.754 2
  22138848.893   -16720865.542 7 -13029232.780 5
  20750423.980   -21628512.316 9 -16853362.062 9
  21485574.146     6436368.582 7   5015375.608 7
 92  4 12  6 37 29.9990000  0  5 17 23 16  3 20
  21104511.550   -14033489.072 8 -10935174.641 7
  23441777.794    -4161293.348 5  -3242562.028 4
  22152311.674   -16650112.190 7 -12974100.302 6
  20741867.004   -21673467.031 9 -16888391.696 9
  21500826.088     6516514.975 7   5077827.315 7
 92  4 12  6 37 59.9990000  0  5 17 23 16  3 20
  21094835.449   -14084311.314 8 -10974776.353 7
  23421285.481    -4269021.590 5  -3326506.052 3
  22165842.207   -16578985.794 7 -12918677.164 6
  20733348.701   -21718237.786 9 -16923277.983 9
  21516147.581     6597035.714 7   5140570.731 6
 92  4 12  6 38 29.9990000  0  5 17 23 16  3 20
  21085220.206   -14134850.266 8 -11014157.315 7
  23400813.853    -4376623.328 5  -3410351.507 2
  22179455.183   -16507466.993 7 -12862948.243 5
  20724865.774   -21762820.694 9 -16958017.904 9
  21531543.423     6677929.746 7   5203605.005 6
 92  4 12  6 38 59.9990000  0  5 17 23 16  3 20
  21075651.430   -14185124.266 8 -11053331.837 7
  23380357.815    -4484087.874 5  -3494090.059 4
  22193136.511   -16435559.422 7 -12806916.358 5
  20716415.823   -21807222.270 9 -16992616.531 9
  21547007.617     6759186.600 7   5266922.013 7
 92  4 12  6 39 29.9990000  0  5 17 23 16  3 20
  21066137.516   -14235140.931 8 -11092305.821 7
  23359940.749    -4591410.334 5  -3577717.896 3
  22206896.685   -16363253.443 7 -12750574.047 6
  20707999.150   -21851441.662 9 -17027073.185 9
  21562537.466     6840802.575 7   5330518.844 6
 92  4 12  6 39 59.9990000  0  5 17 23 16  3 20
  21056667.072   -14284896.406 8 -11131076.280 7
  23339544.070    -4698588.095 5  -3661232.985 3
  22220733.006   -16290535.554 7 -12693910.779 5
  20699618.752   -21895479.177 9 -17061388.116 9
  21578134.768     6922772.548 7   5394391.509 6
 92  4 12  6 40 29.9990000  0  5 17 23 16  3 20
  21047248.193   -14334390.692 8 -11169643.241 7
  23319174.971    -4805606.955 5  -3744624.248 3
  22234645.176   -16217429.656 7 -12636945.178 6
  20691275.528   -21939336.142 9 -17095562.368 8
  21593801.623     7005091.047 7   5458535.771 7
 92  4 12  6 40 59.9990000  0  5 17 23 16  3 20
  21037876.081   -14383647.737 8 -11208025.309 8
  23298852.340    -4912460.368 5  -3827886.593 4
  22248625.697   -16143956.086 7 -12579693.041 5
  20682960.185   -21983020.033 9 -17129601.745 9
  21609529.634     7087746.154 7   5522942.321 6
 92  4 12  6 41 29.9990000  0  5 17 23 16  3 20
  21028547.439   -14432666.490 8 -11246221.709 7
  23278550.095    -5019141.344 5  -3911014.579 4
  22262682.366   -16070111.290 7 -12522151.667 6
  20674682.016   -22026523.087 9 -17163500.218 9
  21625321.802     7170740.712 7   5587613.375 7
 92  4 12  6 41 59.9990000  0  5 17 23 16  3 20
  21019264.966   -14481441.131 8 -11284227.893 7
  23258277.529    -5125652.577 5  -3994010.287 3
  22276797.194   -15995928.586 7 -12464346.980 5
  20666437.423   -22069849.932 9 -17197261.380 9
  21641176.925     7254065.456 7   5652541.713 7
 92  4 12  6 42 29.9990000  0  5 17 23 16  3 20
  21010029.859   -14529978.410 8 -11322049.130 7
  23238040.639    -5231997.349 5  -4076876.288 4
  22290975.279   -15921425.490 7 -12406292.637 5
  20658227.307   -22112998.284 9 -17230883.458 9
  21657096.804     7337718.415 7   5717725.803 6
 92  4 12  6 42 59.9990000  0  5 17 23 16  3 20
  21000837.622   -14578284.441 8 -11359690.176 8
  23217830.431    -5338190.215 5  -4159623.928 2
  22305212.123   -15846606.301 7 -12347991.978 5
  20650050.767   -22155967.604 9 -17264366.031 9
  21673078.739     7421695.631 7   5783162.575 6
 92  4 12  6 43 29.9990000  0  5 17 23 16  3 20
  20991690.356   -14626352.023 8 -11397145.405 7
  23197643.005    -5444246.516 5  -4242265.156 4
  22319507.127   -15771494.263 7 -12289463.132 5
  20641909.604   -22198758.230 9 -17297709.370 9
  21689119.734     7505992.424 7   5848848.361 6
 92  4 12  6 43 59.9990000  0  5 17 23 16  3 20
  20982597.650   -14674154.436 8 -11434394.025 7
  23177497.553    -5550166.063 5  -4324799.813 4
  22333855.793   -15696088.968 7 -12230705.795 5
  20633796.920   -22241365.572 9 -17330909.876 9
  21705221.588     7590608.649 7   5914783.024 6
 92  4 12  6 44 29.9990000  0  5 17 23 16  3 20
  20973546.616   -14721693.043 8 -11471437.081 8
  23157358.395    -5655947.095 5  -4407226.535 3
  22348263.819   -15620381.873 7 -12171713.278 6
  20625726.806   -22283789.105 9 -17363967.170 9
  21721385.498     7675540.326 7   5980963.517 6
 92  4 12  6 44 59.9990000  0  5 17 23 16  3 20
  20964550.444   -14768962.035 8 -11508270.039 8
  23137257.910    -5761587.758 5  -4489543.884 4
  22362729.704   -15544372.769 7 -12112485.410 5
  20617686.973   -22326032.977 9 -17396884.467 9
  21737603.670     7760778.230 7   6047382.631 6
 92  4 12  6 45 29.9990000  0  5 17 23 16  3 20
  20955613.031   -14815952.419 8 -11544885.907 7
  23117184.706    -5867070.579 5  -4571738.239 5
  22377251.951   -15468038.462 7 -12053004.153 5
  20609686.111   -22368091.406 9 -17429657.246 9
  21753880.602     7846323.608 7   6114041.352 6
 92  4 12  6 45 59.9990000  0  5 17 23 16  3 20
  20946722.386   -14862673.793 8 -11581292.149 8
  23097145.379    -5972375.120 5  -4653793.676 3
  22391844.949   -15391358.345 7 -11993253.414 6
  20601717.029   -22409961.953 9 -17462283.637 9
  21770214.194     7932174.201 7   6180937.879 6
 92  4 12  6 46 29.9990000  0  5 17 23 16  3 20
  20937876.710   -14909157.555 8 -11617513.232 7
  23077145.025    -6077499.542 5  -4735708.761 4
  22406499.403   -15314344.189 7 -11933242.410 4
  20593782.421   -22451647.316 9 -17494765.724 9
  21786611.343     8018322.987 7   6248066.765 6
 92  4 12  6 46 59.9990000  0  5 17 23 16  3 20
  20929070.306   -14955420.613 8 -11653562.357 8
  23057175.849    -6182439.132 6  -4817479.814 3
  22421215.915   -15237001.063 7 -11872975.058 5
  20585887.686   -22493144.744 9 -17527101.374 9
  21803060.055     8104767.984 7   6315426.469 6
 92  4 12  6 47 29.9990000  0  5 17 23 16  3 20
  20920307.673   -15001471.214 8 -11689445.914 7
  23037241.449    -6287186.504 6  -4899101.083 3
  22435998.981   -15159332.175 7 -11812453.876 5
  20578025.929   -22534452.012 9 -17559288.846 9
  21819566.629     8191506.996 7   6383015.282 5
 92  4 12  6 47 59.9990000  0  5 17 23 16  3 20
  20911584.611   -15047302.449 8 -11725158.535 8
  23017344.523    -6391747.394 5  -4980577.062 4
  22450834.810   -15081355.525 7 -11751692.883 6
  20570202.845   -22575564.776 9 -17591324.758 9
  21836129.263     8278539.032 7   6450832.410 6
 92  4 12  6 48 29.9990000  0  5 17 23 16  3 20
  20902907.718   -15092900.731 8 -11760689.636 7
  22997479.677    -6496135.395 6  -5061918.299 4
  22465734.495   -15003078.006 7 -11690697.424 4
  20562416.635   -22616479.723 9 -17623206.517 9
  21852745.859     8365862.993 7   6518877.016 6
 92  4 12  6 48 59.9990000  0  5 17 23 16  3 20
  20894281.490   -15138241.322 8 -11796019.944 8
  22977643.008    -6600356.341 6  -5143129.372 3
  22480680.349   -14924497.673 7 -11629466.007 5
  20554671.197   -22657194.172 9 -17654932.033 9
  21869420.615     8453476.668 7   6587147.382 6
 92  4 12  6 49 29.9990000  0  5 17 23 16  3 20
  20885705.627   -15183298.246 8 -11831129.211 8
  22957845.914    -6704407.064 6  -5224207.805 5
  22495690.058   -14845620.416 7 -11568003.252 5
  20546960.536   -22697703.917 9 -17686498.055 9
  21886146.037     8541379.887 7   6655643.365 6
 92  4 12  6 49 59.9990000  0  5 17 23 16  3 20
  20877188.224   -15228066.519 8 -11866013.552 8
  22938076.400    -6808289.441 6  -5305155.063 4
  22510757.626   -14766452.034 7 -11506313.616 5
  20539290.645   -22738008.707 9 -17717904.364 9
  21902926.620     8629567.775 7   6724361.186 6
 92  4 12  6 50 29.9990000  0  5 17 23 16  3 20
  20868725.082   -15272553.607 8 -11900678.792 8
  22918345.560    -6911988.325 6  -5385959.345 4
  22525878.858   -14686988.853 7 -11444394.291 5
  20531659.728   -22778107.988 9 -17749150.553 9
  21919762.364     8718036.149 7   6793297.547 6
 92  4 12  6 50 59.9990000  0  5 17 23 16  3 20
  20860311.107   -15316767.532 8 -11935131.176 8
  22898650.993    -7015489.644 6  -5466609.664 4
  22541054.953   -14607233.439 7 -11382247.227 4
  20524067.784   -22818001.670 9 -17780236.529 9
  21936650.872     8806780.772 7   6862449.154 6
 92  4 12  6 51 29.9990000  0  5 17 23 16  3 20
  20851945.399   -15360722.711 8 -11969381.937 8
  22878993.902    -7118785.176 6  -5547099.639 4
  22556287.107   -14527181.719 7 -11319869.287 4
  20516516.911   -22857690.539 9 -17811162.909 9
  21953589.446     8895795.780 7   6931811.484 4
 92  4 12  6 51 59.9990000  0  5 17 23 16  3 20
  20843624.958   -15404433.197 8 -12003442.032 8
  22859376.083    -7221876.215 6  -5627430.283 4
  22571584.317   -14446819.113 7 -11257249.125 5
  20509005.011   -22897167.776 9 -17841924.379 9
  21970580.184     8985083.382 7   7001386.191 5
 92  4 12  6 52 29.9990000  0  5 17 23 16  3 20
  20835352.186   -15447915.573 8 -12037324.378 8
  22839794.539    -7324770.484 6  -5707607.592 3
  22586933.091   -14366158.221 7 -11194396.505 5
  20501531.185   -22936433.872 9 -17872521.330 9
  21987623.685     9074638.306 7   7071169.208 5
 92  4 12  6 52 59.9990000  0  5 17 23 16  3 20
  20827120.185   -15491184.189 8 -12071040.156 8
  22820251.068    -7427483.175 6  -5787643.414 4
  22602337.927   -14285197.451 7 -11131310.218 4
  20494100.229   -22975488.133 9 -17902953.221 9
  22004713.354     9164455.907 7   7141156.910 5
 92  4 12  6 53 29.9990000  0  5 17 23 16  3 20
  20818926.257   -15534240.856 8 -12104590.787 8
  22800739.977    -7530011.989 6  -5867535.957 3
  22617801.522   -14203942.810 6 -11067994.957 4
  20486710.945   -23014325.774 9 -17933216.309 9
  22021856.985     9254536.415 7   7211349.470 5
 92  4 12  6 53 59.9990000  0  5 17 23 16  3 20
  20810771.004   -15577087.215 8 -12137977.530 8
  22781264.259    -7632357.340 6  -5947285.528 4
  22633313.084   -14122411.583 7 -11004464.178 4
  20479361.533   -23052942.870 9 -17963307.547 9
  22039044.088     9344878.961 7   7281746.238 5
 92  4 12  6 54 29.9990000  0  5 17 23 16  3 20
  20802662.217   -15619709.655 8 -12171189.785 8
  22761827.215    -7734495.951 6  -6026874.006 3
  22648884.603   -14040604.373 7 -10940718.316 4
  20472054.092   -23091335.648 9 -17993223.984 9
  22056287.850     9435482.581 7   7352346.417 5
 92  4 12  6 54 59.9990000  0  5 17 23 16  3 20
  20794598.699   -15662092.059 8 -12204215.021 8
  22742431.242    -7836418.925 6  -6106294.452 2
  22664502.292   -13958521.298 6 -10876757.518 4
  20464792.519   -23129506.165 9 -18022967.235 9
  22073576.581     9526340.329 7   7423144.625 6
 92  4 12  6 55 29.9990000  0  5 17 23 16  3 20
  20786582.249   -15704205.794 8 -12237030.888 8
  22723082.337    -7938111.535 6  -6185535.400 5
  22680177.240   -13876177.412 7 -10812593.469 5
  20457573.816   -23167447.935 9 -18052532.246 9
  22090918.076     9617453.632 7   7494141.951 5
 92  4 12  6 55 59.9990000  0  5 17 23 16  3 20
  20778618.262   -15746052.674 8 -12269638.824 8
  22703770.906    -8039581.223 6  -6264602.645 3
  22695893.260   -13793570.012 7 -10748224.111 5
  20450394.087   -23205165.772 9 -18081922.756 9
  22108299.143     9708813.060 7   7565331.109 4
 92  4 12  6 56 29.9990000  0  5 17 23 16  3 20
  20770707.339   -15787635.801 8 -12302041.256 9
  22684505.344    -8140828.806 6  -6343496.810 3
  22711667.140   -13710682.003 7 -10683636.079 4
  20443260.825   -23242655.888 9 -18111135.826 9
  22125732.974     9800417.743 7   7636711.330 5
 92  4 12  6 56 59.9990000  0  5 17 23 16  3 20
  20762840.185   -15828965.969 8 -12334246.562 8
  22665274.557    -8241875.450 6  -6422234.391 4
  22727487.787   -13627528.995 7 -10618841.559 4
  20436168.635   -23279915.866 9 -18140169.569 9
  22143209.974     9892264.716 7   7708280.369 5
 92  4 12  6 57 29.9990000  0  5 17 23 16  3 20
  20755024.896   -15870050.075 8 -12366260.145 9
  22646086.640    -8342723.395 6  -6500817.143 4
  22743367.494   -13544100.410 6 -10553832.270 4
  20429123.212   -23316940.442 9 -18169019.873 9
  22160738.540     9984354.521 7   7780038.632 5
 92  4 12  6 57 59.9990000  0  5 17 23 16  3 20
  20747245.881   -15910914.464 8 -12398102.514 8
  22626929.902    -8443374.899 6  -6579246.839 5
  22759294.868   -13460389.295 7 -10488602.876 4
  20422121.559   -23353735.516 9 -18197691.354 9
  22178302.481    10076676.236 7   7851977.616 5
 92  4 12  6 58 29.9990000  0  5 17 23 16  3 20
  20739512.134   -15951559.042 8 -12429773.609 9
  22607817.234    -8543825.767 6  -6657520.188 4
  22775276.204   -13376409.556 6 -10423164.160 5
  20415165.775   -23390299.169 9 -18226182.516 9
  22195916.487    10169226.891 7   7924094.977 5
 92  4 12  6 58 59.9990000  0  5 17 23 16  3 20
  20731826.655   -15991959.847 8 -12461254.745 9
  22588740.240    -8644059.027 6  -6735623.959 5
  22791307.606   -13292166.519 6 -10357520.261 5
  20408250.762   -23426627.174 9 -18254490.053 9
  22213572.464    10262006.320 7   7996390.607 6
 92  4 12  6 59 29.9990000  0  5 17 23 16  3 20
  20724184.046   -16032108.138 8 -12492539.132 9
  22569712.713    -8744062.549 6  -6813548.723 4
  22807391.172   -13207644.002 7 -10291658.557 3
  20401384.016   -23462713.390 9 -18282609.178 9
  22231272.810    10355015.394 7   8068865.170 6
 92  4 12  6 59 59.9990000  0  5 17 23 16  3 20
  20716590.902   -16072008.955 8 -12523630.681 9
  22550725.957    -8843834.843 6  -6891293.305 5
  22823526.302   -13122867.141 6 -10225598.704 4
  20394562.838   -23498560.352 9 -18310541.871 9
  22249008.832    10448246.311 7   8141512.614 5
 92  4 12  7  0 29.9990000  0  5 17 23 16  3 20
  20709051.722   -16111641.029 8 -12554512.814 9
  22531788.068    -8943375.593 6  -6968857.464 4
  22839700.704   -13037850.586 6 -10159352.074 4
  20387785.430   -23534161.074 9 -18338282.697 9
  22266795.218    10541701.285 7   8214334.630 6
 92  4 12  7  0 59.9990000  0  5 17 23 16  3 20
  20701557.810   -16150999.921 8 -12585182.081 8
  22512878.359    -9042688.897 6  -7046244.403 3
  22855924.872   -12952605.405 6 -10092927.283 3
  20381059.586   -23569520.718 9 -18365835.663 9
  22284625.675    10635370.459 7   8287323.540 5
 92  4 12  7  1 29.9990000  0  5 17 23 16  3 20
  20694121.758   -16190094.309 8 -12615645.234 9
  22494024.411    -9141769.040 6  -7123449.645 4
  22872186.514   -12867149.938 6 -10026338.617 4
  20374378.411   -23604631.504 9 -18393194.712 9
  22302485.511    10729256.221 7   8360481.237 5
 92  4 12  7  1 59.9990000  0  5 17 23 16  3 20
  20686732.773   -16228918.217 8 -12645897.621 8
  22475228.023    -9240596.914 6  -7200458.319 4
  22888485.032   -12781490.617 6  -9959591.138 5
  20367746.402   -23639489.085 9 -18420356.465 9
  22320392.714    10823358.339 7   8433807.521 5
 92  4 12  7  2 29.9990000  0  5 17 23 16  3 20
  20679392.954   -16267483.030 8 -12675948.125 9
  22456469.410    -9339170.340 6  -7277268.729 5
  22904827.918   -12695624.832 6  -9892682.770 4
  20361160.562   -23674095.742 9 -18447322.688 9
  22338341.888    10917669.309 7   8507296.558 5
 92  4 12  7  2 59.9990000  0  5 17 23 16  3 20
  20672102.601   -16305813.502 8 -12705816.021 9
  22437762.960    -9437481.451 6  -7353874.731 5
  22921212.475   -12609536.650 6  -9825601.079 3
  20354621.788   -23708447.713 9 -18474090.459 9
  22356327.936    11012188.278 7   8580947.658 5
 92  4 12  7  3 29.9990000  0  5 17 23 16  3 20
  20664842.227   -16343937.505 8 -12735523.023 9
  22419103.877    -9535531.414 6  -7430277.262 6
  22937632.408   -12523217.710 6  -9758339.559 4
  20348136.378   -23742541.649 9 -18500657.160 9
  22374352.657    11106913.419 7   8654759.403 5
 92  4 12  7  3 59.9990000  0  5 17 23 16  3 20
  20657626.823   -16381864.791 8 -12765076.743 9
  22400492.762    -9633325.780 6  -7506480.599 4
  22954103.605   -12436649.387 6  -9690883.766 4
  20341693.238   -23776377.583 9 -18527022.825 9
  22392415.753    11201839.835 6   8728727.991 4
 92  4 12  7  4 29.9990000  0  5 17 23 16  3 20
  20650448.592   -16419592.106 8 -12794474.642 9
  22381929.613    -9730879.099 6  -7582496.127 5
  22970629.963   -12349830.169 6  -9623232.462 3
  20335307.359   -23809951.389 9 -18553184.234 9
  22410519.920    11296966.528 6   8802852.669 5
 92  4 12  7  4 59.9990000  0  5 17 23 16  3 20
  20643307.236   -16457106.981 8 -12823706.992 8
  22363407.235    -9828206.351 6  -7658335.480 5
  22987192.598   -12262766.313 6  -9555390.504 4
  20328969.447   -23843263.097 9 -18579141.413 9
  22428655.265    11392289.013 6   8877129.878 6
 92  4 12  7  5 29.9990000  0  5 17 23 16  3 20
  20636210.249   -16494383.792 8 -12852753.847 9
  22344927.728    -9925304.558 6  -7733996.378 4
  23003806.496   -12175473.832 6  -9487370.416 4
  20322681.600   -23876311.674 9 -18604893.550 9
  22446833.481    11487802.881 6   8951556.220 4
 92  4 12  7  5 59.9990000  0  5 17 23 16  3 20
  20629173.821   -16531396.156 8 -12881594.642 9
  22326494.089   -10022172.688 6  -7809477.999 6
  23020463.564   -12087952.073 6  -9419171.686 4
  20316439.921   -23909094.882 9 -18630438.905 9
  22465045.273    11583505.650 6   9026129.739 6
 92  4 12  7  6 29.9990000  0  5 17 23 16  3 20
  20622182.360   -16568130.217 8 -12910218.573 9
  22308105.720   -10118799.345 6  -7884771.444 5
  23037162.305   -12000206.575 6  -9350798.597 4
  20310253.405   -23941608.609 9 -18655774.277 9
  22483288.543    11679396.107 6   9100849.539 4
 92  4 12  7  6 59.9990000  0  5 17 23 16  3 20
  20615244.863   -16604586.423 8 -12938625.994 9
  22289772.212   -10215158.437 6  -7959856.404 6
  23053901.816   -11912235.564 6  -9282249.782 3
  20304120.849   -23973845.709 9 -18680894.098 9
  22501574.984    11775476.377 6   9175717.238 4
 92  4 12  7  7 29.9990000  0  5 17 23 16  3 20
  20608357.131   -16640770.898 8 -12966821.677 8
  22271490.868   -10311228.725 6  -8034716.319 5
  23070688.695   -11824033.817 6  -9213521.148 4
  20298037.461   -24005800.967 9 -18705794.289 9
  22519892.603    11871746.876 6   9250733.163 6
 92  4 12  7  7 59.9990000  0  5 17 23 16  3 20
  20601527.260   -16676689.299 8 -12994810.024 8
  22253264.985   -10407010.200 6  -8109351.183 5
  23087510.949   -11735586.845 6  -9144601.462 4
  20292010.733   -24037467.542 9 -18730469.534 9
  22538255.491    11968209.789 6   9325899.013 5
 92  4 12  7  8 29.9990000  0  5 17 23 16  3 20
  20594741.757   -16712338.911 8 -13022588.933 9
  22235096.063   -10502490.868 6  -8183751.666 5
  23104392.561   -11646904.365 6  -9075498.246 3
  20286041.566   -24068838.602 9 -18754914.525 9
  22556645.959    12064866.701 6   9401216.030 5
 92  4 12  7  8 59.9990000  0  5 17 23 16  3 20
  20588003.921   -16747735.363 8 -13050170.571 9
  22216982.303   -10597686.718 6  -8257930.197 5
  23121306.852   -11557999.577 6  -9006221.805 2
  20280129.359   -24099916.634 9 -18779131.178 9
  22575069.405    12161709.788 6   9476678.137 5
 92  4 12  7  9 29.9990000  0  5 17 23 16  3 20
  20581315.252   -16782878.274 8 -13077554.645 9
  22198918.309   -10692611.855 6  -8331897.798 5
  23138270.908   -11468865.396 6  -8936766.602 4
  20274273.813   -24130695.593 9 -18803114.779 9
  22593539.618    12258740.278 6   9552286.268 5
 92  4 12  7  9 59.9990000  0  5 17 23 16  3 20
  20574679.346   -16817761.274 8 -13104736.192 9
  22180902.581   -10787271.642 6  -8405658.618 4
  23155271.540   -11379510.690 6  -8867139.618 4
  20268472.828   -24161170.695 9 -18826861.605 9
  22612038.012    12355957.751 6   9628040.094 4
 92  4 12  7 10 29.9990000  0  5 17 23 16  3 20
  20568089.008   -16852388.982 8 -13131718.799 9
  22162943.514   -10881650.924 6  -8479200.877 5
  23172315.340   -11289952.079 6  -8797353.723 4
  20262731.203   -24191340.275 9 -18850370.365 9
  22630574.179    12453359.498 6   9703937.511 5
 92  4 12  7 10 59.9990000  0  5 17 23 16  3 20
  20561546.337   -16886769.073 8 -13158508.464 9
  22145034.811   -10975752.765 6  -8552526.955 5
  23189400.812   -11200182.044 6  -8727403.053 3
  20257048.037   -24221201.811 9 -18873639.090 9
  22649144.523    12550942.923 6   9779976.472 4
 92  4 12  7 11 29.9990000  0  5 17 23 16  3 20
  20555057.330   -16920875.902 8 -13185085.212 9
  22127184.269   -11069558.729 7  -8625622.470 6
  23206517.162   -11110202.302 6  -8657288.984 2
  20251422.732   -24250753.499 9 -18896666.380 9
  22667748.145    12648704.461 6   9856154.266 4
 92  4 12  7 11 59.9990000  0  5 17 23 16  3 20
  20548621.385   -16954697.752 8 -13211439.888 9
  22109397.283   -11163041.836 7  -8698466.399 5
  23223681.480   -11020011.262 6  -8587010.282 4
  20245860.082   -24279985.448 9 -18919444.519 9
  22686382.045    12746649.007 6   9932474.634 5
 92  4 12  7 12 29.9990000  0  5 17 23 16  3 20
  20542236.406   -16988252.423 8 -13237586.378 9
  22091668.756   -11256209.525 7  -8771064.562 6
  23240887.169   -10929601.772 6  -8516561.368 3
  20240359.191   -24308903.543 9 -18941978.100 9
  22705052.219    12844765.679 6  10008929.128 5
 92  4 12  7 12 59.9990000  0  5 17 23 16  3 20
  20535902.091   -17021534.806 8 -13263520.700 9
  22073995.990   -11349066.497 7  -8843420.609 5
  23258132.430   -10838967.078 6  -8445936.942 3
  20234917.658   -24337501.170 9 -18964261.965 9
  22723758.969    12943056.266 6  10085519.148 5
 92  4 12  7 13 29.9990000  0  5 17 23 16  3 20
  20529616.942   -17054552.960 8 -13289249.127 9
  22056384.383   -11441610.414 7  -8915532.718 5
  23275423.260   -10748118.252 6  -8375145.667 4
  20229537.583   -24365778.857 9 -18986296.530 9
  22742494.499    13041514.796 6  10162240.024 5
 92  4 12  7 13 59.9990000  0  5 17 23 16  3 20
  20523379.160   -17087338.815 8 -13314796.546 9
  22038832.734   -11533856.683 7  -8987412.898 6
  23292753.962   -10657050.951 6  -8304184.186 4
  20224217.166   -24393734.373 9 -19008080.039 9
  22761261.507    13140139.156 6  10239090.138 4
 92  4 12  7 14 29.9990000  0  5 17 23 16  3 20
  20517184.848   -17119883.667 8 -13340156.170 9
  22021332.949   -11625805.138 7  -9059060.995 6
  23310123.638   -10565767.657 6  -8233054.393 3
  20218960.006   -24421360.645 9 -19029606.992 9
  22780064.190    13238931.197 6  10316070.887 3
 92  4 12  7 14 59.9990000  0  5 17 23 16  3 20
  20511040.902   -17152176.780 8 -13365319.627 9
  22003894.921   -11717452.516 7  -9130474.512 6
  23327528.688   -10474290.915 6  -8161773.820 2
  20213766.701   -24448662.552 9 -19050881.201 9
  22798893.555    13337880.915 6  10393174.504 4
 92  4 12  7 15 29.9990000  0  5 17 23 16  3 20
  20504946.121   -17184209.357 8 -13390280.065 9
  21986513.553   -11808795.612 7  -9201650.923 6
  23344975.710   -10382611.830 6  -8090335.591 2
  20208632.755   -24475638.443 9 -19071901.368 9
  22817746.003    13436985.068 6  10470398.475 3
 92  4 12  7 15 59.9990000  0  5 17 23 16  3 20
  20498901.406   -17215967.181 8 -13415026.422 9
  21969191.245   -11899817.916 7  -9272577.364 5
  23362462.304   -10290730.634 6  -8018739.894 3
  20203562.364   -24502282.451 9 -19092662.924 9
  22836641.622    13536244.591 6  10547743.510 5
 92  4 12  7 16 29.9990000  0  5 17 23 16  3 20
  20492912.152   -17247437.274 8 -13439548.581 9
  21951933.092   -11990507.170 7  -9343244.279 6
  23379982.775   -10198653.178 6  -7946991.239 4
  20198553.732   -24528594.243 9 -19113165.632 9
  22855559.126    13635654.868 6  10625206.036 5
 92  4 12  7 16 59.9990000  0  5 17 23 16  3 20
  20486979.859   -17278627.162 8 -13463852.395 9
  21934739.096   -12080859.096 7  -9413648.348 6
  23397536.223   -10106391.929 6  -7875099.377 4
  20193609.255   -24554572.765 9 -19133408.623 9
  22874503.311    13735211.629 6  10702782.639 5
 92  4 12  7 17 29.9990000  0  5 17 23 16  3 20
  20481091.935   -17309550.192 8 -13487948.263 9
  21917609.255   -12170870.445 7  -9483787.026 6
  23415132.241   -10013945.334 6  -7803063.083 5
  20188733.131   -24580209.530 9 -19153385.320 9
  22893472.678    13834918.665 6  10780476.374 3
 92  4 12  7 17 59.9990000  0  5 17 23 16  3 20
  20475259.173   -17340223.653 8 -13511849.668 9
  21900542.970   -12260547.485 7  -9553665.208 6
  23432756.740    -9921330.141 6  -7730895.456 4
  20183917.865   -24605507.946 9 -19173098.365 9
  22912480.120    13934767.679 6  10858280.727 4
 92  4 12  7 18 29.9990000  0  5 17 23 16  3 20
  20469465.384   -17370658.077 8 -13535564.805 9
  21883545.337   -12349905.660 7  -9623294.931 6
  23450410.019    -9828548.142 6  -7658597.818 3
  20179167.952   -24630468.452 9 -19192548.097 9
  22931503.450    14034753.068 6  10936191.397 3
 92  4 12  7 18 59.9990000  0  5 17 23 16  3 20
  20463718.063   -17400854.229 8 -13559094.263 9
  21866598.969   -12438952.416 7  -9692681.975 6
  23468099.873    -9735602.043 6  -7586172.350 4
  20174482.796   -24655090.471 9 -19211734.091 9
  22950557.660    14134870.451 6  11014204.889 3
 92  4 12  7 19 29.9990000  0  5 17 23 16  3 20
  20458023.505   -17430794.925 8 -13582424.666 9
  21849712.859   -12527692.782 7  -9761830.280 6
  23485823.602    -9642476.341 6  -7513606.865 3
  20169861.795   -24679369.022 9 -19230652.449 9
  22969631.055    14235120.051 6  11092321.398 3
 92  4 12  7 19 59.9990000  0  5 17 23 16  3 20
  20452375.415   -17460468.551 8 -13605546.957 9
  21832879.812   -12616125.515 7  -9830738.875 7
  23503584.207    -9549162.676 6  -7440894.980 3
  20165310.346   -24703302.009 9 -19249301.532 9
  22988732.932    14335498.775 6  11170538.511 3
 92  4 12  7 20 29.9990000  0  5 17 23 16  3 20
  20446779.789   -17489868.641 8 -13628456.107 9
  21816114.818   -12704254.280 7  -9899410.608 6
  23521366.397    -9455674.533 6  -7368047.108 2
  20160819.755   -24726890.482 9 -19267682.152 9
  23007858.491    14436000.581 6  11248851.557 4
 92  4 12  7 20 59.9990000  0  5 17 23 16  3 20
  20441241.124   -17518989.679 8 -13651147.830 9
  21799402.888   -12792073.701 7  -9967841.280 5
  23539185.461    -9362011.795 6  -7295063.164 1
  20156396.917   -24750133.298 9 -19285793.445 9
  23027008.634    14536621.580 6  11327257.477 4
 92  4 12  7 21 29.9990000  0  5 17 23 16  3 20
  20435749.225   -17547833.987 8 -13673623.909 9
  21782750.316   -12879566.523 7 -10036017.479 6
  23557050.694    -9268163.230 6  -7221934.403 4
  20152039.434   -24773020.543 9 -19303627.666 9
  23046177.963    14637367.154 6  11405760.480 2
 92  4 12  7 21 59.9990000  0  5 17 23 16  3 20
  20430307.992   -17576431.555 8 -13695907.720 9
  21766168.196   -12966728.026 7 -10103935.503 6
  23574937.510    -9174143.223 6  -7148672.120 4
  20147752.701   -24795558.275 9 -19321189.535 9
  23065374.874    14738225.937 6  11484351.655 3
 92  4 12  7 22 29.9990000  0  5 17 23 16  3 20
  20424909.629   -17604792.290 8 -13718007.000 9
  21749642.436   -13053556.017 7 -10171593.638 6
  23592864.500    -9079952.395 5  -7075276.722 2
  20143531.024   -24817742.160 9 -19338475.684 9
  23084584.075    14839197.380 6  11563030.625 4
 92  4 12  7 22 59.9990000  0  5 17 23 16  3 20
  20419559.233   -17632920.509 9 -13739925.085 9
  21733185.328   -13140037.729 7 -10238981.957 6
  23610814.873    -8985586.484 5  -7001744.838 1
  20139377.099   -24839568.802 9 -19355483.459 9
  23103813.063    14940279.982 6  11641796.219 4
 92  4 12  7 23 29.9990000  0  5 17 23 16  3 20
  20414250.209   -17660824.644 8 -13761668.559 9
  21716794.476   -13226172.997 7 -10306100.317 6
  23628808.417    -8891064.563 5  -6928091.398 4
  20135293.627   -24861038.733 9 -19372213.277 9
  23123072.330    15041468.635 6  11720644.457 2
 92  4 12  7 23 59.9990000  0  5 17 23 16  3 20
  20408980.457   -17688500.303 8 -13783234.004 9
  21700465.980   -13311969.557 7 -10372954.740 6
  23646821.447    -8796408.711 5  -6854333.665 3
  20131275.808   -24882154.382 9 -19388667.037 9
  23142348.685    15142755.292 6  11799569.084 2
 92  4 12  7 24 29.9990000  0  5 17 23 16  3 20
  20403764.068   -17715921.676 8 -13804601.296 9
  21684206.736   -13397427.039 7 -10439544.952 6
  23664858.160    -8701618.797 5  -6780471.432 2
  20127322.445   -24902910.303 9 -19404840.495 9
  23161638.232    15244140.791 6  11878570.701 3
 92  4 12  7 24 59.9990000  0  5 17 23 16  3 20
  20398598.045   -17743069.183 8 -13825755.183 9
  21668013.146   -13482528.006 7 -10505857.361 6
  23682924.852    -8606696.456 5  -6706505.947 2
  20123444.629   -24923300.206 9 -19420728.731 9
  23180954.159    15345626.135 6  11957650.094 4
 92  4 12  7 25 29.9990000  0  5 17 23 16  3 20
  20393485.084   -17769949.887 8 -13846701.176 9
  21651884.612   -13567280.812 7 -10571898.482 6
  23701012.231    -8511640.344 5  -6632436.289 4
  20119633.667   -24943330.577 9 -19436336.817 9
  23200287.475    15447200.234 6  12036798.665 4
 92  4 12  7 25 59.9990000  0  5 17 23 16  3 20
  20388421.889   -17796554.580 8 -13867432.089 9
  21635821.433   -13651682.657 7 -10637666.124 5
  23719126.591    -8416434.470 5  -6558249.921 3
  20115891.058   -24962995.669 9 -19451660.263 9
  23219628.885    15548864.150 6  12116017.205 3
 92  4 12  7 26 29.9980000  0  5 17 23 16  3 20
  20383411.757   -17822885.611 8 -13887949.762 9
  21619830.203   -13735726.946 7 -10703155.153 6
  23737279.024    -8321075.583 5  -6483944.324 4
  20112216.502   -24982297.418 9 -19466700.595 9
  23238990.981    15650607.215 6  12195297.489 2
 92  4 12  7 26 59.9980000  0  5 17 23 16  3 20
  20378448.394   -17848954.772 8 -13908263.386 9
  21603901.930   -13819415.907 7 -10768367.298 6
  23755450.045    -8225562.922 5  -6409518.875 2
  20108616.595   -25001237.525 9 -19481459.122 9
  23258369.266    15752430.734 6  12274640.416 2
 92  4 12  7 27 29.9980000  0  5 17 23 16  3 20
  20373539.292   -17874761.065 8 -13928372.166 9
  21588042.009   -13902761.369 7 -10833311.784 7
  23773654.042    -8129909.118 5  -6334983.474 3
  20105076.646   -25019815.889 9 -19495935.778 9
  23277759.242    15854325.737 6  12354039.044 4
 92  4 12  7 27 59.9980000  0  5 17 23 16  3 20
  20368677.858   -17900303.053 8 -13948274.999 9
  21572248.643   -13985766.475 7 -10897991.066 6
  23791876.027    -8034127.680 5  -6260348.650 4
  20101611.044   -25038030.009 9 -19510128.605 9
  23297162.710    15956289.724 6  12433491.428 4
 92  4 12  7 28 29.9980000  0  5 17 23 16  3 20
  20363867.088   -17925584.089 9 -13967974.484 9
  21556516.134   -14068437.330 7 -10962409.880 6
  23810130.989    -7938230.706 5  -6185623.733 2
  20098215.595   -25055879.252 9 -19524037.109 9
  23316573.972    16058318.705 6  12512994.475 3
 92  4 12  7 28 59.9980000  0  5 17 23 16  3 20
  20359104.885   -17950610.246 8 -13987475.369 9
  21540848.681   -14150782.387 7 -11026574.836 6
  23828404.239    -7842230.825 5  -6110818.598 2
  20094889.397   -25073361.826 9 -19537659.904 9
  23336003.221    16160409.370 6  12592545.540 2
 92  4 12  7 29 29.9980000  0  5 17 23 16  3 20
  20354385.852   -17975403.745 8 -14006794.971 9
  21525238.487   -14232807.447 7 -11090490.438 6
  23846683.485    -7746135.155 6  -6035938.905 3
  20091632.452   -25090479.208 9 -19550998.132 9
  23355438.767    16262555.453 5  12672139.844 2
 92  4 12  7 29 59.9980000  0  5 17 23 16  3 20
  20349707.291   -17999987.214 9 -14025950.906 9
  21509693.949   -14314508.699 7 -11154153.721 6
  23864993.009    -7649943.485 6  -5960984.384 2
  20088442.361   -25107236.077 9 -19564055.432 9
  23374886.902    16364747.785 6  12751770.171 3
 92  4 12  7 30 29.9980000  0  5 17 23 16  3 20
  20345071.301   -18024365.061 9 -14044946.613 9
  21494206.670   -14395887.944 7 -11217566.085 6
  23883306.131    -7553666.478 5  -5885963.321 2
  20085323.020   -25123633.982 9 -19576833.028 9
  23394335.039    16466980.068 5  12831431.617 4
 92  4 12  7 30 59.9980000  0  5 17 23 16  3 20
  20340469.786   -18048536.663 9 -14063781.616 9
  21478787.145   -14476916.580 7 -11280705.252 7
  23901651.631    -7457290.682 6  -5810865.287 3
  20082270.833   -25139661.396 9 -19589321.932 9
  23413805.359    16569258.709 6  12911129.156 3
 92  4 12  7 31 29.9980000  0  5 17 23 16  3 20
  20335905.745   -18072518.475 9 -14082468.726 9
  21463434.774   -14557590.830 7 -11343568.276 7
  23920009.123    -7360819.665 5  -5735693.074 2
  20079293.294   -25155325.336 9 -19601527.609 9
  23433269.086    16671572.062 5  12990853.789 3
 92  4 12  7 31 59.9980000  0  5 17 23 16  3 20
  20331382.177   -18096296.224 9 -14100996.829 9
  21448145.658   -14637915.234 7 -11406158.690 7
  23938387.599    -7264249.888 5  -5660443.847 2
  20076379.012   -25170624.783 9 -19613449.253 9
  23452750.798    16773916.469 5  13070602.620 2
 92  4 12  7 32 29.9980000  0  5 17 23 16  3 20
  20326896.383   -18119862.954 9 -14119360.509 9
  21432928.193   -14717896.113 7 -11468481.423 6
  23956780.166    -7167584.410 5  -5585120.105 2
  20073538.179   -25185557.080 9 -19625084.817 9
  23472229.813    16876289.573 5  13150373.846 3
 92  4 12  7 32 59.9980000  0  5 17 23 16  3 20
  20322450.160   -18143222.300 9 -14137562.583 9
  21417775.783   -14797526.533 7 -11530531.069 6
  23975191.020    -7070809.858 5  -5509711.413 3
  20070768.696   -25200122.809 9 -19636434.743 9
  23491714.824    16978686.067 5  13230163.229 4
 92  4 12  7 33 29.9980000  0  5 17 23 16  3 20
  20318048.908   -18166361.469 9 -14155593.096 9
  21402686.929   -14876819.738 7 -11592317.951 7
  23993630.656    -6973927.237 5  -5434218.457 2
  20068065.768   -25214318.538 9 -19647496.341 9
  23511204.032    17081104.660 5  13309969.836 2
 92  4 12  7 33 59.9980000  0  5 17 23 16  3 20
  20313691.724   -18189264.895 9 -14173439.914 9
  21387656.834   -14955788.940 7 -11653852.368 7
  24012084.080    -6876940.821 5  -5358644.580 3
  20065434.788   -25228144.736 9 -19658270.009 9
  23530684.846    17183540.004 5  13389789.510 4
 92  4 12  7 34 29.9980000  0  5 17 23 16  3 20
  20309376.811   -18211939.625 9 -14191108.525 9
  21372695.391   -15034428.208 7 -11715129.692 7
  24030557.591    -6779858.502 5  -5282996.069 3
  20062874.261   -25241600.987 9 -19668755.407 9
  23550187.545    17285987.642 5  13469618.793 3
 92  4 12  7 34 59.9980000  0  5 17 23 16  3 20
  20305103.869   -18234393.243 9 -14208604.849 9
  21357796.306   -15112726.012 7 -11776140.938 7
  24049049.990    -6682692.226 5  -5207282.074 2
  20060381.187   -25254691.518 9 -19678955.824 9
  23569693.241    17388439.003 5  13549450.946 2
 92  4 12  7 35 29.9980000  0  5 17 23 16  3 20
  20300871.399   -18256621.086 9 -14225925.237 9
  21342958.977   -15190685.187 7 -11836888.319 7
  24067543.586    -6585455.391 5  -5131513.049 3
  20057962.461   -25267409.188 9 -19688865.696 9
  23589178.551    17490896.184 5  13629287.690 3
 92  4 12  7 35 59.9980000  0  5 17 23 16  3 20
  20296685.097   -18278622.878 9 -14243069.475 9
  21328189.401   -15268307.757 7 -11897373.403 6
  24086067.763    -6488150.723 5  -5055691.244 2
  20055615.386   -25279755.527 9 -19698486.216 9
  23608686.047    17593353.071 5  13709124.126 3
 92  4 12  7 36 29.9980000  0  5 17 23 16  3 20
  20292544.664   -18300401.798 9 -14260040.059 9
  21313483.383   -15345580.086 7 -11957585.574 7
  24104592.238    -6390781.595 5  -4979819.148 2
  20053335.764   -25291724.825 9 -19707812.942 9
  23628166.561    17695810.922 5  13788961.364 3
 92  4 12  7 36 59.9980000  0  5 17 23 16  3 20
  20288440.205   -18321945.634 9 -14276827.452 9
  21298844.516   -15422508.122 7 -12017529.469 7
  24123140.098    -6293354.058 5  -4903901.577 3
  20051132.890   -25303316.905 9 -19716845.734 9
  23647680.952    17798264.737 5  13868795.454 1
 92  4 12  7 37 29.9980000  0  5 17 23 16  3 20
  20284388.810   -18343254.108 9 -14293431.451 9
  21284266.808   -15499117.951 7 -12077225.412 7
  24141686.459    -6195875.649 5  -4827944.425 3
  20048991.472   -25314532.399 9 -19725585.093 9
  23667177.654    17900709.881 5  13948622.749 1
 92  4 12  7 37 59.9980000  0  5 17 23 16  3 20
  20280374.889   -18364329.790 9 -14309854.055 9
  21269749.658   -15575394.757 7 -12136661.852 7
  24160238.815    -6098352.111 5  -4751952.009 2
  20046934.895   -25325369.030 9 -19734029.215 9
  23686662.065    18003143.944 5  14028441.502 3
 92  4 12  7 38 29.9980000  0  5 17 23 16  3 20
  20276407.136   -18385181.004 9 -14326101.745 9
  21255305.358   -15651317.402 7 -12195822.319 7
  24178813.056    -6000790.785 5  -4675930.162 2
  20044943.374   -25335823.496 9 -19742175.559 9
  23706152.472    18105565.192 5  14108250.215 2
 92  4 12  7 38 59.9980000  0  5 17 23 16  3 20
  20272484.351   -18405804.824 9 -14342172.256 9
  21240921.616   -15726881.003 7 -12254703.017 7
  24197389.096    -5903182.470 5  -4599871.773 4
  20043027.401   -25345890.941 9 -19750020.321 9
  23725650.374    18207974.345 5  14188049.438 2
 92  4 12  7 39 29.9980000  0  5 17 23 16  3 20
  20268599.041   -18426218.665 9 -14358079.143 9
  21226616.119   -15802080.512 7 -12313300.016 7
  24215970.833    -5805528.640 5  -4523777.855 1
  20041183.378   -25355575.344 9 -19757566.598 9
  23745118.896    18310362.465 5  14267832.320 3
 92  4 12  7 39 59.9980000  0  5 17 23 16  3 20
  20264755.102   -18446419.326 9 -14373819.897 9
  21212375.378   -15876894.524 7 -12371596.609 7
  24234560.363    -5707820.663 5  -4447641.734 2
  20039418.499   -25364871.900 9 -19764810.671 9
  23764606.606    18412730.298 5  14347599.361 2
 92  4 12  7 40 29.9980000  0  5 17 23 16  3 20
  20260949.237   -18466410.921 9 -14389397.755 9
  21198212.882   -15951332.330 7 -12429600.068 8
  24253169.380    -5610048.765 5  -4371455.868 2
  20037722.573   -25373776.805 9 -19771749.563 9
  23784084.121    18515076.269 5  14427349.494 2
 92  4 12  7 40 59.9980000  0  5 17 23 16  3 20
  20257188.640   -18486201.994 9 -14404819.376 9
  21184116.341   -16025407.212 7 -12487320.727 7
  24271783.494    -5512212.829 5  -4295220.071 2
  20036100.697   -25382290.033 9 -19778383.245 9
  23803557.740    18617395.842 5  14507078.959 2
 92  4 12  7 41 29.9980000  0  5 17 23 16  3 20
  20253455.924   -18505800.626 9 -14420091.024 9
  21170089.352   -16099117.422 7 -12544757.219 7
  24290412.897    -5414318.193 5  -4218938.487 2
  20034558.564   -25390408.485 9 -19784709.316 9
  23823015.170    18719688.216 5  14586787.208 3
 92  4 12  7 41 59.9980000  0  5 17 23 16  3 20
  20249760.083   -18525219.889 9 -14435222.907 9
  21156129.816   -16172477.700 7 -12601921.038 7
  24309052.493    -5316373.990 5  -4142618.382 3
  20033084.184   -25398133.525 9 -19790728.830 8
  23842472.900    18821947.340 5  14666469.588 2
 92  4 12  7 42 29.9980000  0  5 17 23 16  3 20
  20246096.319   -18544459.486 9 -14450214.792 9
  21142237.134   -16245488.971 7 -12658812.910 7
  24327703.182    -5218377.814 5  -4066257.763 2
  20031691.648   -25405462.365 9 -19796439.613 9
  23861924.034    18924171.004 5  14746124.296 2
 92  4 12  7 42 59.9980000  0  5 17 23 16  3 20
  20242472.728   -18563502.968 9 -14465053.857 9
  21128407.707   -16318152.462 7 -12715433.780 7
  24346357.467    -5120336.331 5  -3989861.784 4
  20030375.259   -25412393.111 9 -19801840.198 9
  23881375.767    19026356.953 5  14825749.678 3
 92  4 12  7 43 29.9980000  0  4 17 23  3 20
  20238889.308   -18582331.528 9 -14479725.457 9
  21114650.832   -16390468.400 7 -12771783.829 7
  20029131.121   -25418924.533 9 -19806929.621 9
  23900827.202    19128501.831 5  14905343.022 2
 92  4 12  7 43 59.9980000  0  4 17 23  3 20
  20235352.357   -18600929.699 9 -14494217.522 9
  21100952.714   -16462431.526 7 -12827858.963 7
  20027963.430   -25425051.914 9 -19811704.211 9
  23920246.258    19230606.193 5  14984904.795 2
 92  4 12  7 44 29.9980000  0  4 17 23  3 20
  20231860.375   -18619280.482 9 -14508516.831 9
  21087327.148   -16534037.673 7 -12883655.928 7
  20026873.983   -25430777.669 9 -19816165.840 9
  23939672.210    19332662.871 5  15064429.425 3
 92  4 12  7 44 59.9980000  0  4 17 23  3 20
  20228416.958   -18637377.976 9 -14522618.771 9
  21073772.331   -16605275.145 7 -12939165.618 6
  20025860.985   -25436095.050 9 -19820309.262 9
  23959088.568    19434674.286 5  15143918.760 2
 92  4 12  7 45 29.9980000  0  4 17 23  3 20
  20225017.012   -18655234.984 9 -14536533.305 9
  21060286.167   -16676139.082 7 -12994384.238 7
  20024931.029   -25441003.626 9 -19824134.134 9
  23978471.649    19536636.481 5  15223369.731 2
 92  4 12  7 45 59.9980000  0  4 17 23  3 20
  20221665.333   -18672860.234 9 -14550267.259 9
  21046871.953   -16746633.286 7 -13049314.757 7
  20024071.823   -25445501.756 9 -19827639.185 9
  23997867.322    19638546.724 5  15302780.313 2
 92  4 12  7 46 29.9980000  0  4 17 23  3 20
  20218354.424   -18690259.115 9 -14563824.823 9
  21033527.592   -16816749.878 7 -13103951.030 7
  20023296.260   -25449589.529 9 -19830824.485 9
  24017244.108    19740400.356 5  15382146.686 2
 92  4 12  7 46 59.9980000  0  4 17 23  3 20
  20215082.490   -18707441.280 9 -14577213.522 9
  21020258.478   -16886487.192 7 -13158291.762 7
  20022598.344   -25453261.715 9 -19833685.939 9
  24036619.095    19842198.278 5  15461469.691 3
 92  4 12  7 47 29.9980000  0  4 17 23  3 20
  20211858.822   -18724394.802 9 -14590424.056 9
  21007060.115   -16955842.778 7 -13212335.039 7
  20021977.174   -25456515.857 9 -19836221.639 9
  24055976.694    19943938.565 5  15540747.725 2
 92  4 12  7 47 59.9980000  0  4 17 23  3 20
  20208677.124   -18741116.846 9 -14603454.218 9
  20993935.801   -17024812.983 7 -13266078.028 8
  20021438.447   -25459350.913 9 -19838430.793 9
  24075341.488    20045618.250 5  15619978.603 2
 92  4 12  7 48 29.9980000  0  4 17 23  3 20
  20205536.798   -18757613.683 9 -14616308.884 9
  20980887.334   -17093383.846 8 -13319509.836 8
  20020976.466   -25461763.685 9 -19840310.886 9
  24094677.801    20147236.065 5  15699161.251 2
 92  4 12  7 48 59.9980000  0  5 17 23 21  3 20
  20202436.344   -18773893.868 9 -14628994.731 9
  20967909.918   -17161569.949 7 -13372641.831 7
  24005388.215     -232966.258 4   -181532.501 2
  20020599.927   -25463758.405 9 -19841865.215 9
  24114002.723    20248783.339 5  15778288.966 3
 92  4 12  7 49 29.9980000  0  5 17 23 21  3 20
  20199379.361   -18789964.778 9 -14641517.517 9
  20955012.547   -17229366.077 8 -13425469.959 8
  23984945.967     -340324.432 4   -265188.108 1
  20020298.935   -25465332.878 9 -19843092.087 9
  24133295.567    20350257.970 5  15857359.999 2
 92  4 12  7 49 59.9980000  0  5 17 23 21  3 20
  20196358.652   -18805847.814 9 -14653893.906 9
  20942183.229   -17296774.702 8 -13477996.127 7
  23964544.791     -447564.815 4   -348751.944 3
  20020080.087   -25466479.623 9 -19843985.664 9
  24152603.700    20451663.327 5  15936377.079 3
 92  4 12  7 50 29.9980000  0  5 17 23 21  3 20
  20193369.422   -18821549.388 9 -14666128.882 9
  20929426.759   -17363805.914 8 -13530228.209 8
  23944162.801     -554688.521 4   -432224.862 2
  20019943.382   -25467199.180 9 -19844546.362 9
  24171888.749    20552994.345 5  16015336.258 3
 92  4 12  7 50 59.9980000  0  5 17 23 21  3 20
  20190414.967   -18837067.868 9 -14678221.190 9
  20916743.739   -17430474.297 8 -13582177.571 8
  23923801.797     -661681.757 4   -515596.140 3
  20019890.019   -25467489.806 9 -19844772.840 9
  24191169.902    20654248.902 5  16094235.778 2
 92  4 12  7 51 29.9980000  0  5 17 23 21  3 20
  20187497.386   -18852399.478 9 -14690167.883 9
  20904120.079   -17496793.132 8 -13633854.551 8
  23903464.475     -768526.991 4   -598852.042 2
  20019914.002   -25467351.168 9 -19844664.838 9
  24210395.592    20755422.955 5  16173072.644 2
 92  4 12  7 51 59.9980000  0  5 17 23 21  3 20
  20184617.880   -18867534.602 9 -14701961.481 9
  20891569.268   -17562767.889 8 -13685263.422 8
  23883157.734     -875211.785 4   -681982.972 2
  20020022.227   -25466783.300 9 -19844222.366 9
  24229642.268    20856512.397 5  16251843.532 2
 92  4 12  7 52 29.9980000  0  5 17 23 21  3 20
  20181781.544   -18882451.404 9 -14713584.947 9
  20879079.614   -17628390.517 8 -13736397.903 7
  23862886.067     -981751.860 4   -765001.124 2
  20020211.995   -25465784.053 8 -19843443.737 9
  24248869.757    20957515.166 5  16330546.871 2
 92  4 12  7 52 59.9980000  0  5 17 23 21  3 20
  20178985.380   -18897141.834 9 -14725032.007 9
  20866659.512   -17693650.453 8 -13787249.767 7
  23842643.181    -1088159.926 4   -847916.399 2
  20020485.406   -25464349.966 9 -19842326.274 9
  24268076.560    21058430.849 5  16409182.429 2
 92  4 12  7 53 29.9980000  0  5 17 23 21  3 20
  20176237.482   -18911593.746 9 -14736293.220 9
  20854314.059   -17758526.240 8 -13837802.298 7
  23822412.288    -1194447.223 4   -930737.590 1
  20020840.660   -25462474.949 9 -19840865.220 9
  24287249.187    21159261.222 5  16487751.410 2
 92  4 12  7 53 59.9980000  0  5 17 23 21  3 20
  20173530.055   -18925801.777 9 -14747364.403 9
  20842047.451   -17822990.868 8 -13888034.441 8
  23802215.869    -1300630.471 5  -1013477.675 3
  20021285.852   -25460156.061 9 -19839058.301 9
  24306424.812    21260005.036 5  16566252.944 3
 92  4 12  7 54 29.9980000  0  5 17 23 21  3 20
  20170874.194   -18939760.705 9 -14758241.486 9
  20829859.089   -17887040.960 8 -13937943.572 8
  23782031.142    -1406715.702 5  -1096141.398 2
  20021809.290   -25457393.917 9 -19836905.979 8
  24325585.448    21360658.286 5  16644683.946 2
 92  4 12  7 54 59.9980000  0  5 17 23 21  3 20
  20168263.601   -18953472.839 9 -14768926.250 9
  20817750.771   -17950671.838 8 -13987526.046 8
  23761868.301    -1512680.604 5  -1178711.351 2
  20022421.167   -25454186.052 8 -19834406.355 9
  24344719.701    21461218.717 5  16723042.567 1
 92  4 12  7 55 29.9980000  0  5 17 23 21  3 20
  20165704.273   -18966935.606 9 -14779416.708 9
  20805721.299   -18013880.015 8 -14036779.131 7
  23741719.250    -1618504.412 5  -1261171.357 3
  20023118.184   -25450525.884 9 -19831554.296 9
  24363839.265    21561688.674 5  16801330.735 2
 92  4 12  7 55 59.9980000  0  5 17 23 21  3 20
  20163192.312   -18980150.519 9 -14789714.044 9
  20793772.770   -18076665.630 8 -14085702.963 8
  23721610.071    -1724178.512 5  -1343514.753 2
  20023898.543   -25446409.832 8 -19828346.988 9
  24382945.938    21662068.450 5  16879548.580 1
 92  4 12  7 56 29.9980000  0  5 17 23 21  3 20
  20160715.727   -18993137.968 9 -14799834.122 9
  20781903.088   -18139050.775 8 -14134314.730 7
  23701533.869    -1829691.609 5  -1425732.676 3
  20024771.540   -25441841.537 8 -19824787.299 9
  24402016.036    21762349.308 5  16957689.393 4
 92  4 12  7 56 59.9980000  0  4 17 23 21  3
  20158288.008   -19005911.688 9 -14809787.644 9
  20770108.354   -18201034.846 8 -14182613.976 8
  23681484.350    -1935043.340 5  -1507824.836 1
  20025724.280   -25436815.607 9 -19820870.995 9
 92  4 12  7 57 29.9980000  0  4 17 23 21  3
  20155892.067   -19018487.218 9 -14819586.740 9
  20758384.669   -18262639.870 8 -14230617.874 8
  23661470.505    -2040253.445 5  -1589806.671 2
  20026766.658   -25431339.216 9 -19816603.692 8
 92  4 12  7 57 59.9980000  0  4 17 23 21  3
  20153537.796   -19030863.348 9 -14829230.470 9
  20746737.433   -18323860.569 8 -14278322.288 7
  23641480.944    -2145313.259 5  -1671671.381 2
  20027899.274   -25425406.706 8 -19811980.975 9
 92  4 12  7 58 29.9980000  0  4 17 23 21  3
  20151220.700   -19043049.890 9 -14838726.475 9
  20735155.251   -18384706.649 8 -14325734.788 8
  23621519.262    -2250218.450 5  -1753415.643 1
  20029112.833   -25419020.186 8 -19807004.479 9
 92  4 12  7 58 59.9980000  0  4 17 23 21  3
  20148938.680   -19055042.116 9 -14848071.049 9
  20723651.015   -18445167.540 8 -14372847.161 9
  23601571.072    -2354974.819 5  -1835043.919 2
  20030413.334   -25412178.977 8 -19801673.686 8
 92  4 12  7 59 29.9980000  0  4 17 23 21  3
  20146699.230   -19066820.701 9 -14857249.161 9
  20712223.526   -18505224.999 8 -14419645.150 8
  23581675.946    -2459560.832 5  -1916539.436 2
  20031804.070   -25404879.867 8 -19795986.066 8
 92  4 12  7 59 59.9980000  0  4 17 23 21  3
  20144497.255   -19078382.265 9 -14866258.161 9
  20700872.485   -18564863.991 8 -14466117.069 8
  23561810.798    -2563979.016 5  -1997904.186 2
  20033280.548   -25397122.325 9 -19789941.235 9
 92  4 12  8  0 29.9980000  0  4 17 23 21  3
  20142336.350   -19089724.583 9 -14875096.319 9
  20689606.884   -18624072.987 8 -14512253.917 7
  23541966.036    -2668237.922 5  -2079144.858 3
  20034842.767   -25388901.307 9 -19783535.266 8
 92  4 12  8  0 59.9980000  0  4 17 23 21  3
  20140219.816   -19100844.452 9 -14883761.155 9
  20678420.727   -18682849.387 8 -14558053.678 8
  23522153.951    -2772345.353 5  -2160267.458 2
  20036497.921   -25380217.033 8 -19776768.308 9
 92  4 12  8  1 29.9980000  0  4 17 23 21  3
  20138149.449   -19111741.512 9 -14892252.358 9
  20667314.316   -18741208.254 8 -14603528.090 9
  23502375.145    -2876308.140 5  -2241277.353 1
  20038236.118   -25371073.201 8 -19769643.246 9
 92  4 12  8  1 59.9980000  0  4 17 23 21  3
  20136117.756   -19122415.285 9 -14900569.583 9
  20656286.151   -18799164.294 8 -14648688.610 8
  23482609.227    -2980138.641 4  -2322184.190 2
  20040067.250   -25361461.979 9 -19762153.992 9
 92  4 12  8  2 29.9980000  0  4 17 23 21  3
  20134130.731   -19132859.267 9 -14908707.757 9
  20645331.434   -18856729.553 8 -14693544.616 8
  23462881.386    -3083823.706 5  -2402977.693 2
  20041981.425   -25351382.913 8 -19754300.180 8
 92  4 12  8  2 59.9980000  0  4 17 23 21  3
  20132189.874   -19143058.398 9 -14916655.124 9
  20634452.566   -18913908.558 8 -14738099.653 8
  23443189.517    -3187346.303 5  -2483644.613 3
  20043990.035   -25340835.012 8 -19746081.048 8
 92  4 12  8  3 29.9980000  0  4 17 23 21  3
  20130295.187   -19153018.091 9 -14924415.920 9
  20623644.748   -18970695.952 8 -14782349.526 8
  23423508.443    -3290700.521 5  -2564180.335 3
  20046084.984   -25329818.726 8 -19737496.939 8
 92  4 12  8  3 59.9980000  0  4 17 23 21  3
  20128442.470   -19162744.646 9 -14931995.046 9
  20612915.476   -19027081.253 8 -14826286.101 8
  23403866.940    -3393877.086 4  -2644577.600 2
  20048273.769   -25318329.798 8 -19728544.523 8
 92  4 12  8  4 29.9980000  0  4 17 23 21  3
  20126633.221   -19172245.932 9 -14939398.644 9
  20602268.346   -19083035.830 8 -14869887.049 9
  23384284.497    -3496857.092 5  -2724821.709 2
  20050551.891   -25306362.673 8 -19719219.517 8
 92  4 12  8  4 59.9980000  0  4 17 23 21  3
  20124865.046   -19181543.064 9 -14946643.157 9
  20591700.663   -19138559.707 8 -14913152.387 9
  23364711.647    -3599659.748 5  -2804927.662 1
  20052916.654   -25293926.953 8 -19709529.360 8
 92  4 12  8  5 29.9980000  0  4 17 23 21  3
  20123133.745   -19190639.505 9 -14953731.297 9
  20581218.119   -19193655.757 8 -14956084.353 9
  23345188.562    -3702294.447 5  -2884902.696 3
  20055370.756   -25281018.981 8 -19699471.216 8
 92  4 12  8  5 59.9980000  0  4 17 23 21  3
  20121442.316   -19199529.340 9 -14960658.428 9
  20570813.822   -19248331.948 8 -14998689.145 8
  23325685.564    -3804764.382 5  -2964749.367 1
  20057921.690   -25267636.619 8 -19689043.414 8
 92  4 12  8  6 29.9980000  0  4 17 23 21  3
  20119791.658   -19208210.772 9 -14967423.176 9
  20560487.171   -19302589.562 8 -15040967.779 8
  23306230.532    -3907070.932 5  -3044468.723 2
  20060555.066   -25253779.497 8 -19678245.660 9
 92  4 12  8  6 59.9980000  0  4 17 23 21  3
  20118181.772   -19216667.298 9 -14974012.669 9
  20550240.865   -19356443.467 8 -15082931.850 8
  23286785.693    -4009224.578 5  -3124068.926 2
  20063281.079   -25239445.300 8 -19667076.163 8
 92  4 12  8  7 29.9980000  0  4 17 23 21  3
  20116615.657   -19224905.812 9 -14980432.287 9
  20540070.406   -19409897.822 8 -15124584.565 9
  23267373.832    -4111217.207 5  -3203543.633 2
  20066103.026   -25224631.509 8 -19655532.957 8
 92  4 12  8  7 59.9980000  0  4 17 23 21  3
  20115088.514   -19232933.048 9 -14986687.278 9
  20529971.297   -19462955.155 8 -15165927.913 8
  23247992.550    -4213039.741 5  -3282885.853 2
  20069013.112   -25209339.546 8 -19643617.151 8
 92  4 12  8  8 29.9980000  0  4 17 23 21  3
  20113602.442   -19240737.935 9 -14992769.000 9
  20519948.635   -19515620.314 8 -15206965.685 9
  23228655.936    -4314688.934 5  -3362092.973 2
  20072014.633   -25193568.568 9 -19631328.075 8
 92  4 12  8  8 59.9980000  0  4 17 23 21  3
  20112160.741   -19248310.745 9 -14998669.885 9
  20510002.421   -19567901.447 8 -15247704.202 8
  23209344.505    -4416166.583 5  -3441166.409 3
  20075105.494   -25177316.402 8 -19618664.067 8
 92  4 12  8  9 29.9980000  0  4 17 23 21  3
  20110762.809   -19255651.953 9 -15004390.291 9
  20500125.159   -19619794.718 8 -15288140.490 9
  23190068.150    -4517452.986 5  -3520090.868 2
  20078292.588   -25160580.096 8 -19605622.808 8
 92  4 12  8  9 59.9980000  0  4 17 23 21  3
  20109413.742   -19262751.382 9 -15009922.287 9
  20490324.643   -19671294.590 8 -15328270.237 9
  23170831.068    -4618551.259 5  -3598868.687 3
  20081566.920   -25143362.070 9 -19592206.179 8
 92  4 12  8 10 29.9980000  0  4 17 23 21  3
  20108106.947   -19269603.494 9 -15015261.586 9
  20480606.871   -19722381.276 8 -15368078.028 9
  23151627.562    -4719459.686 5  -3677498.583 1
  20084935.988   -25125657.420 8 -19578410.371 8
 92  4 12  8 10 59.9980000  0  4 17 23 21  3
  20106851.417   -19276217.844 9 -15020415.622 9
  20470969.443   -19773027.121 8 -15407542.292 9
  23132469.025    -4820174.948 5  -3755977.971 2
  20088400.390   -25107462.986 8 -19564232.900 8
 92  4 12  8 11 29.9980000  0  4 17 23 21  3
  20105631.561   -19282609.977 9 -15025396.490 9
  20461416.556   -19823220.457 8 -15446653.958 9
  23113334.172    -4920700.138 5  -3834309.257 2
  20091956.828   -25088781.514 8 -19549675.926 8
 92  4 12  8 11 59.9980000  0  4 17 23 21  3
  20104461.471   -19288774.598 9 -15030200.085 9
  20451950.009   -19872955.644 8 -15485408.622 8
  23094238.592    -5021044.959 5  -3912499.979 2
  20095602.304   -25069606.637 8 -19534734.478 8
 92  4 12  8 12 29.9980000  0  4 17 23 21  3
  20103327.356   -19294723.381 9 -15034835.478 9
  20442571.302   -19922241.861 8 -15523813.442 9
  23075182.284    -5121216.851 5  -3990555.977 3
  20099347.911   -25049941.581 8 -19519411.074 8
 92  4 12  8 12 59.9980000  0  4 17 23 21  3
  20102234.912   -19300456.756 9 -15039303.032 9
  20433277.736   -19971081.539 8 -15561870.309 9
  23056149.960    -5221200.842 5  -4068465.540 2
  20103183.156   -25029781.083 8 -19503701.617 8
 92  4 12  8 13 29.9980000  0  4 17 23 21  3
  20101184.140   -19305986.007 9 -15043611.535 9
  20424066.313   -20019501.600 8 -15599600.200 9
  23037162.904    -5320988.982 5  -4146222.503 3
  20107114.335   -25009126.466 8 -19487607.115 7
 92  4 12  8 13 59.9980000  0  4 17 23 21  3
  20100172.940   -19311303.287 9 -15047754.858 9
  20414928.339   -20067500.061 8 -15637001.572 8
  23018206.427    -5420570.046 5  -4223818.101 4
  20111139.347   -24987974.488 8 -19471125.067 7
 92  4 12  8 14 29.9980000  0  4 17 23 21  3
  20099203.112   -19316410.155 9 -15051734.228 9
  20405874.907   -20115081.242 8 -15674077.787 9
  22999301.814    -5519931.309 5  -4301242.424 3
  20115256.698   -24966323.519 8 -19454254.188 8
 92  4 12  8 14 59.9980000  0  4 17 23 21  3
  20098269.558   -19321303.692 9 -15055547.360 9
  20396898.221   -20162259.732 8 -15710840.220 9
  22980438.574    -5619072.632 5  -4378495.372 4
  20119474.178   -24944172.877 8 -19436993.954 8
 92  4 12  8 15 29.9980000  0  4 17 23 21  3
  20097382.172   -19325973.999 9 -15059186.551 9
  20387993.785   -20209047.300 8 -15747298.038 9
  22961608.609    -5718012.462 5  -4455591.332 3
  20123783.395   -24921521.781 8 -19419343.766 7
 92  4 12  8 15 59.9980000  0  4 17 23 21  3
  20096537.956   -19330402.973 9 -15062637.690 9
  20379167.896   -20255431.595 8 -15783441.617 9
  22942820.616    -5816747.098 5  -4532527.372 3
  20128189.745   -24898368.757 8 -19401302.466 8
 92  4 12  8 16 29.9980000  0  4 17 23 21  3
  20095740.808   -19334599.849 9 -15065907.979 9
  20370419.652   -20301423.057 8 -15819279.095 9
  22924073.994    -5915272.831 5  -4609300.645 2
  20132689.329   -24874715.911 8 -19382871.710 8
 92  4 12  8 16 59.9980000  0  4 17 23 21  3
  20094983.232   -19338568.204 9 -15069000.199 9
  20361743.359   -20347003.729 8 -15854796.472 9
  22905369.342    -6013580.913 6  -4685904.307 3
  20137286.047   -24850559.321 8 -19364048.416 8
 92  4 12  8 17 29.9980000  0  4 17 23 21  3
  20094275.123   -19342305.655 9 -15071912.502 9
  20353152.206   -20392144.601 8 -15889971.150 9
  22886704.265    -6111649.186 5  -4762321.101 2
  20141979.298   -24825898.986 8 -19344832.591 7
 92  4 12  8 17 59.9980000  0  4 17 23 21  3
  20093604.187   -19345826.146 9 -15074655.737 9
  20344647.993   -20436833.939 8 -15924793.987 9
  22868087.453    -6209468.784 5  -4838544.117 2
  20146768.782   -24800736.125 8 -19325225.187 7
 92  4 12  8 18 29.9980000  0  4 17 23 21  3
  20092973.424   -19349137.367 9 -15077235.910 9
  20336230.120   -20481076.456 8 -15959268.651 9
  22849518.907    -6307063.470 5  -4914591.915 3
  20151653.601   -24775069.126 8 -19305224.952 8
 92  4 12  8 18 59.9980000  0  4 17 23 21  3
  20092386.431   -19352224.199 9 -15079641.230 9
  20327894.991   -20524866.138 8 -15993390.456 9
  22830993.532    -6404449.066 5  -4990476.753 4
  20156635.852   -24748897.432 8 -19284831.453 8
 92  4 12  8 19 29.9980000  0  4 17 23 21  3
  20091840.808   -19355071.532 9 -15081859.928 9
  20319646.801   -20568216.252 8 -16027169.746 9
  22812492.140    -6501640.272 6  -5066210.112 3
  20161707.140   -24722222.903 8 -19264046.128 8
 92  4 12  8 19 59.9980000  0  4 17 23 21  3
  20091350.648   -19357681.154 9 -15083893.400 9
  20311479.255   -20611150.539 8 -16060625.011 9
  22794030.321    -6598659.113 6  -5141809.185 2
  20166879.760   -24695043.195 8 -19242867.157 8
 92  4 12  8 20 29.9980000  0  4 17 23 21  3
  20090897.361   -19360041.265 9 -15085732.442 9
  20303383.960   -20653673.515 8 -16093759.771 9
  22775601.179    -6695499.328 6  -5217269.056 3
  20172150.711   -24667355.300 8 -19221292.195 7
 92  4 12  8 20 59.9980000  0  4 17 23 21  3
  20090495.939   -19362148.121 9 -15087374.148 9
  20295371.406   -20695787.571 8 -16126575.892 9
  22757211.311    -6792129.525 6  -5292565.276 4
  20177514.298   -24639157.102 8 -19199319.598 7
 92  4 12  8 21 29.9980000  0  4 17 23 21  3
  20090141.584   -19364016.743 9 -15088830.218 9
  20287435.600   -20737495.189 8 -16159075.310 9
  22738869.109    -6888527.304 6  -5367680.397 4
  20182978.914   -24610443.718 8 -19176945.562 7
 92  4 12  8 21 59.9980000  0  4 17 23 21  3
  20089832.498   -19365653.318 9 -15090105.459 9
  20279576.241   -20778786.227 8 -16191250.119 9
  22720572.774    -6984681.777 6  -5442605.921 1
  20188541.264   -24581210.004 8 -19154166.070 8
 92  4 12  8 22 29.9980000  0  4 17 23 21  3
  20089563.584   -19367069.697 9 -15091209.130 9
  20271797.227   -20819659.003 8 -16223099.011 9
  22702313.915    -7080594.484 6  -5517343.046 3
  20194203.444   -24551463.874 8 -19130987.293 7
 92  4 12  8 22 59.9980000  0  4 17 23 21  3
  20089333.044   -19368269.305 9 -15092143.899 9
  20264102.454   -20860108.091 8 -16254617.761 9
  22684118.012    -7176257.655 6  -5591885.746 4
  20199959.159   -24521203.535 8 -19107407.836 8
 92  4 12  8 23 29.9980000  0  4 17 23 21  3
  20089143.276   -19369254.335 9 -15092911.448 9
  20256488.925   -20900118.197 8 -16285794.451 9
  22665953.288    -7271692.133 6  -5666250.236 3
  20205819.802   -24490426.340 8 -19083425.630 7
 92  4 12  8 23 59.9980000  0  4 17 23 21  3
  20089002.073   -19370015.604 9 -15093504.648 9
  20248958.138   -20939685.025 8 -16316625.724 9
  22647836.829    -7366914.285 6  -5740449.280 4
  20211773.380   -24459134.995 8 -19059042.788 7
 92  4 12  8 24 29.9980000  0  4 17 23 21  3
  20088900.443   -19370556.811 9 -15093926.365 9
  20241512.793   -20978810.196 8 -16347112.864 8
  22629756.646    -7461919.034 6  -5814478.907 3
  20217825.890   -24427328.317 8 -19034258.387 7
 92  4 12  8 24 59.9980000  0  4 17 23 21  3
  20088835.689   -19370873.701 9 -15094173.291 9
  20234150.189   -21017496.084 8 -16377257.692 9
  22611718.133    -7556705.190 6  -5888338.186 3
  20223977.931   -24395009.127 8 -19009074.635 7
 92  4 12  8 25 29.9980000  0  4 17 23 21  3
  20088821.299   -19370958.071 9 -15094239.083 9
  20226877.224   -21055732.920 8 -16407052.607 9
  22593723.091    -7651276.081 6  -5962029.758 3
  20230224.107   -24362175.382 8 -18983489.932 6
 92  4 12  8 25 59.9980000  0  4 17 23 21  3
  20088848.879   -19370801.862 9 -15094117.314 9
  20219684.603   -21093531.220 8 -16436505.822 9
  22575772.417    -7745606.375 6  -6035533.842 3
  20236569.215   -24328827.414 8 -18957504.544 7
 92  4 12  8 26 29.9980000  0  4 17 23 21  3
  20088925.926   -19370409.185 9 -15093811.324 9
  20212573.527   -21130891.562 8 -16465617.755 9
  22557869.412    -7839685.992 6  -6108842.599 4
  20243013.853   -24294964.276 8 -18931117.711 7
 92  4 12  8 26 59.9980000  0  4 17 23 21  3
  20089048.241   -19369771.315 9 -15093314.272 9
  20205548.490   -21167808.135 8 -16494383.899 9
  22540017.071    -7933518.973 6  -6181959.157 4
  20249555.324   -24260585.717 8 -18904329.240 7
 92  4 12  8 27 29.9980000  0  4 17 23 21  3
  20089215.225   -19368892.818 9 -15092629.736 9
  20198606.196   -21204293.862 8 -16522814.322 9
  22522202.503    -8027102.460 6  -6254881.328 4
  20256194.529   -24225693.537 8 -18877140.548 8
 92  4 12  8 27 59.9980000  0  4 17 23 21  3
  20089425.381   -19367780.745 9 -15091763.170 9
  20191743.647   -21240359.016 8 -16550917.013 9
  22504446.695    -8120439.166 6  -6327611.158 4
  20262931.765   -24190287.367 8 -18849551.342 7
 92  4 12  8 28 29.9980000  0  4 17 23 21  3
  20089681.403   -19366435.123 9 -15090714.642 9
  20184960.542   -21275996.517 8 -16578686.468 9
  22486728.661    -8213535.359 6  -6400153.612 3
  20269770.630   -24154362.518 8 -18821557.983 8
 92  4 12  8 28 59.9980000  0  4 17 23 21  3
  20089982.695   -19364856.843 9 -15089484.814 9
  20178261.980   -21311217.982 8 -16606131.753 9
  22469058.295    -8306388.489 6  -6472506.652 4
  20276701.832   -24117921.525 8 -18793162.436 7
 92  4 12  8 29 29.9980000  0  4 17 23 21  3
  20090325.357   -19363049.019 9 -15088076.130 9
  20171634.468   -21346033.350 8 -16633260.593 9
  22451437.393    -8398998.986 6  -6544670.636 5
  20283734.063   -24080969.785 8 -18764368.894 7
 92  4 12  8 29 59.9980000  0  4 17 23 21  3
  20090716.287   -19361011.399 9 -15086488.377 9
  20165086.101   -21380430.288 8 -16660063.400 9
  22433856.364    -8491375.905 6  -6616652.623 4
  20290864.327   -24043506.542 8 -18735176.783 8
 92  4 12  8 30 29.9980000  0  4 17 23 21  3
  20091146.489   -19358742.346 9 -15084720.299 9
  20158622.277   -21414411.413 8 -16686542.175 9
  22416322.403    -8583513.822 6  -6688448.358 3
  20298090.524   -24005533.232 8 -18705587.215 7
 92  4 12  8 30 59.9980000  0  4 17 23 21  3
  20091623.758   -19356240.959 9 -15082771.165 9
  20152234.598   -21447980.240 8 -16712699.678 9
  22398833.410    -8675417.106 6  -6760061.253 3
  20305415.054   -23967047.657 8 -18675598.468 7
 92  4 12  8 31 29.9980000  0  4 17 23 21  3
  20092139.701   -19353514.861 9 -15080646.946 9
  20145924.567   -21481138.522 8 -16738537.287 9
  22381390.286    -8767095.214 6  -6831498.720 4
  20312832.818   -23928053.036 8 -18645213.065 7
 92  4 12  8 31 59.9980000  0  4 17 23 21  3
  20092698.215   -19350578.072 9 -15078358.546 9
  20139694.280   -21513889.518 8 -16764057.525 9
  22363985.236    -8858548.193 6  -6902760.741 3
  20320352.213   -23888550.212 8 -18614431.666 7
 92  4 12  8 32 29.9980000  0  4 17 23 21  3
  20093298.699   -19347428.393 9 -15075904.254 9
  20133538.941   -21546227.121 8 -16789255.644 9
  22346627.852    -8949761.794 6  -6973836.235 5
  20327968.140   -23848533.348 8 -18583249.714 7
 92  4 12  8 32 59.9980000  0  4 17 23 21  3
  20093939.955   -19344068.823 9 -15073286.418 9
  20127463.946   -21578146.938 8 -16814128.216 9
  22329310.340    -9040735.838 6  -7044725.064 4
  20335677.004   -23808007.880 8 -18551671.436 7
 92  4 12  8 33 29.9980000  0  4 17 23 21  3
  20094619.584   -19340497.127 9 -15070503.283 9
  20121471.396   -21609635.139 8 -16838664.457 9
  22312052.788    -9131451.743 6  -7115412.732 4
  20343488.396   -23766972.658 8 -18519695.973 7
 92  4 12  8 33 59.9980000  0  4 17 23 21  3
  20095339.986   -19336696.059 9 -15067541.422 9
  20115564.584   -21640676.496 8 -16862852.516 9
  22294840.803    -9221908.948 6  -7185898.820 4
  20351394.223   -23725419.985 8 -18487317.283 7
 92  4 12  8 34 29.9980000  0  4 17 23 21  3
  20096112.251   -19332647.645 9 -15064386.833 9
  20109744.414   -21671268.371 8 -16886690.326 9
  22277672.588    -9312112.015 6  -7256186.894 5
  20359402.279   -23683347.192 8 -18454533.311 7
 92  4 12  8 34 59.9980000  0  4 17 23 21  3
  20096931.284   -19328344.498 9 -15061033.731 9
  20104006.087   -21701425.583 8 -16910189.429 9
  22260563.133    -9402064.286 6  -7326279.525 4
  20367507.768   -23640749.133 8 -18421340.046 7
 92  4 12  8 35 29.9980000  0  4 17 23 21  3
  20097795.586   -19323797.920 9 -15057490.938 9
  20098345.405   -21731165.087 8 -16933363.056 9
  22243485.755    -9491781.176 6  -7396188.752 4
  20375712.488   -23597631.083 8 -18387741.592 7
 92  4 12  8 35 59.9980000  0  4 17 23 21  3
  20098709.952   -19318999.575 9 -15053751.955 9
  20092763.569   -21760490.506 8 -16956214.009 9
  22226456.644    -9581265.907 6  -7465917.062 4
  20384017.938   -23553987.490 8 -18353733.618 7
 92  4 12  8 36 29.9980000  0  4 17 23 21  3
  20099668.389   -19313970.136 9 -15049832.914 9
  20087258.780   -21789425.197 8 -16978760.505 9
  22209474.600    -9670500.186 6  -7535450.223 4
  20392418.722   -23509825.529 8 -18319321.727 6
 92  4 12  8 36 59.9980000  0  4 17 23 21  3
  20100668.197   -19308708.855 9 -15045733.201 9
  20081827.740   -21817955.260 8 -17000991.715 9
  22192547.719    -9759453.062 6  -7604764.113 4
  20400923.235   -23465139.609 8 -18284501.557 6
 92  4 12  8 37 29.9980000  0  4 17 23 21  3
  20101713.573   -19303215.435 9 -15041452.621 9
  20076478.543   -21846067.604 8 -17022897.421 9
  22175677.498    -9848122.137 6  -7673856.860 4
  20409526.679   -23419936.739 8 -18249278.554 6
 92  4 12  8 37 59.9980000  0  4 17 23 21  3
  20102802.720   -19297481.160 9 -15036984.339 9
  20071210.290   -21873757.564 8 -17044473.995 9
  22158856.743    -9936503.071 6  -7742725.082 5
  20418226.656   -23374214.572 8 -18213650.928 7
 92  4 12  8 38 29.9980000  0  4 17 23 21  3
  20103941.631   -19291508.011 9 -15032329.944 9
  20066023.281   -21901017.207 8 -17065715.262 9
  22142095.046   -10024590.874 6  -7811364.881 4
  20427028.263   -23327974.499 8 -18177619.725 6
 92  4 12  8 38 59.9980000  0  4 17 23 21  3
  20105124.912   -19285286.147 9 -15027481.753 9
  20060922.313   -21927835.549 8 -17086612.655 9
  22125385.215   -10112402.083 6  -7879789.163 3
  20435920.407   -23281217.081 8 -18141185.396 6
 92  4 12  8 39 29.9980000  0  4 17 23 21  3
  20106355.260   -19278821.692 9 -15022444.521 9
  20055895.392   -21954225.374 8 -17107176.144 9
  22108725.747   -10199959.691 6  -7948015.826 4
  20444922.275   -23233938.131 8 -18104344.689 6
 92  4 12  8 39 59.9980000  0  4 17 23 21  3
  20107630.577   -19272117.245 9 -15017220.274 9
  20050959.009   -21980176.660 8 -17127397.903 9
  22092113.348   -10287250.252 6  -8016034.418 4
  20454017.678   -23186133.316 8 -18067094.192 7
 92  4 12  8 40 29.9980000  0  4 17 23 21  3
  20108949.963   -19265183.271 9 -15011817.171 9
  20046104.171   -22005690.968 8 -17147279.162 9
  22075553.712   -10374277.608 6  -8083847.898 5
  20463211.413   -23137808.165 8 -18029438.266 7
 92  4 12  8 40 59.9980000  0  4 17 23 21  3
  20110312.220   -19258023.858 9 -15006238.421 9
  20041329.976   -22030775.797 8 -17166825.764 9
  22059039.644   -10461048.681 6  -8151461.694 4
  20472508.278   -23088960.849 8 -17991375.439 7
 92  4 12  8 41 29.9980000  0  4 17 23 21  3
  20111716.448   -19250638.620 9 -15000483.697 9
  20036641.221   -22055417.503 8 -17186027.068 9
  22042578.040   -10547554.414 6  -8218868.720 3
  20481904.372   -23039587.156 8 -17952902.457 6
 92  4 12  8 41 59.9980000  0  4 17 23 21  3
  20113168.343   -19243012.763 9 -14994541.475 9
  20032037.609   -22079607.750 8 -17204876.599 9
  22026166.202   -10633786.923 6  -8286062.837 4
  20491398.200   -22989690.541 8 -17914022.000 6
 92  4 12  8 42 29.9980000  0  4 17 23 21  3
  20114667.306   -19235142.603 9 -14988408.884 9
  20027518.538   -22103358.706 8 -17223383.822 9
  22009810.725   -10719744.456 6  -8353042.697 5
  20500994.557   -22939267.266 8 -17874731.155 6
 92  4 12  8 42 59.9980000  0  4 17 23 21  3
  20116207.939   -19227025.345 9 -14982083.759 9
  20023081.909   -22126679.840 8 -17241556.112 9
  21993513.108   -10805415.844 6  -8419799.583 5
  20510688.945   -22888322.407 8 -17835033.896 7
 92  4 12  8 43 29.9980000  0  4 17 23 21  3
  20117805.533   -19218644.363 9 -14975553.123 9
  20018727.123   -22149561.862 8 -17259386.252 9
  21977263.757   -10890799.081 6  -8486331.936 5
  20520482.566   -22836855.959 8 -17794930.179 7
 92  4 12  8 43 59.9980000  0  4 17 23 21  3
  20119449.295   -19210002.737 9 -14968819.390 9
  20014451.783   -22172017.090 8 -17276883.818 9
  21961065.671   -10975901.951 6  -8552645.820 5
  20530377.215   -22784870.262 8 -17754421.858 6
 92  4 12  8 44 29.9980000  0  4 17 23 21  3
  20121143.122   -19201109.897 9 -14961889.911 9
  20010260.385   -22194043.912 8 -17294047.564 9
  21944924.845   -11060724.731 6  -8618741.449 4
  20540365.700   -22732363.986 8 -17713507.888 7
 92  4 12  8 44 59.9980000  0  4 17 23 21  3
  20122882.518   -19191957.812 9 -14954758.421 9
  20006151.130   -22215630.891 8 -17310868.574 9
  21928837.981   -11145277.897 6  -8684626.999 5
  20550459.113   -22679333.102 8 -17672185.151 6
 92  4 12  8 45 29.9980000  0  4 17 23 21  3
  20124672.279   -19182560.594 9 -14947435.928 9
  20002127.915   -22236779.918 8 -17327348.312 9
  21912795.787   -11229577.193 6  -8750314.724 4
  20560648.759   -22625779.163 8 -17630454.826 7
 92  4 12  8 45 59.9980000  0  4 17 23 21  3
  20126506.709   -19172931.095 9 -14939932.430 9
  19998185.644   -22257511.266 8 -17343502.594 9
  21896796.463   -11313624.041 6  -8815805.739 5
  20570938.235   -22571709.077 8 -17588322.323 6
 92  4 12  8 46 29.9980000  0  4 17 23 21  3
  20128385.809   -19163053.143 9 -14932235.337 9
  19994318.921   -22277824.580 8 -17359331.130 9
  21880855.898   -11397402.962 6  -8881087.978 4
  20581327.543   -22517114.859 8 -17545781.390 6
 92  4 12  8 46 59.9980000  0  4 17 23 21  3
  20130311.376   -19152937.010 9 -14924352.636 9
  19990529.844   -22297740.522 8 -17374850.021 9
  21864962.402   -11480915.385 6  -8946162.562 5
  20591816.083   -22462004.007 8 -17502837.899 6
 92  4 12  8 47 29.9980000  0  4 17 23 21  3
  20132281.311   -19142577.313 9 -14916280.146 9
  19986813.017   -22317271.167 8 -17390068.698 9
  21849127.364   -11564138.235 6  -9011011.502 4
  20602401.754   -22406375.718 8 -17459491.200 6
 92  4 12  8 47 59.9980000  0  4 17 23 21  3
  20134303.412   -19131953.745 9 -14908002.046 9
  19983172.038   -22336411.466 8 -17404983.200 9
  21833348.987   -11647058.121 6  -9075624.358 4
  20613083.959   -22350227.057 8 -17415739.016 6
 92  4 12  8 48 29.9980000  0  4 17 23 21  3
  20136370.181   -19121082.298 9 -14899530.787 9
  19979603.609   -22355162.235 8 -17419594.174 9
  21817633.267   -11729667.423 6  -9139995.207 3
  20623868.093   -22293563.080 8 -17371585.284 6
 92  4 12  8 48 59.9980000  0  4 17 23 21  3
  20138489.714   -19109956.523 9 -14890861.362 9
  19976110.126   -22373503.803 8 -17433886.285 9
  21801968.212   -11811950.991 6  -9204112.233 4
  20634747.861   -22236380.648 8 -17327027.569 6
 92  4 12  8 49 29.9980000  0  4 17 23 21  3
  20140657.213   -19098561.388 9 -14881982.030 9
  19972697.589   -22391432.952 8 -17447857.032 9
  21786374.207   -11893923.887 6  -9267987.192 4
  20645729.859   -22178688.451 8 -17282072.643 6
 92  4 12  8 49 59.9980000  0  4 17 23 21  3
  20142877.476   -19086904.342 9 -14872898.615 9
  19969371.092   -22408927.085 8 -17461488.810 9
  21770830.568   -11975602.469 6  -9331632.788 5
  20656804.192   -22120481.277 8 -17236716.437 6
 92  4 12  8 50 29.9980000  0  4 17 23 21  3
  20145138.511   -19074996.748 9 -14863619.964 9
  19966122.241   -22425990.577 8 -17474785.019 9
  21755339.992   -12056994.840 6  -9395055.378 4
  20667980.155   -22061758.158 8 -17190958.183 6
 92  4 12  8 50 59.9980000  0  4 17 23 21  3
  20147457.406   -19062826.267 9 -14854136.471 9
  19962960.031   -22442622.322 8 -17487744.799 9
  21739900.979   -12138113.122 6  -9458264.394 5
  20679251.752   -22002517.393 8 -17144796.574 6
 92  4 12  8 51 29.9980000  0  4 17 23 21  3
  20149820.069   -19050412.664 9 -14844463.528 9
  19959873.967   -22458831.891 8 -17500375.614 9
  21724520.127   -12218964.101 6  -9521265.125 5
  20690624.079   -21942757.701 8 -17098230.611 6
 92  4 12  8 51 59.9980000  0  4 17 23 21  3
  20152221.108   -19037783.919 9 -14834622.940 9
  19956870.646   -22474617.699 8 -17512676.227 9
  21709187.841   -12299526.549 6  -9584041.025 5
  20702096.537   -21882480.043 8 -17051261.030 6
 92  4 12  8 52 29.9980000  0  4 17 23 21  3
  20154664.417   -19024932.328 9 -14824608.722 9
  19953943.772   -22489993.588 8 -17524657.432 9
  21693915.215   -12379780.715 6  -9646576.700 3
  20713664.029   -21821687.211 8 -17003890.030 6
 92  4 12  8 52 59.9980000  0  4 17 23 21  3
  20157157.790   -19011851.132 9 -14814415.579 9
  19951095.144   -22504953.574 8 -17536314.536 9
  21678703.146   -12459723.992 7  -9708870.118 4
  20725329.253   -21760378.290 8 -16956116.863 5
 92  4 12  8 53 29.9980000  0  4 17 23 21  3
  20159688.937   -18998542.539 9 -14804045.250 9
  19948328.360   -22519500.022 8 -17547649.411 9
  21663550.436   -12539353.507 7  -9770919.047 5
  20737094.608   -21698553.294 8 -16907941.574 6
 92  4 12  8 53 59.9980000  0  4 17 23 21  3
  20162268.652   -18984993.318 9 -14793487.438 9
  19945638.022   -22533643.924 8 -17558670.610 9
  21648456.186   -12618685.226 7  -9832735.923 4
  20748955.897   -21636216.800 8 -16859367.698 5
 92  4 12  8 54 29.9980000  0  4 17 23 21  3
  20164897.232   -18971192.336 9 -14782733.435 9
  19943023.832   -22547387.537 8 -17569379.912 9
  21633413.199   -12697736.099 7  -9894333.972 4
  20760916.117   -21573369.520 8 -16810395.822 6
 92  4 12  8 54 59.9980000  0  4 17 23 21  3
  20167570.481   -18957129.904 9 -14771775.699 9
  19940485.489   -22560723.690 8 -17579771.725 9
  21618420.579   -12776505.432 7  -9955712.635 5
  20772973.770   -21510008.242 8 -16761023.432 6
 92  4 12  8 55 29.9980000  0  4 17 23 21  3
  20170296.794   -18942795.210 9 -14760605.814 9
  19938028.390   -22573644.269 8 -17589839.687 9
  21603489.715   -12854974.485 7 -10016857.304 5
  20785130.054   -21446132.861 8 -16711250.435 6
 92  4 12  8 55 59.9980000  0  4 17 23 21  3
  20173080.666   -18928183.606 9 -14749220.145 9
  19935648.937   -22586136.160 8 -17599573.614 9
  21588613.413   -12933138.856 6 -10077764.563 5
  20797382.872   -21381745.913 8 -16661078.822 6
 92  4 12  8 56 29.9980000  0  4 17 23 21  3
  20175913.106   -18913289.560 9 -14737614.403 9
  19933353.426   -22598196.534 8 -17608971.284 9
  21573800.968   -13010984.926 7 -10138423.793 5
  20809730.123   -21316848.898 8 -16610509.733 5
 92  4 12  8 56 59.9980000  0  4 17 23 21  3
  20178803.405   -18898110.920 9 -14725786.880 9
  19931138.560   -22609835.652 8 -17618040.704 9
  21559046.983   -13088519.671 7 -10198840.440 5
  20822177.806   -21251448.066 8 -16559548.102 6
 92  4 12  8 57 29.9980000  0  4 17 23 21  3
  20181739.872   -18882662.077 8 -14713748.831 9
  19929005.237   -22621054.632 8 -17626782.757 9
  21544349.957   -13165758.257 7 -10259026.319 5
  20834718.125   -21185546.279 7 -16508196.080 5
 92  4 12  8 57 59.9980000  0  4 17 23 21  3
  20184729.102   -18866954.857 9 -14701509.432 9
  19926947.461   -22631872.034 8 -17635211.887 9
  21529705.395   -13242720.721 7 -10318997.019 6
  20847353.478   -21119150.636 7 -16456459.252 5
 92  4 12  8 58 29.9980000  0  4 17 23 21  3
  20187764.201   -18850998.797 9 -14689076.142 9
  19924961.936   -22642298.968 8 -17643336.756 9
  21515114.197   -13319399.292 7 -10378746.509 5
  20860080.267   -21052263.572 7 -16404339.502 5
 92  4 12  8 58 59.9980000  0  4 17 23 21  3
  20190844.569   -18834808.699 9 -14676460.484 9
  19923054.057   -22652331.154 8 -17651154.030 9
  21500575.762   -13395785.790 7 -10438268.421 6
  20872903.589   -20984887.355 7 -16351838.576 6
 92  4 12  8 59 29.9980000  0  4 17 23 21  3
  20193969.306   -18818398.090 8 -14663673.014 9
  19921219.927   -22661971.330 8 -17658665.835 9
  21486099.683   -13471862.114 7 -10497548.649 6
  20885814.751   -20917024.648 7 -16298958.574 5
 92  4 12  8 59 59.9980000  0  4 17 23 21  3
  20197135.414   -18801769.104 9 -14650715.364 9
  19919458.346   -22671228.643 8 -17665879.312 9
  21471686.561   -13547601.697 7 -10556566.474 6
  20898821.247   -20848674.655 7 -16245698.857 5
 92  4 12  9  0 29.9980000  0  4 17 23 21  3
  20200338.696   -18784933.210 8 -14637596.483 9
  19917763.320   -22680112.192 8 -17672801.546 9
  21457336.095   -13623011.201 7 -10615327.087 6
  20911919.180   -20779845.117 7 -16192065.493 6
 92  4 12  9  0 59.9980000  0  4 17 23 21  3
  20203582.451   -18767879.928 9 -14624308.224 9
  19916145.339   -22688627.671 8 -17679436.960 9
  21443047.088   -13698115.917 7 -10673850.207 5
  20925110.348   -20710536.317 7 -16138058.673 5
 92  4 12  9  1 29.9980000  0  4 17 23 21  3
  20206869.975   -18750604.322 9 -14610846.727 9
  19914594.213   -22696776.745 8 -17685786.868 9
  21428805.447   -13772939.035 7 -10732153.900 5
  20938389.655   -20640745.908 7 -16083676.564 5
 92  4 12  9  1 59.9980000  0  4 17 23 21  3
  20210199.770   -18733102.224 9 -14597208.747 9
  19913114.738   -22704568.681 8 -17691858.484 9
  21414616.869   -13847508.091 7 -10790259.620 5
  20951761.298   -20570484.260 7 -16028927.262 6
 92  4 12  9  2 29.9980000  0  4 17 23 21  3
  20213578.131   -18715360.471 9 -14583384.021 9
  19911700.916   -22711982.736 8 -17697635.648 9
  21400473.860   -13921838.127 7 -10848179.097 6
  20965219.880   -20499746.351 7 -15973806.842 5
 92  4 12  9  2 59.9980000  0  4 17 23 21  3
  20217003.259   -18697363.456 8 -14569360.388 9
  19910364.742   -22719004.751 8 -17703107.335 9
  21386373.122   -13995920.836 7 -10905905.864 6
  20978772.598   -20428530.330 7 -15918313.873 5
 92  4 12  9  3 29.9980000  0  4 17 23 21  3
  20220473.657   -18679114.390 8 -14555140.335 9
  19909103.214   -22725635.395 8 -17708274.062 9
  21372327.846   -14069736.936 7 -10963424.870 6
  20992414.953   -20356841.858 7 -15862452.755 5
 92  4 12  9  3 59.9980000  0  4 17 23 21  3
  20223996.818   -18660606.090 9 -14540718.294 9
  19907916.037   -22731876.514 8 -17713137.257 9
  21358336.532   -14143265.030 7 -11020719.466 5
  21006143.349   -20284683.301 7 -15806225.342 6
 92  4 12  9  4 29.9980000  0  4 17 23 21  3
  20227567.946   -18641844.823 9 -14526099.125 9
  19906804.107   -22737726.460 8 -17717695.639 9
  21344396.182   -14216505.966 7 -11077790.311 5
  21019965.281   -20212057.473 7 -15749633.828 4
 92  4 12  9  4 59.9980000  0  4 17 23 21  3
  20231183.443   -18622834.305 9 -14511285.735 9
  19905762.927   -22743190.330 8 -17721953.188 9
  21330520.288   -14289438.353 7 -11134620.740 5
  21033873.852   -20138960.878 7 -15692675.478 4
 92  4 12  9  5 29.9980000  0  4 17 23 21  3
  20234845.408   -18603597.868 9 -14496296.292 9
  19904793.997   -22748276.438 8 -17725916.374 9
  21316699.556   -14362058.451 7 -11191207.808 5
  21047877.158   -20065392.002 7 -15635349.116 5
 92  4 12  9  5 59.9980000  0  4 17 23 21  3
  20238545.146   -18584153.351 9 -14481144.723 9
  19903898.518   -22752985.657 8 -17729585.886 9
  21302942.979   -14434370.393 7 -11247554.745 6
  21061964.706   -19991352.557 7 -15577656.084 5
 92  4 12  9  6 29.9980000  0  4 17 23 21  3
  20242286.556   -18564493.432 8 -14465825.321 9
  19903076.786   -22757306.438 8 -17732952.712 9
  21289240.065   -14506370.423 7 -11303658.633 5
  21076143.389   -19916841.484 7 -15519595.535 5
 92  4 12  9  6 59.9980000  0  4 17 23 21  3
  20246067.538   -18544612.067 9 -14450333.351 9
  19902326.407   -22761250.514 8 -17736026.009 9
  21275597.112   -14578052.916 7 -11359515.078 5
  21090412.312   -19841862.388 7 -15461170.299 4
 92  4 12  9  7 29.9980000  0  4 17 23 21  3
  20249900.385   -18524477.318 9 -14434643.935 9
  19901645.277   -22764819.209 8 -17738806.800 9
  21262021.010   -14649422.604 7 -11415127.798 6
  21104766.975   -19766413.116 7 -15402378.703 5
 92  4 12  9  7 59.9980000  0  4 17 23 21  3
  20253785.695   -18504054.169 9 -14418729.790 9
  19901040.596   -22768009.507 8 -17741292.730 9
  21248494.073   -14720476.425 7 -11470494.378 5
  21119216.370   -19690494.788 7 -15343221.605 5
 92  4 12  9  8 29.9980000  0  4 17 23 21  3
  20257732.463   -18483328.485 9 -14402579.898 9
  19900503.367   -22770824.108 8 -17743485.916 9
  21235032.493   -14791217.759 7 -11525617.469 6
  21133752.408   -19614110.386 7 -15283701.341 4
 92  4 12  9  8 59.9980000  0  4 17 23 21  3
  20261731.994   -18462311.287 9 -14386202.852 9
  19900035.392   -22773274.765 8 -17745395.499 9
  21221633.570   -14861647.106 7 -11580497.451 5
  21148375.385   -19537257.080 7 -15223815.686 4
 92  4 12  9  9 29.9980000  0  4 17 23 21  3
  20265781.891   -18441021.975 9 -14369613.778 9
  19899640.565   -22775358.253 8 -17747018.987 9
  21208289.207   -14931766.257 7 -11635135.719 6
  21163089.197   -19459940.266 7 -15163568.847 6
 92  4 12  9  9 59.9980000  0  4 17 23 21  3
  20269879.455   -18419483.180 8 -14352830.302 9
  19899317.989   -22777062.536 8 -17748346.990 9
  21195005.102   -15001576.885 7 -11689533.576 5
  21177891.150   -19382158.264 7 -15102959.530 4
 92  4 12  9 10 29.9980000  0  4 17 23 21  3
  20274021.088   -18397720.609 8 -14335872.459 9
  19899064.664   -22778392.274 8 -17749383.137 9
  21181772.864   -15071095.076 7 -11743703.566 6
  21192779.144   -19303916.604 7 -15041992.047 5
 92  4 12  9 10 59.9980000  0  4 17 23 21  3
  20278206.789   -18375738.653 9 -14318743.662 9
  19898881.191   -22779359.558 8 -17750136.861 9
  21168599.383   -15140329.850 7 -11797652.704 6
  21207757.076   -19225216.341 7 -14980667.196 4
 92  4 12  9 11 29.9980000  0  4 17 23 21  3
  20282432.963   -18353526.595 9 -14301435.574 9
  19898766.072   -22779963.851 8 -17750607.728 9
  21155479.266   -15209288.020 7 -11851386.310 6
  21222817.150   -19146060.983 7 -14918987.724 5
 92  4 12  9 11 59.9980000  0  4 17 23 21  3
  20286704.408   -18331072.412 9 -14283938.809 9
  19898719.303   -22780208.257 8 -17750798.169 9
  21142408.615   -15277972.016 7 -11904906.278 5
  21237970.459   -19066448.340 7 -14856951.939 4
 92  4 12  9 12 29.9980000  0  4 17 23 21  3
  20291026.814   -18308359.522 9 -14266240.459 9
  19898739.390   -22780098.197 8 -17750712.403 9
  21129394.624   -15346365.735 7 -11958200.052 6
  21253206.811   -18986377.623 7 -14794559.207 4
 92  4 12  9 12 59.9980000  0  4 17 23 21  3
  20295400.486   -18285381.433 9 -14248335.442 9
  19898828.129   -22779630.846 8 -17750348.241 9
  21116435.796   -15414452.196 7 -12011254.423 6
  21268528.004   -18905851.175 7 -14731811.355 5
 92  4 12  9 13 29.9980000  0  4 17 23 21  3
  20299822.125   -18262143.498 9 -14230227.967 9
  19898987.319   -22778799.873 8 -17749700.715 9
  21103542.022   -15482219.382 7 -12064059.989 6
  21283938.536   -18824870.966 7 -14668709.922 5
 92  4 12  9 13 59.9980000  0  4 17 23 21  3
  20304291.732   -18238650.387 9 -14211921.638 9
  19899211.861   -22777601.908 8 -17748767.234 9
  21090710.004   -15549656.769 7 -12116608.572 6
  21299437.206   -18743436.834 7 -14605254.784 4
 92  4 12  9 14 29.9980000  0  4 17 23 21  3
  20308810.204   -18214906.213 9 -14193419.681 9
  19899514.352   -22776035.767 8 -17747546.854 9
  21077940.046   -15616756.365 7 -12168893.945 6
  21315017.420   -18661551.204 7 -14541447.852 4
 92  4 12  9 14 59.9980000  0  4 17 23 21  3
  20313375.742   -18190915.143 9 -14174725.332 9
  19899879.500   -22774107.191 9 -17746044.056 9
  21065236.940   -15683518.790 7 -12220916.590 6
  21330687.872   -18579208.292 7 -14477284.565 3
 92  4 12  9 15 29.9980000  0  4 17 23 21  3
  20317989.549   -18166685.249 9 -14155844.895 9
  19900311.201   -22771828.723 8 -17744268.618 9
  21052590.795   -15749960.388 7 -12272689.220 6
  21346444.064   -18496415.650 7 -14412770.838 4
 92  4 12  9 15 59.9980000  0  4 17 23 21  3
  20322645.624   -18142210.216 9 -14136773.455 9
  19900813.054   -22769200.401 8 -17742220.574 9
  21040009.404   -15816087.874 7 -12324217.100 7
  21362281.799   -18413178.004 7 -14347910.378 4
 92  4 12  9 16 29.9980000  0  4 17 23 21  3
  20327350.868   -18117480.729 9 -14117503.742 9
  19901381.761   -22766222.487 8 -17739900.112 9
  21027482.277   -15881908.159 7 -12375505.605 7
  21378208.573   -18329493.629 7 -14282701.814 5
 92  4 12  9 16 59.9980000  0  4 17 23 21  3
  20332104.977   -18092489.124 8 -14098029.777 9
  19902015.520   -22762896.147 8 -17737308.155 9
  21015016.906   -15947428.058 7 -12426560.035 6
  21394214.195   -18245363.589 7 -14217145.973 5
 92  4 12  9 17 29.9980000  0  4 17 23 21  3
  20336913.647   -18067226.312 8 -14078344.484 9
  19902715.837   -22759202.744 8 -17734430.169 9
  21002606.998   -16012642.590 7 -12477376.527 6
  21410310.651   -18160788.189 7 -14151243.088 4
 92  4 12  9 17 59.9980000  0  4 17 23 21  3
  20341775.083   -18041687.959 8 -14058444.482 9
  19903489.900   -22755142.379 8 -17731266.251 9
  20990250.451   -16077545.646 7 -12527950.286 6
  21426490.449   -18075768.909 7 -14084994.326 5
 92  4 12  9 18 29.9980000  0  4 17 23 21  3
  20346683.585   -18015877.804 8 -14038332.705 9
  19904330.820   -22750714.150 8 -17727815.665 9
  20977964.658   -16142128.475 7 -12578274.539 7
  21442751.792   -17990309.734 7 -14018402.805 4
 92  4 12  9 18 59.9980000  0  4 17 23 21  3
  20351648.148   -17989801.436 8 -14018013.464 9
  19905241.289   -22745911.289 8 -17724073.175 9
  20965739.720   -16206381.653 7 -12628341.911 5
  21459098.576   -17904409.727 7 -13951467.791 4
 92  4 12  9 19 29.9980000  0  4 17 23 21  3
  20356660.376   -17963459.546 8 -13997487.333 9
  19906232.101   -22740726.351 8 -17720032.950 9
  20953571.145   -16270306.560 7 -12678153.487 6
  21475527.201   -17818070.972 7 -13884190.861 4
 92  4 12  9 19 59.9980000  0  4 17 23 21  3
  20361721.173   -17936854.263 8 -13976755.969 9
  19907291.868   -22735158.663 8 -17715694.484 9
  20941469.423   -16333898.598 7 -12727705.687 6
  21492040.370   -17731293.247 7 -13816571.877 4
 92  4 12  9 20 29.9980000  0  4 17 23 21  3
  20366835.633   -17909991.063 9 -13955823.615 9
  19908419.388   -22729211.160 9 -17711060.042 9
  20929432.455   -16397175.316 7 -12777012.187 5
  21508638.978   -17644078.025 7 -13748612.006 4
 92  4 12  9 20 59.9980000  0  4 17 23 21  3
  20371993.863   -17882874.474 9 -13934693.817 9
  19909624.555   -22722900.416 9 -17706142.574 9
  20917450.950   -16460148.821 7 -12826082.425 6
  21525316.433   -17556426.012 7 -13680311.773 4
 92  4 12  9 21 29.9980000  0  4 17 23 21  3
  20377205.453   -17855498.373 8 -13913361.797 9
  19910892.075   -22716234.339 9 -17700948.219 9
  20905522.509   -16522812.796 7 -12874911.475 6
  21542082.026   -17468339.036 7 -13611672.618 4
 92  4 12  9 21 59.9980000  0  4 17 23 21  3
  20382459.616   -17827877.011 8 -13891838.662 9
  19912224.055   -22709236.530 9 -17695495.374 9
  20893658.821   -16585165.308 7 -12923497.806 6
  21558926.165   -17379819.555 7 -13542696.408 3
 92  4 12  9 22 29.9980000  0  4 17 23 21  3
  20387765.943   -17800000.202 8 -13870116.473 9
  19913615.991   -22701914.606 9 -17689789.968 9
  20881850.896   -16647209.608 7 -12971843.990 6
  21575852.148   -17290869.712 7 -13473384.886 5
 92  4 12  9 22 59.9980000  0  4 17 23 21  3
  20393119.936   -17771860.496 8 -13848189.437 9
  19915073.283   -22694263.427 9 -17683828.002 9
  20870105.927   -16708922.976 7 -13019932.295 6
  21592859.974   -17201490.583 7 -13403738.845 4
 92  4 12  9 23 29.9980000  0  4 17 23 21  3
  20398523.996   -17743454.955 8 -13826055.254 9
  19916594.728   -22686275.004 9 -17677603.252 9
  20858425.113   -16770307.111 7 -13067764.061 5
  21609947.245   -17111683.460 7 -13333759.285 2
 92  4 12  9 23 59.9980000  0  4 17 23 21  3
  20403981.717   -17714779.525 8 -13803710.772 9
  19918179.432   -22677947.210 9 -17671114.056 9
  20846803.957   -16831377.308 7 -13115351.198 6
  21627115.460   -17021452.284 7 -13263449.319 3
 92  4 12  9 24 29.9980000  0  4 17 23 21  3
  20409493.103   -17685814.772 8 -13781140.851 8
  19919831.588   -22669256.586 9 -17664342.124 9
  20835244.261   -16892126.089 7 -13162687.868 6
  21644370.314   -16930795.168 7 -13192807.441 4
 92  4 12  9 24 59.9980000  0  4 17 23 21  3
  20415057.851   -17656574.966 8 -13758356.593 9
  19921552.396   -22660206.336 9 -17657289.975 9
  20823742.122   -16952557.751 7 -13209777.452 7
  21661701.916   -16839717.530 7 -13121837.909 3
 92  4 12  9 25 29.9980000  0  4 17 23 21  3
  20420673.263   -17627058.048 8 -13735356.403 9
  19923344.856   -22650790.400 9 -17649952.867 9
  20812302.643   -17012676.771 7 -13256623.420 6
  21679114.162   -16748220.270 6 -13050541.388 4
 92  4 12  9 25 59.9980000  0  4 17 23 21  3
  20426345.035   -17597255.262 8 -13712133.471 9
  19925206.866   -22641005.298 9 -17642328.114 9
  20800927.917   -17072470.560 7 -13303215.953 6
  21696603.453   -16656305.503 6 -12978919.500 4
 92  4 12  9 26 29.9980000  0  4 17 23 21  3
  20432069.872   -17567177.922 8 -13688696.594 8
  19927137.829   -22630852.397 9 -17634416.745 9
  20789614.049   -17131923.778 7 -13349543.112 6
  21714173.990   -16563978.180 6 -12906976.159 4
 92  4 12  9 26 59.9980000  0  4 17 23 21  3
  20437841.477   -17536840.511 8 -13665057.060 9
  19929140.444   -22620343.077 9 -17626227.660 9
  20778365.536   -17191034.903 7 -13395603.714 7
  21731820.375   -16471240.840 6 -12834713.354 3
 92  4 12  9 27 29.9980000  0  4 17 23 21  3
  20443662.546   -17506240.353 8 -13641212.777 9
  19931205.413   -22609487.883 9 -17617769.060 9
  20767180.280   -17249801.762 7 -13441396.048 7
  21749544.703   -16378094.160 6 -12762131.556 3
 92  4 12  9 27 59.9980000  0  4 17 23 21  3
  20449536.981   -17475382.661 8 -13617167.823 9
  19933335.138   -22598300.650 9 -17609051.735 9
  20756062.476   -17308220.633 7 -13486917.219 6
  21767346.080   -16284541.376 6 -12689233.336 4
 92  4 12  9 28 29.9980000  0  4 17 23 21  3
  20455457.580   -17444283.128 8 -13592934.436 9
  19935519.428   -22586803.095 9 -17600092.577 9
  20745011.528   -17366302.475 7 -13532175.775 6
  21785225.102   -16190588.231 6 -12616023.118 5
 92  4 12  9 28 59.9980000  0  4 17 23 21  3
  20461420.453   -17412932.169 8 -13568505.120 9
  19937765.472   -22575016.081 9 -17590907.895 9
  20734020.236   -17424061.240 7 -13577182.570 6
  21803179.973   -16096239.081 6 -12542504.360 4
 92  4 12  9 29 29.9980000  0  4 17 23 21  3
  20467438.488   -17381317.579 8 -13543870.377 9
  19940062.782   -22562943.207 9 -17581500.457 9
  20723090.704   -17481502.305 7 -13621941.825 7
  21821212.188   -16001496.375 6 -12468678.917 2
 92  4 12  9 29 59.9980000  0  4 17 23 21  3
  20473507.187   -17349431.608 8 -13519024.174 9
  19942413.455   -22550575.765 9 -17571863.481 9
  20712218.429   -17538628.322 7 -13666455.576 7
  21839312.460   -15906362.336 6 -12394548.540 2
 92  4 12  9 30 29.9980000  0  4 17 23 21  3
  20479623.850   -17317274.137 8 -13493966.426 9
  19944823.487   -22537923.457 9 -17562004.532 9
  20701402.816   -17595449.967 7 -13710732.171 6
  21857491.274   -15810843.693 6 -12320118.453 4
 92  4 12  9 30 59.9980000  0  4 17 23 21  3
  20485793.580   -17284848.924 8 -13468700.033 8
  19947289.879   -22524963.371 9 -17551905.764 9
  20690650.160   -17651963.682 7 -13754768.830 6
  21875741.440   -15714941.478 6 -12245389.494 3
 92  4 12  9 31 29.9980000  0  4 17 23 21  3
  20492014.574   -17252166.104 8 -13443232.925 8
  19949817.129   -22511675.731 9 -17541551.754 9
  20679952.666   -17708176.991 7 -13798571.400 6
  21894065.953   -15618657.228 6 -12170362.853 4
 92  4 12  9 31 59.9980000  0  4 17 23 21  3
  20498279.337   -17219234.790 8 -13417572.181 8
  19952409.134   -22498055.894 9 -17530938.889 9
  20669317.830   -17764084.718 7 -13842135.839 6
  21912456.722   -15521997.225 6 -12095043.405 5
 92  4 12  9 32 29.9980000  0  4 17 23 21  3
  20504594.464   -17186061.607 8 -13391722.969 8
  19955065.295   -22484094.910 9 -17520060.190 9
  20658736.353   -17819686.073 7 -13885461.551 7
  21930920.639   -15424962.387 6 -12019431.896 3
 92  4 12  9 32 59.9980000  0  4 17 23 21  3
  20510949.465   -17152654.678 8 -13365691.619 8
  19957791.008   -22469776.865 9 -17508903.265 9
  20648211.540   -17874989.470 7 -13928555.091 7
  21949458.306   -15327556.187 6 -11943530.981 4
 92  4 12  9 33 29.9980000  0  4 17 23 21  3
  20517355.130   -17118993.012 8 -13339461.751 8
  19960581.178   -22455121.401 9 -17497483.423 9
  20637743.388   -17929993.872 7 -13971415.638 7
  21968063.427   -15229778.252 6 -11867340.457 4
 92  4 12  9 33 59.9980000  0  4 17 23 21  3
  20523811.161   -17085081.188 8 -13313036.977 7
  19963430.105   -22440139.441 9 -17485809.168 9
  20627336.691   -17984689.450 8 -14014035.551 7
  21986739.597   -15131633.662 6 -11790864.188 4
 92  4 12  9 34 29.9980000  0  4 17 23 21  3
  20530310.662   -17050922.340 8 -13286419.716 9
  19966339.291   -22424848.239 9 -17473893.931 9
  20616978.264   -18039100.739 8 -14056433.942 7
  22005489.217   -15033129.427 6 -11714107.692 4
 92  4 12  9 34 59.9980000  0  4 17 23 21  3
  20536857.229   -17016508.945 8 -13259604.101 8
  19969304.537   -22409271.359 9 -17461756.106 9
  20606680.393   -18093226.614 8 -14098609.932 7
  22024297.596   -14934270.644 6 -11637074.888 2
 92  4 12  9 35 29.9980000  0  4 17 23 21  3
  20543454.162   -16981824.895 8 -13232577.572 7
  19972324.347   -22393418.146 9 -17449402.946 9
  20596439.482   -18147052.247 8 -14140551.962 7
  22043179.425   -14835057.452 6 -11559765.959 2
 92  4 12  9 35 59.9980000  0  4 17 23 21  3
  20550109.555   -16946879.361 8 -13205347.297 8
  19975391.225   -22377282.307 9 -17436829.568 9
  20586253.434   -18200578.752 8 -14182260.902 7
  22062123.610   -14735495.405 6 -11482185.190 2
 92  4 12  9 36 29.9980000  0  4 17 23 21  3
  20556812.616   -16911657.188 8 -13177901.466 7
  19978518.359   -22360863.778 9 -17424035.903 9
  20576126.743   -18253802.966 8 -14223734.287 7
  22081133.749   -14635583.143 6 -11404331.531 4
 92  4 12  9 36 59.9980000  0  4 17 23 21  3
  20563563.043   -16876170.629 8 -13150249.624 8
  19981694.061   -22344170.475 9 -17411028.130 9
  20566055.815   -18306719.623 8 -14264968.033 8
  22100212.541   -14535329.532 6 -11326211.858 4
 92  4 12  9 37 29.9980000  0  4 17 23 21  3
  20570365.332   -16840423.348 8 -13122394.617 8
  19984924.624   -22327190.810 9 -17397797.216 9
  20556044.248   -18359323.157 8 -14305957.783 7
  22119354.889   -14434729.183 6 -11247822.035 3
 92  4 12  9 37 59.9980000  0  4 17 23 21  3
  20577212.592   -16804442.447 8 -13094357.565 8
  19988207.952   -22309941.498 9 -17384356.190 9
  20546091.437   -18411633.114 8 -14346718.765 7
  22138563.491   -14333792.753 6 -11169170.328 3
 92  4 12  9 38 29.9980000  0  4 17 23 21  3
  20584105.120   -16768228.648 8 -13066139.042 7
  19991543.143   -22292418.146 9 -17370701.621 9
  20536188.993   -18463648.297 8 -14387250.063 7
  22157835.950   -14232521.326 6 -11090257.546 2
 92  4 12  9 38 59.9980000  0  4 17 23 21  3
  20591039.320   -16731785.317 8 -13037741.652 8
  19994931.997   -22274608.497 9 -17356823.981 9
  20526352.501   -18515357.955 8 -14427543.292 7
  22177171.365   -14130912.149 6 -11011081.587 2
 92  4 12  9 39 29.9980000  0  4 17 23 21  3
  20598021.787   -16695104.246 8 -13009159.022 8
  19998373.315   -22256511.062 9 -17342722.085 9
  20516570.575   -18566764.948 8 -14467600.662 7
  22196571.234   -14028973.195 6 -10931648.690 3
 92  4 12  9 39 59.9980000  0  4 17 23 21  3
  20605048.922   -16658174.864 8 -12980382.890 8
  20001873.691   -22238106.877 9 -17328381.161 9
  20506846.805   -18617859.137 8 -14507414.306 8
  22216031.961   -13926704.094 6 -10851958.528 3
 92  4 12  9 40 29.9980000  0  5 17 23 11 21  3
  20612127.921   -16620978.759 8 -12951398.934 8
  20005438.223   -22219384.695 9 -17313792.450 9
  24476218.566    -2127150.852 5  -1657520.460 2
  20497185.994   -18668625.257 8 -14546972.310 8
  22235548.451   -13824103.006 6 -10772009.677 3
 92  4 12  9 40 59.9980000  0  5 17 23 11 21  3
  20619257.585   -16583506.732 8 -12922199.982 7
  20009058.517   -22200360.918 9 -17298968.725 9
  24453872.936    -2244534.759 5  -1748988.415 2
  20487590.237   -18719068.490 8 -14586278.713 8
  22255146.184   -13721172.039 6 -10691803.766 3
 92  4 12  9 41 29.9980000  0  5 17 23 11 21  3
  20626440.612   -16545757.382 8 -12892784.918 7
  20012731.873   -22181050.994 9 -17283922.030 9
  24431540.496    -2361930.387 5  -1840465.528 3
  20478049.042   -18769197.746 8 -14625340.457 7
  22274791.883   -13617913.427 6 -10611342.548 2
 92  4 12  9 41 59.9980000  0  5 17 23 11 21  3
  20633674.604   -16507739.172 8 -12863160.360 8
  20016460.993   -22161467.129 9 -17268661.875 9
  24409197.264    -2479333.838 5  -1931948.729 2
  20468567.205   -18819016.308 8 -14664160.100 8
  22294501.437   -13514328.312 6 -10530626.904 3
 92  4 12  9 42 29.9980000  0  5 17 23 11 21  3
  20640960.761   -16469452.985 8 -12833326.991 7
  20020235.979   -22141637.089 9 -17253209.894 9
  24386843.539    -2596742.348 5  -2023435.860 1
  20459144.129   -18868528.666 8 -14702741.124 7
  22314279.045   -13410418.238 6 -10449658.085 1
 92  4 12  9 42 59.9980000  0  5 17 23 11 21  3
  20648293.984   -16430917.937 8 -12803299.703 7
  20024052.636   -22121564.944 9 -17237569.273 9
  24364500.608    -2714151.789 5  -2114923.743 3
  20449780.710   -18917742.546 8 -14741089.579 8
  22334116.612   -13306184.235 6 -10368436.801 2
 92  4 12  9 43 29.9980000  0  5 17 23 11 21  3
  20655670.376   -16392149.914 8 -12773090.873 7
  20027922.957   -22101235.613 9 -17221728.240 9
  24342175.663    -2831557.756 6  -2206408.833 2
  20440471.257   -18966660.018 8 -14779207.068 7
  22354004.544   -13201626.908 6 -10286963.611 3
 92  4 12  9 43 59.9980000  0  5 17 23 11 21  3
  20663092.639   -16353142.555 8 -12742695.553 8
  20031842.743   -22080634.438 9 -17205675.379 9
  24319830.932    -2948953.731 5  -2297886.198 2
  20431219.961   -19015281.531 8 -14817093.942 7
  22373966.525   -13096744.558 6 -10205237.132 3
 92  4 12  9 44 29.9980000  0  5 17 23 11 21  3
  20670558.671   -16313902.260 8 -12712118.718 7
  20035817.093   -22059756.787 9 -17189407.079 9
  24297478.706    -3066338.694 5  -2389355.004 3
  20422023.227   -19063610.086 8 -14854752.547 8
  22393990.562   -12991540.957 6 -10123260.343 2
 92  4 12  9 44 59.9980000  0  5 17 23 11 21  3
  20678070.569   -16274423.553 8 -12681356.116 7
  20039844.204   -22038586.234 9 -17172910.547 9
  24275156.758    -3183713.498 5  -2480815.894 2
  20412881.056   -19111655.946 8 -14892190.861 8
  22414065.266   -12886022.155 6 -10041037.949 3
 92  4 12  9 45 29.9970000  0  5 17 23 11 21  3
  20685635.233   -16234675.434 8 -12650383.573 7
  20043929.177   -22017119.844 9 -17156183.498 9
  24252818.323    -3301067.842 5  -2572260.830 2
  20403796.146   -19159401.513 8 -14929395.189 8
  22434203.225   -12780189.900 6  -9958571.324 2
 92  4 12  9 45 59.9970000  0  5 17 23 11 21  3
  20693255.957   -16194641.944 8 -12619188.660 8
  20048069.311   -21995361.899 9 -17139229.262 9
  24230489.480    -3418407.300 4  -2663694.141 2
  20394765.798   -19206840.039 8 -14966360.266 7
  22454405.937   -12674040.424 6  -9875857.448 4
 92  4 12  9 46 29.9970000  0  5 17 23 11 21  3
  20700929.744   -16154314.295 8 -12587764.533 7
  20052264.906   -21973313.248 9 -17122048.528 9
  24208171.132    -3535723.989 5  -2755109.755 2
  20385802.003   -19253958.925 8 -15003076.272 8
  22474665.014   -12567577.810 6  -9792899.609 4
 92  4 12  9 46 59.9970000  0  5 17 23 11 21  3
  20708661.092   -16113681.577 8 -12556102.688 7
  20056513.864   -21950971.206 9 -17104639.148 9
  24185853.082    -3653016.314 5  -2846506.353 2
  20376895.469   -19300747.124 8 -15039534.585 8
  22494983.147   -12460805.664 6  -9709700.597 3
 92  4 12  9 47 29.9970000  0  5 17 23 11 21  3
  20716449.100   -16072753.563 8 -12524210.746 7
  20060821.283   -21928341.547 9 -17087005.662 9
  24163529.036    -3770279.476 5  -2937880.237 2
  20368058.785   -19347200.579 8 -15075732.069 7
  22515360.340   -12353724.341 6  -9626260.625 3
 92  4 12  9 47 59.9970000  0  5 17 23 11 21  3
  20724291.971   -16031547.638 8 -12492102.243 7
  20065181.765   -21905427.814 9 -17069150.819 9
  24141228.975    -3887510.326 5  -3029228.920 2
  20359279.064   -19393333.484 8 -15111679.771 7
  22535795.993   -12246335.926 6  -9542581.353 2
 92  4 12  9 48 29.9970000  0  5 17 23 11 21  3
  20732184.007   -15990071.744 8 -12459783.381 7
  20069597.706   -21882233.429 9 -17051077.285 9
  24118920.519    -4004705.479 5  -3120549.838 1
  20350560.200   -19439143.238 8 -15147375.678 7
  22556287.707   -12138642.228 6  -9458664.274 2
 92  4 12  9 48 59.9970000  0  5 17 23 11 21  3
  20740122.811   -15948342.174 8 -12427266.838 7
  20074064.615   -21858767.531 9 -17032792.176 9
  24096624.954    -4121862.739 5  -3211841.169
  20341906.692   -19484631.574 8 -15182821.129 8
  22576838.480   -12030645.801 6  -9374511.264 2
 92  4 12  9 49 29.9970000  0  5 17 23 11 21  3
  20748110.781   -15906369.933 8 -12394561.222 7
  20078578.888   -21835039.604 9 -17014302.885 9
  24074341.981    -4238981.191 5  -3303102.307 3
  20333309.543   -19529812.786 8 -15218027.253 7
  22597442.617   -11922350.775 6  -9290125.507 2
 92  4 12  9 49 59.9970000  0  5 17 23 11 21  3
  20756142.521   -15864155.145 8 -12361666.588 7
  20083143.529   -21811051.349 9 -16995610.755 9
  24052060.806    -4356056.821 5  -3394330.034 2
  20324772.353   -19574664.436 8 -15252976.586 8
  22618110.308   -11813758.720 6  -9205508.341 3
 92  4 12  9 50 29.9970000  0  5 17 23 11 21  3
  20764227.925   -15821685.973 8 -12328573.749 8
  20087757.635   -21786789.431 9 -16976705.362 9
  24029796.718    -4473082.183 6  -3485518.622 3
  20316303.516   -19619169.039 8 -15287655.487 7
  22638834.062   -11704867.356 6  -9120657.978 4
 92  4 12  9 50 59.9970000  0  5 17 23 11 21  3
  20772359.794   -15778956.793 8 -12295278.287 8
  20092426.303   -21762259.837 9 -16957591.407 9
  24007541.025    -4590061.233 5  -3576671.094 1
  20307899.134   -19663338.736 8 -15322073.422 8
  22659611.777   -11595685.606 6  -9035581.355 1
 92  4 12  9 51 29.9970000  0  5 17 23 11 21  3
  20780537.834   -15735965.009 8 -12261778.214 7
  20097148.934   -21737458.275 9 -16938265.513 9
  23985287.131    -4706996.211 5  -3667789.258 2
  20299555.310   -19707178.152 8 -15356233.997 8
  22680446.454   -11486221.064 6  -8950284.324 4
 92  4 12  9 51 59.9970000  0  5 17 23 11 21  3
  20788772.832   -15692693.565 8 -12228060.223 6
  20101919.830   -21712377.425 9 -16918722.009 9
  23963051.823    -4823877.610 6  -3758865.617 2
  20291276.543   -19750680.488 8 -15390131.901 8
  22701325.199   -11376469.454 6  -8864763.623 1
 92  4 12  9 52 29.9970000  0  5 17 23 11 21  3
  20797061.794   -15649131.300 8 -12194115.619 7
  20106744.691   -21687022.189 9 -16898964.700 9
  23940812.321    -4940702.859 5  -3849898.241 3
  20283058.031   -19793877.655 8 -15423792.015 7
  22722260.305   -11266433.446 5  -8779021.322 4
 92  4 12  9 52 59.9970000  0  5 17 23 11 21  3
  20805408.015   -15605281.749 8 -12159947.149 7
  20111619.316   -21661399.924 9 -16878999.291 9
  23918593.203    -5057468.084 6  -3940884.125 2
  20274895.583   -19836780.585 8 -15457222.838 7
  22743261.069   -11156114.422 5  -8693058.480 2
 92  4 12  9 53 29.9970000  0  5 17 23 11 21  3
  20813803.703   -15561154.346 8 -12125562.176 7
  20116543.706   -21635522.971 9 -16858835.442 9
  23896374.384    -5174169.040 5  -4031819.912 3
  20266784.098   -19879392.736 8 -15490427.107 8
  22764309.196   -11045513.336 5  -8606875.863 2
 92  4 12  9 53 59.9970000  0  5 17 23 11 21  3
  20822253.354   -15516752.729 8 -12090963.533 7
  20121515.164   -21609401.514 9 -16838481.077 9
  23874196.637    -5290802.843 5  -4122703.417 4
  20258729.574   -19921718.888 8 -15523408.514 8
  22785405.293   -10934632.826 5  -8520475.496 1
 92  4 12  9 54 29.9970000  0  5 17 23 11 21  3
  20830752.770   -15472088.924 8 -12056160.577 6
  20126530.093   -21583042.850 9 -16817941.866 9
  23852004.202    -5407371.159 5  -4213535.873 3
  20250732.310   -19963756.513 8 -15556165.081 8
  22806559.847   -10823479.782 5  -8433862.763 3
 92  4 12  9 54 59.9970000  0  5 17 23 11 21  3
  20839298.055   -15427165.373 8 -12021155.227 7
  20131591.788   -21556443.879 9 -16797215.400 9
  23829837.546    -5523868.487 5  -4304313.019 2
  20242791.407   -20005481.699 8 -15588678.196 8
  22827761.469   -10712054.071 5  -8347037.588 2
 92  4 12  9 55 29.9970000  0  5 17 23 11 21  3
  20847898.200   -15381979.833 8 -11985945.725 7
  20136700.252   -21529600.183 9 -16776298.243 9
  23807692.177    -5640293.225 5  -4395033.609 4
  20234911.663   -20046891.448 8 -15620945.505 8
  22849019.154   -10600359.510 6  -8260002.916 2
 92  4 12  9 55 59.9970000  0  5 17 23 11 21  3
  20856551.410   -15336514.724 8 -11950518.391 7
  20141860.580   -21502489.436 9 -16755172.991 9
  23785541.713    -5756638.253 5  -4485692.057 3
  20227092.476   -20087978.706 8 -15652961.521 9
  22870318.508   -10488394.167 5  -8172757.197 2
 92  4 12  9 56 29.9970000  0  5 17 23 11 21  3
  20865254.985   -15290765.461 7 -11914869.625 7
  20147069.173   -21475115.346 9 -16733842.551 9
  23763424.822    -5872904.632 5  -4576289.216 3
  20219332.347   -20128757.233 8 -15684736.975 8
  22891677.522   -10376164.931 5  -8085305.887 3
 92  4 12  9 56 59.9970000  0  5 17 23 11 21  3
  20874015.520   -15244727.359 7 -11878995.799 7
  20152330.532   -21447473.502 9 -16712303.464 9
  23741311.531    -5989088.158 5  -4666821.815 2
  20211630.680   -20169232.572 8 -15716276.182 8
  22913080.903   -10263672.837 5  -7997649.748 2
 92  4 12  9 57 29.9970000  0  5 17 23 11 21  3
  20882833.015   -15198403.192 7 -11842899.060 6
  20157641.056   -21419560.223 9 -16690552.869 9
  23719219.826    -6105185.465 6  -4757287.255 2
  20203985.672   -20209419.516 8 -15747590.673 8
  22934543.945   -10150919.609 6  -7909790.125 2
 92  4 12  9 57 59.9970000  0  5 17 23 11 21  3
  20891701.176   -15151796.254 8 -11806581.992 7
  20163003.144   -21391385.799 9 -16668598.782 9
  23697151.803    -6221194.572 5  -4847683.925 2
  20196391.029   -20249319.511 8 -15778681.554 8
  22956043.562   -10037908.832 5  -7821729.790 1
 92  4 12  9 58 29.9970000  0  5 17 23 11 21  3
  20900620.901   -15104924.564 7 -11770058.608 6
  20168412.899   -21362954.395 9 -16646444.443 9
  23675086.180    -6337113.821 5  -4938010.602 2
  20188853.048   -20288921.566 8 -15809540.275 8
  22977606.733    -9924644.558 5  -7733471.965 2
 92  4 12  9 58 59.9970000  0  5 17 23 11 21  3
  20909591.591   -15057792.764 7 -11733332.537 6
  20173875.716   -21334247.611 9 -16624075.531 9
  23653044.838    -6452933.693 5  -5028259.846 3
  20181379.822   -20328203.797 8 -15840149.804 8
  22999197.486    -9811122.793 5  -7645013.434 2
 92  4 12  9 59 29.9970000  0  5 17 23 11 21  3
  20918608.448   -15010407.175 8 -11696408.702 6
  20179387.701   -21305279.415 9 -16601502.911 9
  23631023.584    -6568659.779 5  -5118436.009 1
  20173965.054   -20367167.881 8 -15870511.425 8
  23020845.201    -9697354.401 5  -7556362.774 1
 92  4 12  9 59 59.9970000  0  5 17 23 11 21  3
  20927674.772   -14962753.854 8 -11659276.278 7
  20184947.652   -21276054.984 9 -16578730.632 9
  23609018.218    -6684283.459 5  -5208532.373 3
  20166618.042   -20405784.039 8 -15900601.913 9
  23042554.971    -9583336.549 5  -7467517.706 2
 92  4 12 10  0 29.9970000  0  5 17 23 11 21  3
  20936794.160   -14914834.334 8 -11621936.415 7
  20190558.268   -21246578.464 9 -16555761.907 9
  23587042.530    -6799804.538 5  -5298548.812 2
  20159334.583   -20444048.913 8 -15930418.680 8
  23064295.621    -9469074.208 5  -7378482.148 1
 92  4 12 10  0 59.9970000  0  5 17 23 11 21  3
  20945966.308   -14866630.192 7 -11584374.758 7
  20196213.853   -21216856.448 9 -16532601.894 9
  23565077.636    -6915215.662 5  -5388479.536 4
  20152120.377   -20481972.380 8 -15959969.419 8
  23086086.334    -9354565.896 5  -7289254.967 2
 92  4 12 10  1 29.9970000  0  5 17 23 11 21  3
  20955196.021   -14818135.256 7 -11546586.507 6
  20201911.408   -21186920.443 9 -16509275.119 9
  23543134.626    -7030516.929 5  -5478324.685 4
  20144964.032   -20519559.840 8 -15989258.334 8
  23107924.416    -9239817.283 5  -7199840.413 2
 92  4 12 10  1 59.9970000  0  5 17 23 11 21  3
  20964479.393   -14769352.815 8 -11508574.236 6
  20207651.234   -21156762.767 9 -16485775.618 9
  23521221.297    -7145705.677 5  -5568082.131 2
  20137876.639   -20556823.164 8 -16018294.669 9
  23129795.175    -9124830.911 5  -7110240.682 2
 92  4 12 10  2 29.9970000  0  5 17 23 11 21  3
  20973812.532   -14720292.611 8 -11470345.544 6
  20213431.832   -21126382.129 9 -16462102.403 9
  23499316.063    -7260785.007 5  -5657754.294 1
  20130839.311   -20593791.800 8 -16047101.374 9
  23151714.801    -9009615.770 5  -7020462.738 3
 92  4 12 10  2 59.9970000  0  5 17 23 11 21  3
  20983202.632   -14670953.078 7 -11431899.168 5
  20219255.001   -21095783.113 9 -16438259.009 9
  23477440.206    -7375747.447 5  -5747335.427 2
  20123858.643   -20630475.308 8 -16075685.910 9
  23173694.984    -8894170.067 5  -6930504.999 2
 92  4 12 10  3 29.9970000  0  5 17 23 11 21  3
  20992644.895   -14621346.535 7 -11393244.740 6
  20225118.642   -21064961.794 9 -16414242.385 9
  23455583.237    -7490590.919 5  -5836823.823 2
  20116932.837   -20666866.308 8 -16104042.522 8
  23195706.048    -8778496.962 5  -6840370.150 2
 92  4 12 10  3 59.9970000  0  5 17 23 11 21  3
  21002135.425   -14571474.367 7 -11354383.316 6
  20231029.350   -21033894.104 9 -16390033.778 9
  23433752.650    -7605311.482 6  -5926216.453 3
  20110068.790   -20702963.826 8 -16132170.431 8
  23217758.481    -8662598.694 5  -6750059.843 1
 92  4 12 10  4 29.9970000  0  5 17 23 11 21  3
  21011675.121   -14521335.428 7 -11315314.039 6
  20236987.724   -21002591.059 9 -16365641.804 9
  23411953.242    -7719905.139 6  -6015510.211 1
  20103253.906   -20738761.165 8 -16160064.447 8
  23239850.786    -8546476.606 5  -6659575.124 2
 92  4 12 10  4 59.9970000  0  5 17 23 11 21  3
  21021261.884   -14470936.560 7 -11276042.216 6
  20242990.468   -20971053.625 9 -16341067.173 9
  23390162.826    -7834369.317 6  -6104703.079 4
  20096499.882   -20774248.476 8 -16187716.883 9
  23262000.653    -8430133.869 5  -6568918.465 2
 92  4 12 10  5 29.9970000  0  5 17 23 11 21  3
  21030906.207   -14420270.013 7 -11236561.813 6
  20249037.883   -20939265.444 9 -16316297.160 9
  23368407.788    -7948699.411 6  -6193791.473 4
  20089808.515   -20809415.607 8 -16215119.823 9
  23284176.900    -8313571.461 5  -6478090.649 1
 92  4 12 10  5 59.9970000  0  5 17 23 11 21  3
  21040602.394   -14369326.676 7 -11196865.722 6
  20255133.562   -20907235.984 9 -16291339.137 9
  23346675.533    -8062892.245 6  -6282772.879 2
  20083177.406   -20844262.166 8 -16242272.974 8
  23306393.619    -8196792.022 5  -6387093.742 2
 92  4 12 10  6 29.9970000  0  5 17 23 11 21  3
  21050345.348   -14318111.158 7 -11156957.548 6
  20261271.214   -20874981.050 9 -16266205.407 9
  23324972.957    -8176947.741 6  -6371647.299 3
  20076604.156   -20878794.219 8 -16269181.052 8
  23328663.403    -8079801.226 5  -6295932.065 1
 92  4 12 10  6 59.9970000  0  5 17 23 11 21  3
  21060143.467   -14266620.251 7 -11116834.795 6
  20267453.235   -20842499.850 9 -16240895.366 9
  23303298.262    -8290865.392 6  -6460414.298 3
  20070092.365   -20913012.133 8 -16295844.337 8
  23350966.461    -7962604.157 5  -6204609.709 2
 92  4 12 10  7 29.9970000  0  5 17 23 11 21  3
  21070002.441   -14214836.375 7 -11076483.749 6
  20273673.627   -20809799.779 9 -16215414.786 9
  23281648.150    -8404644.603 6  -6549073.406 3
  20063642.328   -20946916.342 8 -16322263.187 9
  23373295.904    -7845205.810 5  -6113130.540 3
 92  4 12 10  7 59.9970000  0  5 17 23 11 21  3
  21079910.583   -14162752.951 7 -11035899.286 6
  20279936.593   -20776888.173 9 -16189769.368 9
  23260021.722    -8518283.301 6  -6637623.019 2
  20057248.355   -20980514.626 8 -16348443.655 9
  23395683.506    -7727610.205 5  -6021497.637 2
 92  4 12 10  8 29.9970000  0  5 17 23 11 21  3
  21089881.079   -14110376.180 7 -10995086.250 6
  20286243.625   -20743757.694 9 -16163953.407 9
  23238422.575    -8631784.817 6  -6726065.737 2
  20050911.943   -21013819.017 8 -16374395.116 8
  23418096.288    -7609826.293 5  -5929717.981 2
 92  4 12 10  8 59.9970000  0  5 17 23 11 21  3
  21099898.644   -14057711.530 7 -10954048.893 6
  20292587.833   -20710403.634 9 -16137963.232 9
  23216846.511    -8745145.976 6  -6814399.079 2
  20044627.692   -21046826.462 8 -16400115.193 9
  23440546.247    -7491856.569 5  -5837793.507 2
 92  4 12 10  9 29.9970000  0  5 17 23 11 21  3
  21109976.167   -14004782.500 7 -10912805.523 6
  20298978.510   -20676830.002 9 -16111801.964 9
  23195299.229    -8858368.654 6  -6902624.530 4
  20038402.802   -21079545.532 8 -16425610.553 9
  23463033.380    -7373708.734 5  -5745730.348 2
 92  4 12 10  9 59.9970000  0  5 17 23 11 21  3
  21120086.369   -13951627.725 7 -10871386.245 6
  20305408.759   -20643032.690 9 -16085466.391 9
  23173787.920    -8971448.537 6  -6990738.709 3
  20032230.076   -21111980.230 8 -16450884.328 8
  23485554.688    -7255384.229 5  -5653529.417 2
 92  4 12 10 10 29.9970000  0  5 17 23 11 21  3
  21130242.139   -13898276.220 7 -10829813.677 5
  20311880.977   -20609024.707 9 -16058966.653 9
  23152298.197    -9084385.377 6  -7078741.439 3
  20026114.909   -21144126.806 8 -16475933.591 8
  23508099.381    -7136888.927 5  -5561195.388 2
 92  4 12 10 10 59.9970000  0  5 17 23 11 21  3
  21140429.386   -13844728.862 7 -10788088.484 6
  20318387.672   -20574832.356 9 -16032323.247 9
  23130835.156    -9197174.116 6  -7166628.750 1
  20020050.107   -21175989.563 8 -16500761.697 9
  23530671.055    -7018223.187 5  -5468728.645 3
 92  4 12 10 11 29.9970000  0  5 17 23 11 21  3
  21150659.203   -13790966.901 7 -10746196.074 6
  20324924.947   -20540470.625 9 -16005547.861 9
  23109391.301    -9309809.462 6  -7254396.525 3
  20014042.567   -21207575.168 8 -16525373.851 9
  23553285.300    -6899387.626 5  -5376129.551 1
 92  4 12 10 11 59.9970000  0  5 17 23 11 21  3
  21160936.389   -13736964.992 7 -10704116.701 5
  20331494.299   -20505950.639 9 -15978649.176 9
  23087988.218    -9422294.677 6  -7342047.300 1
  20008081.793   -21238892.257 8 -16549776.768 9
  23575928.024    -6780391.601 5  -5283405.363 1
 92  4 12 10 12 29.9970000  0  5 17 23 11 21  3
  21171266.338   -13682680.630 7 -10661817.224 6
  20338093.330   -20471274.492 9 -15951628.787 9
  23066611.817    -9534629.089 6  -7429580.598 3
  20002171.085   -21269941.750 8 -16573971.157 9
  23598602.229    -6661240.061 4  -5190560.033 3
 92  4 12 10 12 59.9970000  0  5 17 23 11 21  3
  21181655.345   -13628089.504 7 -10619278.706 5
  20344725.940   -20436421.228 9 -15924470.390 9
  23045274.389    -9646808.084 6  -7516992.771 1
  19996314.939   -21300723.748 8 -16597957.122 9
  23621309.708    -6541934.018 5  -5097594.347 3
 92  4 12 10 13 29.9970000  0  5 17 23 11 21  3
  21192101.313   -13573191.644 7 -10576501.183 6
  20351399.619   -20401353.718 9 -15897145.052 9
  23023952.249    -9758827.982 6  -7604280.997 1
  19990510.957   -21331217.939 8 -16621718.816 9
  23644044.768    -6422476.003 5  -5004510.177 1
 92  4 12 10 13 59.9970000  0  5 17 23 11 21  3
  21202599.746   -13518006.124 7 -10533499.507 6
  20358116.168   -20366053.476 9 -15869638.356 9
  23002665.786    -9870689.187 6  -7691445.579 3
  19984765.436   -21361411.512 8 -16645246.261 9
  23666805.912    -6302872.307 4  -4911312.499
 92  4 12 10 14 29.9970000  0  5 17 23 11 21  3
  21213151.840   -13462556.957 7 -10490292.377 6
  20364878.887   -20330522.990 9 -15841952.256 9
  22981410.501    -9982390.562 6  -7778485.568 3
  19979080.170   -21391299.433 8 -16668535.539 9
  23689581.445    -6183127.868 5  -4818005.179
 92  4 12 10 14 59.9970000  0  5 17 23 11 21  3
  21223754.900   -13406865.176 7 -10446896.204 6
  20371682.978   -20294761.975 9 -15814086.509 9
  22960182.197   -10093927.210 6  -7865397.250 3
  19973450.069   -21420883.722 8 -16691588.229 9
  23712404.945    -6063243.142 5  -4724588.608 2
 92  4 12 10 15 29.9970000  0  5 17 23 11 21  3
  21234394.235   -13350949.175 7 -10403325.315 6
  20378527.239   -20258800.562 9 -15786064.620 9
  22938994.366   -10205300.832 6  -7952181.880 3
  19967872.429   -21450179.390 8 -16714416.008 8
  23735237.737    -5943226.042 4  -4631068.713 2
 92  4 12 10 15 59.9970000  0  5 17 23 11 21  3
  21245074.341   -13294813.639 7 -10359583.375 6
  20385404.178   -20222657.816 9 -15757901.440 9
  22917832.615   -10316508.631 6  -8038837.309 3
  19962349.952   -21479212.127 8 -16737038.917 9
  23758097.812    -5823079.606 5  -4537448.231 1
 92  4 12 10 16 29.9970000  0  5 17 23 11 21  3
  21255796.717   -13238464.990 7 -10315675.361 5
  20392310.498   -20186355.841 9 -15729614.201 9
  22896692.150   -10427555.599 6  -8125367.365 3
  19956871.245   -21508002.658 8 -16759473.090 9
  23780983.668    -5702814.717 5  -4443735.291 2
 92  4 12 10 16 59.9970000  0  5 17 23 11 21  3
  21266563.763   -13181894.512 7 -10271594.496 6
  20399248.295   -20149903.969 9 -15701210.139 9
  22875598.152   -10538435.731 6  -8211767.439 2
  19951439.306   -21536550.388 8 -16781718.060 9
  23803895.005    -5582431.569 5  -4349930.259 2
 92  4 12 10 17 29.9970000  0  5 17 23 11 21  3
  21277367.684   -13125101.900 7 -10227340.531 6
  20406214.572   -20113306.286 9 -15672692.463 9
  22854529.038   -10649147.232 6  -8298036.134 2
  19946051.137   -21564852.748 8 -16803771.830 9
  23826824.033    -5461934.054 5  -4256036.080 1
 92  4 12 10 17 59.9970000  0  5 17 23 11 21  3
  21288223.170   -13068074.282 7 -10182903.456 6
  20413206.032   -20076557.048 9 -15644056.695 9
  22833495.000   -10759688.039 6  -8384171.807 3
  19940718.427   -21592889.270 8 -16825618.449 9
  23849769.848    -5341326.182 5  -4162055.957 2
 92  4 12 10 18 29.9970000  0  5 17 23 11 21  3
  21299119.426   -13010806.715 7 -10138279.405 6
  20420225.673   -20039666.229 9 -15615310.613 9
  22812488.242   -10870057.164 6  -8470173.697 2
  19935434.285   -21620647.129 8 -16847247.936 9
  23872754.937    -5220613.007 5  -4067993.739 3
 92  4 12 10 18 59.9970000  0  4 17 23 11 21
  21310063.950   -12953292.739 7 -10093463.351 6
  20427273.194   -20002627.084 9 -15586448.942 9
  22791522.857   -10980250.087 6  -8556038.299 2
  19930204.407   -21648129.490 8 -16868662.757 9
 92  4 12 10 19 29.9970000  0  4 17 23 11 21
  21321051.944   -12895547.648 7 -10048467.214 6
  20434351.892   -19965432.870 9 -15557466.453 9
  22770582.353   -11090270.143 6  -8641768.201 5
  19925026.092   -21675344.669 8 -16889869.379 9
 92  4 12 10 19 59.9970000  0  4 17 23 11 21
  21332087.003   -12837568.373 7 -10003288.572 5
  20441454.576   -19928095.807 9 -15528372.641 9
  22749686.219   -11200113.353 6  -8727360.295 3
  19919898.740   -21702295.430 8 -16910869.961 9
 92  4 12 10 20 29.9970000  0  4 17 23 11 21
  21343162.236   -12779352.092 7  -9957925.263 6
  20448591.135   -19890606.438 9 -15499160.154 9
  22728818.566   -11309774.646 6  -8812810.622 2
  19914813.662   -21729008.013 8 -16931684.944 9
 92  4 12 10 20 59.9970000  0  4 17 23 11 21
  21354286.036   -12720908.182 7  -9912384.588 5
  20455756.174   -19852958.563 9 -15469824.134 9
  22707979.693   -11419251.586 6  -8898117.281 4
  19909775.649   -21755487.029 8 -16952317.932 9
 92  4 12 10 21 29.9970000  0  4 17 23 11 21
  21365448.509   -12662237.530 7  -9866667.232 5
  20462948.796   -19815158.787 9 -15440369.771 9
  22687189.386   -11528540.350 6  -8983277.326 2
  19904782.605   -21781728.792 8 -16972766.051 9
 92  4 12 10 21 59.9970000  0  4 17 23 11 21
  21376662.245   -12603322.371 7  -9820759.350 6
  20470170.495   -19777202.349 9 -15410793.313 9
  22666430.855   -11637636.833 6  -9068287.554 3
  19899833.332   -21807739.175 8 -16993033.866 9
 92  4 12 10 22 29.9970000  0  4 17 23 11 21
  21387918.552   -12544169.985 7  -9774666.611 6
  20477428.171   -19739064.035 9 -15381075.144 9
  22645706.503   -11746534.013 6  -9153142.484 4
  19894931.126   -21833510.179 8 -17013115.144 9
 92  4 12 10 22 59.9970000  0  4 17 23 11 21
  21399216.231   -12484791.660 7  -9728397.822 5
  20484718.525   -19700754.919 9 -15351223.868 9
  22625020.525   -11855227.425 6  -9237838.620 5
  19890072.390   -21859020.362 8 -17032993.195 9
 92  4 12 10 23 29.9970000  0  4 17 23 11 21
  21410562.177   -12425176.221 7  -9681944.265 5
  20492040.057   -19662282.636 9 -15321245.464 9
  22604372.319   -11963721.543 6  -9322379.485 4
  19885269.115   -21884273.924 8 -17052671.282 9
 92  4 12 10 23 59.9970000  0  4 17 23 11 21
  21421952.791   -12365320.439 7  -9635303.427 5
  20499392.466   -19623639.519 9 -15291133.936 9
  22583766.384   -12072007.256 6  -9406757.943 3
  19880516.504   -21909252.328 8 -17072134.958 9
 92  4 12 10 24 29.9970000  0  4 17 23 11 21
  21433380.880   -12305239.826 7  -9588487.377 5
  20506774.255   -19584846.764 9 -15260905.807 9
  22563201.521   -12180084.687 6  -9490974.084 4
  19875814.560   -21933953.959 8 -17091382.960 9
 92  4 12 10 24 59.9970000  0  4 17 23 11 21
  21444862.931   -12244929.285 7  -9541492.202 6
  20514184.826   -19545920.807 9 -15230573.892 9
  22542672.932   -12287950.673 6  -9575025.466 4
  19871166.577   -21958377.037 8 -17110413.907 9
 92  4 12 10 25 29.9970000  0  4 17 23 11 21
  21456378.559   -12184396.256 7  -9494323.652 6
  20521617.279   -19506851.688 9 -15200130.423 9
  22522191.112   -12395598.969 6  -9658907.236 4
  19866573.457   -21982514.642 8 -17129222.412 9
 92  4 12 10 25 59.9970000  0  4 17 23 11 21
  21467934.357   -12123657.252 7  -9446994.588 5
  20529075.517   -19467652.895 9 -15169585.919 9
  22501748.264   -12503024.163 6  -9742615.164 3
  19862033.999   -22006375.625 8 -17147815.361 9
 92  4 12 10 26 29.9970000  0  4 17 23 11 21
  21479538.726   -12062709.392 7  -9399502.789 5
  20536560.136   -19428327.465 9 -15138942.720 9
  22481345.289   -12610222.891 6  -9826146.624 5
  19857542.211   -22029976.734 8 -17166205.833 9
 92  4 12 10 26 59.9970000  0  4 17 23 11 21
  21491176.368   -12001545.595 7  -9351842.709 5
  20544069.936   -19388866.644 8 -15108194.023 9
  22460992.679   -12717188.866 6  -9909496.725 2
  19853101.383   -22053313.489 8 -17184390.310 9
 92  4 12 10 27 29.9970000  0  4 17 23 11 21
  21502856.283   -11940153.815 7  -9304005.014 5
  20551604.320   -19349263.409 8 -15077334.355 9
  22440684.438   -12823915.382 6  -9992660.241 4
  19848709.724   -22076394.086 8 -17202375.169 9
 92  4 12 10 27 59.9970000  0  4 17 23 11 21
  21514587.161   -11878510.913 7  -9255971.616 4
  20559167.186   -19309524.382 8 -15046368.889 9
  22420419.066   -12930400.576 6 -10075635.701 2
  19844364.232   -22099231.610 8 -17220170.623 9
 92  4 12 10 28 29.9970000  0  4 17 23 11 21
  21526367.506   -11816608.982 7  -9207736.375 6
  20566757.330   -19269637.215 8 -15015287.977 9
  22400203.161   -13036635.806 6 -10158416.370 2
  19840065.508   -22121811.988 8 -17237765.699 9
 92  4 12 10 28 59.9970000  0  4 17 23 11 21
  21538189.822   -11754458.669 7  -9159307.595 5
  20574376.555   -19229606.349 8 -14984095.099 9
  22380038.222   -13142622.354 6 -10241003.268 4
  19835818.949   -22144133.895 8 -17255159.366 9
 92  4 12 10 29 29.9970000  0  4 17 23 11 21
  21550068.198   -11692061.473 7  -9110686.433 4
  20582020.065   -19189431.677 8 -14952790.166 9
  22359913.453   -13248358.160 6 -10323394.784 4
  19831622.453   -22166197.786 8 -17272351.995 9
 92  4 12 10 29 59.9970000  0  4 17 23 11 21
  21561988.245   -11629413.162 7  -9061869.609 5
  20589692.653   -19149110.956 8 -14921371.428 9
  22339844.448   -13353835.249 6 -10405584.714 5
  19827469.428   -22188003.831 8 -17289343.705 9
 92  4 12 10 30 29.9970000  0  4 17 23 11 21
  21573960.458   -11566522.391 7  -9012863.860 5
  20597396.119   -19108629.139 8 -14889827.146 9
  22319823.408   -13459045.453 6 -10487566.669 4
  19823370.965   -22209552.352 8 -17306134.744 9
 92  4 12 10 30 59.9970000  0  4 17 23 11 21
  21585976.739   -11503374.043 7  -8963657.383 6
  20605134.362   -19067969.052 8 -14858143.970 9
  22299856.930   -13563985.191 6 -10569337.880 4
  19819317.173   -22230848.787 8 -17322729.356 9
 92  4 12 10 31 29.9970000  0  4 17 23 11 21
  21598041.586   -11439965.113 7  -8914247.874 4
  20612906.481   -19027122.041 8 -14826315.143 9
  22279937.221   -13668650.948 6 -10650895.602 4
  19815310.747   -22251900.517 8 -17339133.283 9
 92  4 12 10 31 59.9970000  0  4 17 23 11 21
  21610155.601   -11376295.623 7  -8864635.313 5
  20620715.777   -18986079.801 8 -14794334.195 9
  22260073.572   -13773037.799 7 -10732235.980 4
  19811351.386   -22272716.039 8 -17355353.157 9
 92  4 12 10 32 29.9970000  0  4 17 23 11 21
  21622319.980   -11312369.518 7  -8814822.807 5
  20628562.544   -18944842.379 9 -14762201.144 9
  22240261.487   -13877136.586 7 -10813351.903 4
  19807438.197   -22293277.713 8 -17371375.226 9
 92  4 12 10 32 59.9970000  0  4 17 23 11 21
  21634533.525   -11248185.156 7  -8764809.065 3
  20636444.386   -18903432.484 9 -14729933.694 9
  22220510.860   -13980945.920 7 -10894242.250 2
  19803572.971   -22313581.246 8 -17387196.138 9
 92  4 12 10 33 29.9970000  0  4 17 23 11 21
  21646795.335   -11183766.308 7  -8714612.577 4
  20644352.312   -18861875.936 9 -14697551.975 9
  22200810.899   -14084463.856 7 -10974905.564 2
  19799759.311   -22333620.713 8 -17402811.286 9
 92  4 12 10 33 59.9970000  0  4 17 23 11 21
  21659092.822   -11119120.841 7  -8664239.525 5
  20652281.822   -18820205.039 9 -14665081.162 8
  22181166.098   -14187687.773 7 -11055339.765 5
  19796000.214   -22353376.969 8 -17418205.745 9
 92  4 12 10 34 29.9970000  0  4 17 23 11 21
  21671440.973   -11054252.951 7  -8613693.125 4
  20660229.020   -18778433.304 9 -14632531.767 8
  22161582.155   -14290608.606 7 -11135537.801 4
  19792301.374   -22372824.839 8 -17433359.916 9
 92  4 12 10 34 59.9970000  0  4 17 23 11 21
  21683822.101   -10989164.243 7  -8562974.676 5
  20668198.705   -18736560.016 9 -14599903.242 9
  22142052.776   -14393222.089 6 -11215496.356 5
  19788657.997   -22391960.260 8 -17448270.631 9
 92  4 12 10 35 29.9970000  0  4 17 23 11 21
  21696256.893   -10923854.415 7  -8512083.940 4
  20676189.072   -18694573.408 9 -14567186.409 8
  22122588.151   -14495520.176 7 -11295209.140 4
  19785078.775   -22410781.720 8 -17462936.687 9
 92  4 12 10 35 59.9970000  0  4 17 23 11 21
  21708730.658   -10858301.728 7  -8461003.955 4
  20684201.625   -18652461.869 9 -14534372.235 8
  22103182.885   -14597498.655 7 -11374672.854 3
  19781553.815   -22429293.165 8 -17477361.180 9
 92  4 12 10 36 29.9970000  0  4 17 23 11 21
  21721251.791   -10792477.766 7  -8409712.574 3
  20692246.555   -18610191.938 9 -14501434.630 8
  22083836.677   -14699155.030 7 -11453885.586 2
  19778084.018   -22447525.021 8 -17491567.801 9
 92  4 12 10 36 59.9970000  0  4 17 23 11 21
  21733833.780   -10726363.263 6  -8358194.825 5
  20700322.965   -18567747.966 9 -14468361.419 8
  22064553.127   -14800486.200 7 -11532844.918 2
  19774667.283   -22465494.998 8 -17505570.373 9
 92  4 12 10 37 29.9970000  0  4 17 23 11 21
  21746476.927   -10659949.897 6  -8306444.184 4
  20708434.749   -18525116.461 9 -14435142.062 9
  22045336.131   -14901489.423 7 -11611548.713 4
  19771296.117   -22483201.512 8 -17519367.653 9
 92  4 12 10 37 59.9970000  0  4 17 23 11 21
  21759174.037   -10593225.202 7  -8254450.941 5
  20716584.607   -18482293.961 8 -14401773.889 9
  22026179.692   -15002159.591 7 -11689992.981 4
  19767980.111   -22500641.825 8 -17532957.500 9
 92  4 12 10 38 29.9970000  0  4 17 23 11 21
  21771922.411   -10526209.724 6  -8202231.120 4
  20724768.341   -18439280.763 8 -14368257.100 8
  22007087.710   -15102490.781 7 -11768173.120 5
  19764710.876   -22517811.804 8 -17546336.697 9
 92  4 12 10 38 59.9970000  0  4 17 23 11 21
  21784720.851   -10458938.388 6  -8149811.933 5
  20732985.354   -18396094.740 8 -14334605.676 8
  21988058.084   -15202475.368 7 -11846083.162 4
  19761495.601   -22534687.141 8 -17559486.295 9
 92  4 12 10 39 29.9970000  0  4 17 23 11 21
  21797566.658   -10391432.847 6  -8097210.223 5
  20741235.341   -18352755.632 8 -14300834.940 8
  21969098.010   -15302116.727 7 -11923725.765 5
  19758342.683   -22551278.499 8 -17572414.611 9
 92  4 12 10 39 59.9970000  0  4 17 23 11 21
  21810459.232   -10323696.583 6  -8044428.763 5
  20749506.616   -18309277.523 8 -14266955.911 8
  21950202.391   -15401405.764 7 -12001093.821 3
  19755238.933   -22567592.579 8 -17585126.876 9
 92  4 12 10 40 29.9970000  0  4 17 23 11 21
  21823393.779   -10255736.816 6  -7991473.118 4
  20757807.870   -18265665.644 8 -14232972.642 8
  21931377.222   -15500341.043 7 -12078186.215 4
  19752184.047   -22583628.929 8 -17597622.719 9
 92  4 12 10 40 59.9970000  0  5 17 23 12 11 21
  21836368.797   -10187529.303 6  -7938324.442 3
  20766132.206   -18221915.263 8 -14198881.447 9
  23742711.863    -2257902.400 5  -1759411.410 2
  21912620.708   -15598915.884 7 -12154997.754 3
  19749185.823   -22599388.896 8 -17609903.204 9
 92  4 12 10 41 29.9970000  0  5 17 23 12 11 21
  21849399.577   -10119065.640 6  -7884976.164 2
  20774486.522   -18178012.990 8 -14164671.900 8
  23730018.350    -2324547.158 4  -1811342.337 2
  21893928.948   -15697130.532 7 -12231528.643 4
  19746238.564   -22614877.707 8 -17621972.405 9
 92  4 12 10 41 59.9970000  0  5 17 23 12 11 21
  21862484.018   -10050339.414 6  -7831423.288 4
  20782875.315   -18133943.517 8 -14130332.062 8
  23717424.668    -2390784.653 5  -1862955.934 3
  21875307.339   -15794979.508 7 -12307774.591 4
  19743345.266   -22630087.135 8 -17633823.891 9
 92  4 12 10 42 29.9970000  0  5 17 23 12 11 21
  21875603.236    -9981346.745 6  -7777662.790 4
  20791292.288   -18089697.899 8 -14095854.975 8
  23704884.350    -2456612.715 5  -1914250.432 2
  21856758.281   -15892460.419 7 -12383733.727 4
  19740501.735   -22645017.212 8 -17645457.710 9
 92  4 12 10 42 59.9970000  0  5 17 23 12 11 21
  21888785.108    -9912097.868 6  -7723702.640 3
  20799746.436   -18045271.764 8 -14061237.222 8
  23692439.965    -2522024.597 5  -1965220.683 1
  21838281.471   -15989566.719 7 -12459400.964 5
  19737709.768   -22659674.138 8 -17656878.685 9
 92  4 12 10 43 29.9970000  0  5 17 23 12 11 21
  21902011.353    -9842593.359 6  -7669543.314 5
  20808232.961   -18000676.719 8 -14026487.848 9
  23680084.020    -2587019.390 5  -2015865.897 1
  21819873.315   -16086297.368 7 -12534775.481 5
  19734974.161   -22674065.600 8 -17668092.809 9
 92  4 12 10 43 59.9970000  0  5 17 23 12 11 21
  21915287.062    -9772819.392 6  -7615174.013 4
  20816747.965   -17955931.556 8 -13991621.497 8
  23667782.334    -2651592.854 5  -2066182.832 2
  21801536.511   -16182647.744 7 -12609853.685 4
  19732287.122   -22688198.753 8 -17679105.651 9
 92  4 12 10 44 29.9970000  0  5 17 23 12 11 21
  21928612.838    -9702779.643 6  -7560597.605 5
  20825286.653   -17911051.173 8 -13956649.784 8
  23655569.090    -2715744.755 5  -2116171.218 2
  21783273.154   -16278617.566 7 -12684635.343 4
  19729646.550   -22702070.332 8 -17689914.659 9
 92  4 12 10 44 59.9970000  0  5 17 23 12 11 21
  21941996.472    -9632469.465 6  -7505810.491 2
  20833852.025   -17866037.551 8 -13921574.251 9
  23643450.880    -2779467.688 5  -2165825.403 1
  21765089.242   -16374199.517 7 -12759114.767 4
  19727057.243   -22715672.629 8 -17700513.832 9
 92  4 12 10 45 29.9970000  0  5 17 23 12 11 21
  21955430.771    -9561875.193 6  -7450801.990 4
  20842443.476   -17820894.409 8 -13886397.792 8
  23631404.620    -2842760.212 5  -2215144.203 3
  21746969.787   -16469391.823 7 -12833290.570 3
  19724525.496   -22728983.073 8 -17710885.607 9
 92  4 12 10 45 59.9970000  0  5 17 23 12 11 21
  21968906.442    -9491028.548 6  -7395596.856 4
  20851057.414   -17775627.212 8 -13851124.661 9
  23619447.096    -2905622.944 5  -2264128.134 2
  21728931.874   -16564195.172 7 -12907163.312 5
  19722052.207   -22741992.588 8 -17721022.882 9
 92  4 12 10 46 29.9970000  0  5 17 23 12 11 21
  21982437.576    -9419950.910 6  -7340211.711 4
  20859698.332   -17730228.387 8 -13815748.964 8
  23607560.926    -2968054.853 5  -2312776.283 1
  21710966.511   -16658608.325 7 -12980731.988 5
  19719628.686   -22754705.837 8 -17730929.297 9
 92  4 12 10 46 59.9970000  0  5 17 23 12 11 21
  21996006.481    -9348636.044 6  -7284641.713 2
  20868362.633   -17684688.437 8 -13780263.297 8
  23595756.598    -3030048.567 5  -2361082.996 2
  21693073.699   -16752623.627 7 -13053990.658 4
  19717266.020   -22767123.430 8 -17740605.333 9
 92  4 12 10 47 29.9970000  0  5 17 23 12 11 21
  22009624.555    -9277089.379 6  -7228891.106 4
  20877056.914   -17639009.068 8 -13744668.998 8
  23584054.798    -3091604.821 5  -2409048.855 2
  21675258.830   -16846241.928 7 -13126939.975 5
  19714958.218   -22779260.727 8 -17750062.947 9
 92  4 12 10 47 59.9970000  0  5 17 23 12 11 21
  22023286.695    -9205312.025 6  -7172960.742 4
  20885776.978   -17593179.750 8 -13708957.843 8
  23572425.848    -3152721.361 5  -2456672.116 3
  21657521.609   -16939460.306 7 -13199577.667 5
  19712697.784   -22791150.867 8 -17759327.985 9
 92  4 12 10 48 29.9970000  0  5 17 23 12 11 21
  22036986.311    -9133280.964 6  -7116832.674 4
  20894528.818   -17547186.640 8 -13673119.063 8
  23560864.953    -3213399.942 4  -2503954.046 1
  21639858.138   -17032280.597 7 -13271905.144 4
  19710476.022   -22802810.039 8 -17768413.049 9
 92  4 12 10 48 59.9970000  0  5 17 23 12 11 21
  22050742.588    -9060985.088 6  -7060498.253 3
  20903309.441   -17501041.211 8 -13637161.586 8
  23549408.983    -3273641.431 5  -2550895.391 1
  21622270.513   -17124703.350 7 -13343922.858 4
  19708305.523   -22814229.193 8 -17777311.090 9
 92  4 12 10 49 29.9970000  0  5 17 23 12 11 21
  22064550.429    -8988435.653 6  -7003966.251 5
  20912120.939   -17454745.722 8 -13601087.200 7
  23538034.259    -3333441.676 5  -2597492.897 3
  21604761.135   -17216724.405 7 -13415627.556 4
  19706173.401   -22825410.951 8 -17786024.131 9
 92  4 12 10 49 59.9970000  0  5 17 23 12 11 21
  22078403.240    -8915634.920 6  -6947238.437 4
  20920957.921   -17408308.806 8 -13564902.598 8
  23526737.479    -3392799.518 5  -2643745.726 2
  21587326.105   -17308342.021 7 -13487017.899 6
  19704095.239   -22836338.041 8 -17794538.733 9
 92  4 12 10 50 29.9970000  0  5 17 23 12 11 21
  22092304.616    -8842596.534 6  -6890325.459 3
  20929815.890   -17361750.017 8 -13528623.012 8
  23515534.234    -3451717.401 5  -2689655.683 2
  21569967.523   -17399558.653 7 -13558095.791 5
  19702068.342   -22846990.859 8 -17802839.620 9
 92  4 12 10 50 59.9970000  0  5 17 23 12 11 21
  22106246.764    -8769344.653 6  -6833246.077 3
  20938693.644   -17315096.096 8 -13492269.314 8
  23504376.259    -3510193.563 4  -2735221.473 3
  21552685.087   -17490372.295 7 -13628859.654 6
  19700097.505   -22857372.023 8 -17810928.833 9
 92  4 12 10 51 29.9970000  0  5 17 23 12 11 21
  22120220.091    -8695885.768 6  -6776005.426 3
  20947592.084   -17268340.906 8 -13455836.712 8
  23493353.489    -3568226.322 5  -2780441.746 3
  21535479.997   -17580780.948 7 -13699307.943 5
  19698166.244   -22867498.010 8 -17818819.207 9
 92  4 12 10 51 59.9970000  0  5 17 23 12 11 21
  22134239.585    -8622221.654 6  -6718604.847 4
  20956508.510   -17221488.830 8 -13419328.609 7
  23482405.369    -3625817.444 5  -2825317.940 3
  21518353.455   -17670785.968 7 -13769441.714 5
  19696289.842   -22877371.577 8 -17826512.899 9
 92  4 12 10 52 29.9970000  0  5 17 23 12 11 21
  22148302.249    -8548355.558 6  -6661046.889 3
  20965442.027   -17174540.243 8 -13382745.294 7
  23471515.408    -3682963.062 5  -2869846.884 2
  21501303.658   -17760383.379 7 -13839257.861 4
  19694453.313   -22887005.581 8 -17834019.909 9
 92  4 12 10 52 59.9970000  0  5 17 23 12 11 21
  22162393.095    -8474278.340 6  -6603324.403 3
  20974395.328   -17127494.297 8 -13346086.122 8
  23460734.870    -3739660.076 5  -2914026.343 2
  21484333.306   -17849569.500 7 -13908753.521 4
  19692666.252   -22896410.666 8 -17841348.540 9
 92  4 12 10 53 29.9970000  0  5 17 23 12 11 21
  22176527.409    -8399975.266 6  -6545425.938 3
  20983369.916   -17080335.402 8 -13309338.936 7
  23450025.685    -3795903.742 5  -2957852.504 3
  21467442.398   -17938339.544 7 -13977924.971 4
  19690920.259   -22905569.644 8 -17848485.405 9
 92  4 12 10 53 59.9970000  0  5 17 23 12 11 21
  22190707.593    -8325454.997 6  -6487358.217 4
  20992360.391   -17033068.815 8 -13272507.834 8
  23439415.130    -3851696.822 5  -3001327.623 2
  21450627.639   -18026695.753 7 -14046773.965 5
  19689228.232   -22914479.526 8 -17855428.165 9
 92  4 12 10 54 29.9970000  0  5 17 23 12 11 21
  22204936.043    -8250710.609 6  -6429115.877 4
  21001376.949   -16985705.898 8 -13235601.670 7
  23428888.818    -3907041.195 5  -3044453.071 2
  21433892.924   -18114639.844 7 -14115301.804 5
  19687575.775   -22923144.415 8 -17862180.014 9
 92  4 12 10 54 59.9970000  0  5 17 23 12 11 21
  22219204.065    -8175736.108 6  -6370694.229 3
  21010409.696   -16938235.226 8 -13198611.541 8
  23418443.748    -3961927.948 5  -3087221.910 2
  21417238.255   -18202162.371 7 -14183501.166 4
  19685977.282   -22931555.870 8 -17868734.383 9
 92  4 12 10 55 29.9970000  0  5 17 23 12 11 21
  22233509.861    -8100543.567 6  -6312102.677 4
  21019462.230   -16890652.433 8 -13161534.044 8
  23408073.027    -4016354.743 5  -3129632.341 3
  21400662.730   -18289260.851 7 -14251370.101 6
  19684425.855   -22939715.038 8 -17875092.167 9
 92  4 12 10 55 59.9970000  0  5 17 23 12 11 21
  22247866.922    -8025127.999 6  -6253337.322 3
  21028533.948   -16842973.658 8 -13124381.745 7
  23397795.244    -4070319.738 5  -3171682.949 3
  21384170.247   -18375932.933 7 -14318906.774 5
  19682917.000   -22947631.418 8 -17881260.772 9
 92  4 12 10 56 29.9970000  0  5 17 23 12 11 21
  22262255.761    -7949482.390 6  -6194392.706 4
  21037624.855   -16795207.092 8 -13087161.040 7
  23387637.976    -4123815.823 5  -3213368.171 2
  21367760.207   -18462171.065 7 -14386105.300 6
  19681458.810   -22955310.034 8 -17887244.102 9
 92  4 12 10 56 59.9970000  0  5 17 23 12 11 21
  22276694.366    -7873619.290 6  -6135278.642 4
  21046734.050   -16747346.353 8 -13049866.968 7
  23377534.071    -4176842.230 5  -3254687.371 1
  21351431.111   -18547974.294 7 -14452964.940 5
  19680038.393   -22962758.625 8 -17893048.192 9
 92  4 12 10 57 29.9970000  0  5 17 23 12 11 21
  22291178.537    -7797533.442 6  -6075991.036 3
  21055859.432   -16699391.272 8 -13012499.384 7
  23367533.292    -4229394.247 5  -3295636.960 1
  21335185.957   -18633337.277 7 -14519481.529 5
  19678664.443   -22969978.812 8 -17898674.318 9
 92  4 12 10 57 59.9970000  0  5 17 23 12 11 21
  22305699.287    -7721224.141 6  -6016529.254 3
  21065002.203   -16651345.893 8 -12975061.428 7
  23357633.847    -4281468.386 5  -3336214.194 2
  21319028.944   -18718256.058 7 -14585652.004 5
  19677332.466   -22976976.518 8 -17904127.058 9
 92  4 12 10 58 29.9970000  0  5 17 23 12 11 21
  22320253.010    -7644710.705 6  -5956908.445 4
  21074164.459   -16603194.809 8 -12937541.110 7
  23347823.738    -4333060.644 5  -3376415.852 1
  21302954.672   -18802726.266 7 -14651472.931 5
  19676042.760   -22983751.688 8 -17909406.396 9
 92  4 12 10 58 59.9970000  0  5 17 23 12 11 21
  22334855.300    -7567996.009 6  -5897130.795 4
  21083349.501   -16554930.179 8 -12899932.325 7
  23338085.579    -4384166.461 5  -3416238.550 3
  21286965.541   -18886743.060 7 -14716940.549 5
  19674798.021   -22990297.940 9 -17914507.358 9
 92  4 12 10 59 29.9970000  0  5 17 23 12 11 21
  22349483.674    -7491082.686 6  -5837198.400 3
  21092554.629   -16506564.424 8 -12862244.740 6
  23328456.245    -4434783.896 5  -3455680.649 2
  21271060.351   -18970303.828 7 -14782052.825 5
  19673596.752   -22996607.955 8 -17919424.250 9
 92  4 12 10 59 59.9970000  0  5 17 23 12 11 21
  22364159.715    -7413969.565 6  -5777110.271 2
  21101774.146   -16458104.150 8 -12824483.500 6
  23318922.247    -4484909.921 6  -3494739.789 2
  21255250.196   -19053405.330 7 -14846807.233 5
  19672443.751   -23002676.093 9 -17924152.659 9
 92  4 12 11  0 29.9970000  0  5 17 23 12 11 21
  22378875.326    -7336643.160 6  -5716855.941 2
  21111016.446   -16409537.843 8 -12786639.634 7
  23309474.287    -4534534.462 5  -3533408.277 3
  21239527.881   -19136036.838 7 -14911195.396 4
  19671337.516   -23008491.737 8 -17928684.324 9
 92  4 12 11  0 59.9970000  0  5 17 23 12 11 21
  22393640.106    -7259098.892 6  -5656431.882 2
  21120275.837   -16360873.456 8 -12748719.332 7
  23300117.764    -4583661.263 5  -3571688.855 1
  21223891.306   -19218201.524 7 -14975219.814 4
  19670276.250   -23014054.252 9 -17933018.737 9
 92  4 12 11  1 29.9970000  0  5 17 23 12 11 21
  22408434.263    -7181327.119 6  -5595830.555 4
  21129557.113   -16312104.738 8 -12710717.747 7
  23290877.860    -4632281.713 5  -3609574.831 3
  21208346.768   -19299890.263 7 -15038873.368 6
  19669269.248   -23019358.264 9 -17937151.731 9
 92  4 12 11  1 59.9970000  0  5 17 23 12 11 21
  22423271.291    -7103326.529 6  -5535050.916 3
  21138861.770   -16263216.703 8 -12672623.178 7
  23281713.804    -4680393.609 5  -3647064.578 2
  21192891.267   -19381100.474 7 -15102154.050 5
  19668304.216   -23024415.277 8 -17941092.254 9
